[[{"header":{"parameterUnit":"m.s-1","parameterCategory":1,"la1":30.6,"la2":28.766,"lo1":-90.7593,"lo2":-88.6598,"dy":0.0162,"dx":0.0183,"nx":116,"ny":114,"refTime":"2024-03-12T12:00:00:Z","depth":0,"parameterNumber":2,"parameterNumberName":"U-component_of_WINDS"},"data":[0.0,0.0,0.0,0.0,0.0,0.0,0.0,0.0,0.0,0.0,0.0,0.0,0.0,0.0,0.0,0.0,0.0,0.0,0.0,0.0,0.0,0.0,0.0,0.0,0.0,0.0,0.0,0.0,0.0,0.0,0.0,0.0,0.0,0.0,0.0,0.0,0.0,0.0,0.0,0.0,0.0,0.0,0.0,0.0,0.0,0.0,0.0,0.0,0.0,0.0,0.0,0.0,0.0,0.0,0.0,0.0,0.0,0.0,0.0,0.0,0.0,0.0,0.0,0.0,0.0,0.0,0.0,0.0,0.0,0.0,0.0,0.0,0.0,0.0,0.0,0.0,0.0,0.0,0.0,0.0,0.0,0.0,0.0,0.0,0.0,0.0,0.0,0.0,0.0,0.0,0.0,0.0,0.0,0.0,0.0,0.0,0.0,0.0,0.0,0.0,0.0,0.0,0.0,0.0,0.0,0.0,0.0,0.0,0.0,0.0,0.0,0.0,0.0,0.0,0.0,0.0,0.0,0.0,0.0,0.0,0.0,0.0,0.0,0.0,0.0,0.0,0.0,0.0,0.0,0.0,0.0,0.0,0.0,0.0,0.0,0.0,0.0,0.0,0.0,0.0,0.0,0.0,0.0,0.0,0.0,0.0,0.0,0.0,0.0,0.0,0.0,0.0,0.0,0.0,0.0,0.0,0.0,0.0,0.0,0.0,0.0,0.0,0.0,0.0,0.0,0.0,0.0,0.0,0.0,0.0,0.0,0.0,0.0,0.0,0.0,0.0,0.0,0.0,0.0,0.0,0.0,0.0,0.0,0.0,0.0,0.0,0.0,0.0,0.0,0.0,0.0,0.0,0.0,0.0,0.0,0.0,0.0,0.0,0.0,0.0,0.0,0.0,0.0,0.0,0.0,0.0,0.0,0.0,0.0,0.0,0.0,0.0,0.0,0.0,0.0,0.0,0.0,0.0,0.0,0.0,0.0,0.0,0.0,0.0,0.0,0.0,0.0,0.0,0.0,0.0,0.0,0.0,0.0,0.0,0.0,0.0,0.0,0.0,0.0,0.0,0.0,0.0,0.0,0.0,0.0,0.0,0.0,0.0,0.0,0.0,0.0,0.0,0.0,0.0,0.0,0.0,0.0,0.0,0.0,0.0,0.0,0.0,0.0,0.0,0.0,0.0,0.0,0.0,0.0,0.0,0.0,0.0,0.0,0.0,0.0,0.0,0.0,0.0,0.0,0.0,0.0,0.0,0.0,0.0,0.0,0.0,0.0,0.0,0.0,0.0,0.0,0.0,0.0,0.0,0.0,0.0,0.0,0.0,0.0,0.0,0.0,0.0,0.0,0.0,0.0,0.0,0.0,0.0,0.0,0.0,0.0,0.0,0.0,0.0,0.0,0.0,0.0,0.0,0.0,0.0,0.0,0.0,0.0,0.0,0.0,0.0,0.0,0.0,0.0,0.0,0.0,0.0,0.0,0.0,0.0,0.0,0.0,0.0,0.0,0.0,0.0,0.0,0.0,0.0,0.0,0.0,0.0,0.0,0.0,0.0,0.0,0.0,0.0,0.0,0.0,0.0,0.0,0.0,0.0,0.0,0.0,0.0,0.0,0.0,0.0,0.0,0.0,0.0,0.0,0.0,0.0,0.0,0.0,0.0,0.0,0.0,0.0,0.0,0.0,0.0,0.0,0.0,0.0,0.0,0.0,0.0,0.0,0.0,0.0,0.0,0.0,0.0,0.0,0.0,0.0,0.0,0.0,0.0,0.0,0.0,0.0,0.0,0.0,0.0,0.0,0.0,0.0,0.0,0.0,0.0,0.0,0.0,0.0,0.0,0.0,0.0,0.0,0.0,0.0,0.0,0.0,0.0,0.0,0.0,0.0,0.0,0.0,0.0,0.0,0.0,0.0,0.0,0.0,0.0,0.0,0.0,0.0,0.0,0.0,0.0,0.0,0.0,0.0,0.0,0.0,0.0,0.0,0.0,0.0,0.0,0.0,0.0,0.0,0.0,0.0,0.0,0.0,0.0,0.0,0.0,0.0,0.0,0.0,0.0,0.0,0.0,0.0,0.0,0.0,0.0,0.0,0.0,0.0,0.0,0.0,0.0,0.0,0.0,0.0,0.0,0.0,0.0,0.0,0.0,0.0,0.0,0.0,0.0,0.0,0.0,0.0,0.0,0.0,0.0,0.0,0.0,0.0,0.0,0.0,0.0,0.0,0.0,0.0,0.0,0.0,0.0,0.0,0.0,0.0,0.0,0.0,0.0,0.0,0.0,0.0,0.0,0.0,0.0,0.0,0.0,0.0,0.0,0.0,0.0,0.0,0.0,0.0,0.0,0.0,0.0,0.0,0.0,0.0,0.0,0.0,0.0,0.0,0.0,0.0,0.0,0.0,0.0,0.0,0.0,0.0,0.0,0.0,0.0,0.0,0.0,0.0,0.0,0.0,0.0,0.0,0.0,0.0,0.0,0.0,0.0,0.0,0.0,0.0,0.0,0.0,0.0,0.0,0.0,0.0,0.0,0.0,0.0,0.0,0.0,0.0,0.0,0.0,0.0,0.0,0.0,0.0,0.0,0.0,0.0,0.0,0.0,0.0,0.0,0.0,0.0,0.0,0.0,0.0,0.0,0.0,0.0,0.0,0.0,0.0,0.0,0.0,0.0,0.0,0.0,0.0,0.0,0.0,0.0,0.0,0.0,0.0,0.0,0.0,0.0,0.0,0.0,0.0,0.0,0.0,0.0,0.0,0.0,0.0,0.0,0.0,0.0,0.0,0.0,0.0,0.0,0.0,0.0,0.0,0.0,0.0,0.0,0.0,0.0,0.0,0.0,0.0,0.0,0.0,0.0,0.0,0.0,0.0,0.0,0.0,0.0,0.0,0.0,0.0,0.0,0.0,0.0,0.0,0.0,0.0,0.0,0.0,0.0,0.0,0.0,0.0,0.0,0.0,0.0,0.0,0.0,0.0,0.0,0.0,0.0,0.0,0.0,0.0,0.0,0.0,0.0,0.0,0.0,0.0,0.0,0.0,0.0,0.0,0.0,0.0,0.0,0.0,0.0,0.0,0.0,0.0,0.0,0.0,0.0,0.0,0.0,0.0,0.0,0.0,0.0,0.0,0.0,0.0,0.0,0.0,0.0,0.0,0.0,0.0,0.0,0.0,0.0,0.0,0.0,0.0,0.0,0.0,0.0,0.0,0.0,0.0,0.0,0.0,0.0,0.0,0.0,0.0,0.0,0.0,0.0,0.0,0.0,0.0,0.0,0.0,0.0,0.0,0.0,0.0,0.0,0.0,0.0,0.0,0.0,0.0,0.0,0.0,0.0,0.0,0.0,0.0,0.0,0.0,0.0,0.0,0.0,0.0,0.0,0.0,0.0,0.0,0.0,0.0,0.0,0.0,0.0,0.0,0.0,0.0,0.0,0.0,0.0,0.0,0.0,0.0,0.0,0.0,0.0,0.0,0.0,0.0,0.0,0.0,0.0,0.0,0.0,0.0,0.0,0.0,0.0,0.0,0.0,0.0,0.0,0.0,0.0,0.0,0.0,0.0,0.0,0.0,0.0,0.0,0.0,0.0,0.0,0.0,0.0,0.0,0.0,0.0,0.0,0.0,0.0,0.0,0.0,0.0,0.0,0.0,0.0,0.0,0.0,0.0,0.0,0.0,0.0,0.0,0.0,0.0,0.0,0.0,0.0,0.0,0.0,0.0,0.0,0.0,0.0,0.0,0.0,0.0,0.0,0.0,0.0,0.0,0.0,0.0,0.0,0.0,0.0,0.0,0.0,0.0,0.0,0.0,0.0,0.0,0.0,0.0,0.0,0.0,0.0,0.0,0.0,0.0,0.0,0.0,0.0,0.0,0.0,0.0,0.0,0.0,0.0,0.0,0.0,0.0,0.0,0.0,0.0,0.0,0.0,0.0,0.0,0.0,0.0,0.0,0.0,0.0,0.0,0.0,0.0,0.0,0.0,0.0,0.0,0.0,0.0,0.0,0.0,0.0,0.0,0.0,0.0,0.0,0.0,0.0,0.0,0.0,0.0,0.0,0.0,0.0,0.0,0.0,0.0,0.0,0.0,0.0,0.0,0.0,0.0,0.0,0.0,0.0,0.0,0.0,0.0,0.0,0.0,0.0,0.0,0.0,0.0,0.0,0.0,0.0,0.0,0.0,0.0,0.0,0.0,0.0,0.0,0.0,0.0,0.0,0.0,0.0,0.0,0.0,0.0,0.0,0.0,0.0,0.0,0.0,0.0,0.0,0.0,0.0,0.0,0.0,0.0,0.0,0.0,0.0,0.0,0.0,0.0,0.0,0.0,0.0,0.0,0.0,0.0,0.0,0.0,0.0,0.0,0.0,0.0,0.0,0.0,0.0,0.0,0.0,0.0,0.0,0.0,0.0,0.0,0.0,0.0,0.0,0.0,0.0,0.0,0.0,0.0,0.0,0.0,0.0,0.0,0.0,0.0,0.0,0.0,0.0,0.0,0.0,0.0,0.0,0.0,0.0,0.0,0.0,0.0,0.0,0.0,0.0,0.0,0.0,0.0,0.0,0.0,0.0,0.0,0.0,0.0,0.0,0.0,0.0,0.0,0.0,0.0,0.0,0.0,0.0,0.0,0.0,0.0,0.0,0.0,0.0,0.0,0.0,0.0,0.0,0.0,0.0,0.0,0.0,0.0,0.0,0.0,0.0,0.0,0.0,0.0,0.0,0.0,0.0,0.0,0.0,0.0,0.0,0.0,0.0,0.0,0.0,0.0,0.0,0.0,0.0,0.0,0.0,0.0,0.0,0.0,0.0,0.0,0.0,0.0,0.0,0.0,0.0,0.0,0.0,0.0,0.0,0.0,0.0,0.0,0.0,0.0,0.0,0.0,0.0,0.0,0.0,0.0,0.0,0.0,0.0,0.0,0.0,0.0,0.0,0.0,0.0,0.0,0.0,0.0,0.0,0.0,0.0,0.0,0.0,0.0,0.0,0.0,0.0,0.0,0.0,0.0,0.0,0.0,0.0,0.0,0.0,0.0,0.0,0.0,0.0,0.0,0.0,0.0,0.0,0.0,0.0,0.0,0.0,0.0,0.0,0.0,0.0,0.0,0.0,0.0,0.0,0.0,0.0,0.0,0.0,0.0,0.0,0.0,0.0,0.0,0.0,0.0,0.0,0.0,0.0,0.0,0.0,0.0,0.0,0.0,0.0,0.0,0.0,0.0,0.0,0.0,0.0,0.0,0.0,0.0,0.0,0.0,0.0,0.0,0.0,0.0,0.0,0.0,0.0,0.0,0.0,0.0,0.0,0.0,0.0,0.0,0.0,0.0,0.0,0.0,0.0,0.0,0.0,0.0,0.0,0.0,0.0,0.0,0.0,0.0,0.0,0.0,0.0,0.0,0.0,0.0,0.0,0.0,0.0,0.0,0.0,0.0,0.0,0.0,0.0,0.0,0.0,0.0,0.0,0.0,0.0,0.0,0.0,0.0,0.0,0.0,0.0,0.0,0.0,0.0,0.0,0.0,0.0,0.0,0.0,0.0,0.0,0.0,0.0,0.0,0.0,0.0,0.0,0.0,0.0,0.0,0.0,0.0,0.0,0.0,0.0,0.0,0.0,0.0,0.0,0.0,0.0,0.0,0.0,0.0,0.0,0.0,0.0,0.0,0.0,0.0,0.0,0.0,0.0,0.0,0.0,0.0,0.0,0.0,0.0,0.0,0.0,0.0,0.0,0.0,0.0,0.0,0.0,0.0,0.0,0.0,0.0,0.0,0.0,0.0,0.0,0.0,0.0,0.0,0.0,0.0,0.0,0.0,0.0,0.0,0.0,0.0,0.0,0.0,0.0,0.0,0.0,0.0,0.0,0.0,0.0,0.0,0.0,0.0,0.0,0.0,0.0,0.0,0.0,0.0,0.0,0.0,0.0,0.0,0.0,0.0,0.0,0.0,0.0,0.0,0.0,0.0,0.0,0.0,0.0,0.0,0.0,0.0,0.0,0.0,0.0,0.0,0.0,0.0,0.0,0.0,0.0,0.0,0.0,0.0,0.0,0.0,0.0,0.0,0.0,0.0,0.0,0.0,0.0,0.0,0.0,0.0,0.0,0.0,0.0,0.0,4.8814,0.0,0.0,0.0,0.0,0.0,0.0,0.0,0.0,0.0,0.0,0.0,0.0,0.0,0.0,0.0,0.0,0.0,0.0,0.0,0.0,0.0,0.0,0.0,0.0,0.0,0.0,0.0,4.1726,4.1726,4.1718,4.0914,4.0242,3.9819,3.9365,3.8711,3.7837,3.8227,3.885,3.9649,4.0518,4.2284,4.4816,4.3426,4.2343,4.1518,0.0,0.0,0.0,0.0,0.0,0.0,0.0,0.0,0.0,0.0,0.0,0.0,0.0,0.0,0.0,0.0,0.0,0.0,0.0,0.0,0.0,0.0,0.0,0.0,0.0,0.0,0.0,0.0,0.0,0.0,0.0,0.0,0.0,0.0,0.0,0.0,0.0,0.0,0.0,0.0,0.0,0.0,0.0,0.0,0.0,0.0,0.0,0.0,0.0,0.0,0.0,0.0,0.0,0.0,0.0,0.0,0.0,0.0,0.0,0.0,0.0,0.0,0.0,0.0,0.0,0.0,0.0,0.0,0.0,0.0,0.0,4.9184,0.0,0.0,0.0,0.0,0.0,0.0,0.0,0.0,0.0,0.0,0.0,0.0,0.0,0.0,0.0,0.0,0.0,0.0,0.0,0.0,0.0,0.0,0.0,3.9536,4.0788,4.267,4.2709,4.2631,4.2637,4.1818,4.0935,4.0062,4.0023,3.9686,3.8967,3.9805,4.1052,4.2753,4.4395,4.6362,4.8655,4.9513,4.8767,4.6591,4.4247,0.0,0.0,0.0,0.0,0.0,0.0,0.0,0.0,0.0,0.0,0.0,0.0,0.0,0.0,0.0,0.0,0.0,0.0,0.0,0.0,0.0,0.0,0.0,0.0,0.0,0.0,0.0,0.0,0.0,0.0,0.0,0.0,0.0,0.0,0.0,0.0,0.0,0.0,0.0,0.0,0.0,0.0,0.0,0.0,0.0,0.0,0.0,0.0,0.0,0.0,0.0,0.0,0.0,0.0,0.0,0.0,0.0,0.0,0.0,0.0,0.0,0.0,0.0,0.0,5.4742,5.4791,5.4799,5.5937,5.7691,5.3427,5.3115,5.5295,0.0,0.0,0.0,0.0,0.0,0.0,0.0,0.0,0.0,0.0,0.0,0.0,0.0,0.0,0.0,0.0,0.0,0.0,0.0,0.0,0.0,0.0,4.0418,4.1915,4.4353,4.3924,4.3534,4.3534,4.2715,4.1832,4.0959,4.092,4.0875,4.076,4.1559,4.2812,4.4571,4.922,5.206,5.3152,5.3972,5.4167,5.3635,4.8931,4.7177,4.7528,0.0,0.0,0.0,0.0,0.0,0.0,0.0,0.0,0.0,0.0,0.0,0.0,0.0,0.0,0.0,0.0,0.0,0.0,0.0,0.0,0.0,0.0,0.0,0.0,0.0,0.0,0.0,0.0,0.0,0.0,0.0,0.0,0.0,0.0,0.0,0.0,0.0,0.0,0.0,0.0,0.0,5.0713,5.0947,0.0,0.0,0.0,0.0,0.0,0.0,0.0,0.0,0.0,0.0,0.0,0.0,0.0,0.0,5.372,5.5221,5.6004,5.6076,5.7585,5.8325,5.8335,5.8325,5.8509,5.8782,5.812,0.0,5.7262,5.5879,0.0,0.0,0.0,0.0,0.0,0.0,0.0,0.0,0.0,0.0,0.0,0.0,0.0,0.0,0.0,0.0,0.0,0.0,0.0,0.0,0.0,4.3072,4.4845,4.7434,4.7223,4.6581,4.5724,4.4381,4.3082,4.1838,4.1766,4.1994,4.2494,4.4299,4.6794,5.002,5.3245,5.5026,5.5416,5.5797,5.5967,5.5826,5.3571,5.1706,5.0062,4.7177,0.0,0.0,0.0,0.0,0.0,0.0,0.0,0.0,0.0,0.0,0.0,0.0,0.0,0.0,0.0,0.0,0.0,0.0,0.0,0.0,0.0,0.0,0.0,0.0,0.0,0.0,0.0,0.0,0.0,0.0,0.0,0.0,0.0,0.0,0.0,0.0,0.0,0.0,0.0,4.9379,5.0803,5.1302,5.0706,4.988,0.0,0.0,0.0,0.0,0.0,0.0,0.0,0.0,0.0,5.5328,5.5847,5.6542,5.749,5.825,5.8877,5.9338,6.0107,6.0458,6.0468,6.0458,6.0458,6.0458,6.0458,6.0243,5.9717,5.7438,5.5372,5.356,0.0,0.0,0.0,0.0,0.0,5.1359,0.0,0.0,0.0,0.0,0.0,0.0,0.0,0.0,0.0,0.0,0.0,0.0,4.3936,4.5794,4.7777,5.0183,5.0056,4.935,4.8193,4.6756,4.5317,4.395,4.3513,4.3916,4.5222,4.7801,5.0848,5.4304,5.6001,5.684,5.684,5.7119,5.7216,5.7166,5.7166,5.5619,5.2902,5.0725,4.8301,4.5708,0.0,0.0,0.0,0.0,0.0,0.0,0.0,0.0,0.0,0.0,0.0,0.0,0.0,0.0,0.0,0.0,0.0,0.0,0.0,0.0,0.0,0.0,0.0,0.0,0.0,0.0,0.0,0.0,0.0,0.0,0.0,0.0,0.0,0.0,0.0,0.0,0.0,5.0575,5.1654,5.2308,5.257,5.2018,0.0,0.0,0.0,0.0,0.0,0.0,5.5163,5.5825,5.6671,5.7771,5.8433,5.9369,6.0621,6.064,6.108,6.1938,6.1938,6.2036,6.2231,6.2231,6.2231,6.2231,6.2231,6.2231,6.2016,5.9035,5.7535,5.7009,5.5704,5.4944,5.4671,5.5528,5.5431,5.5178,0.0,0.0,0.0,0.0,0.0,0.0,0.0,0.0,0.0,0.0,0.0,4.3821,4.5606,4.7901,5.0035,5.1838,5.1222,5.0703,5.0623,4.9943,4.914,4.8227,4.6792,4.715,4.9625,5.2233,5.4092,5.5143,5.6879,5.7732,5.7752,5.8578,5.8962,5.8962,5.8962,5.8403,5.7264,5.3916,5.2389,5.1804,4.6741,0.0,0.0,0.0,0.0,0.0,0.0,0.0,0.0,0.0,0.0,0.0,0.0,0.0,0.0,0.0,0.0,0.0,0.0,0.0,0.0,0.0,0.0,0.0,0.0,0.0,0.0,0.0,0.0,0.0,0.0,0.0,0.0,0.0,0.0,0.0,0.0,0.0,0.0,5.5003,5.575,0.0,0.0,0.0,0.0,5.4936,5.5085,5.6196,5.8613,5.8791,5.9581,6.1295,6.1393,6.1451,6.1529,6.1529,6.1977,6.2835,6.2835,6.3224,6.3965,6.3965,6.3965,6.3965,6.3965,6.3965,6.3848,6.2075,6.036,5.886,5.8782,5.7769,5.6464,5.7282,5.7555,5.7652,0.0,0.0,0.0,0.0,0.0,0.0,0.0,0.0,3.8736,4.0688,4.3314,4.6286,4.9644,5.1087,5.2493,5.4207,5.3988,5.333,5.2358,5.1528,5.0793,5.0149,4.9088,4.977,5.2448,5.4437,5.5915,5.6879,5.8058,5.8611,5.8584,5.8942,5.9072,5.9045,5.9072,5.8923,5.852,5.6738,5.5003,5.3208,5.0212,4.7008,0.0,0.0,0.0,0.0,0.0,0.0,0.0,0.0,0.0,0.0,0.0,0.0,0.0,0.0,0.0,0.0,0.0,0.0,0.0,0.0,0.0,0.0,0.0,0.0,0.0,0.0,0.0,0.0,0.0,0.0,0.0,0.0,0.0,0.0,0.0,0.0,0.0,5.6035,5.6808,0.0,0.0,5.6542,5.7315,5.7627,5.8683,5.9726,6.0623,6.0672,6.0964,6.1588,6.2132,6.2433,6.2433,6.2996,6.3433,6.3737,6.3737,6.3893,6.4166,6.4149,6.4168,6.4168,6.413,6.4101,6.4043,6.3458,6.2542,6.1451,6.0886,6.0302,5.9815,6.0107,6.0204,6.0243,0.0,0.0,0.0,0.0,0.0,0.0,0.0,0.0,3.9825,4.2307,4.5257,4.8515,5.2167,5.3359,5.4319,5.5435,5.5446,5.4956,5.3955,5.3453,5.2992,5.2558,5.2182,5.2709,5.43,5.5965,5.7279,5.8234,5.9098,5.9474,5.9459,5.9798,5.9927,5.988,5.9907,5.9935,5.9896,5.9006,5.7492,5.5496,5.3767,5.1187,4.8028,0.0,0.0,0.0,0.0,0.0,0.0,0.0,0.0,0.0,0.0,0.0,0.0,0.0,0.0,0.0,0.0,0.0,0.0,0.0,0.0,0.0,0.0,0.0,0.0,0.0,0.0,0.0,0.0,0.0,0.0,0.0,0.0,0.0,0.0,0.0,5.6944,5.6944,5.8203,5.8613,5.7459,5.8866,5.9871,5.9871,6.0954,6.1607,6.1607,6.1889,6.2035,6.2035,6.2871,6.3335,6.3335,6.3916,6.4345,6.4638,6.4638,6.4794,6.5086,6.5071,6.509,6.5063,6.4997,6.4968,6.4949,6.4666,6.4043,6.3244,6.2679,6.2289,6.2036,6.2036,6.1841,6.1607,0.0,0.0,0.0,0.0,0.0,0.0,0.0,3.8155,4.0707,4.3111,4.6989,5.0465,5.2913,5.4494,5.5403,5.5403,5.5403,5.5422,5.5441,5.5708,5.5807,5.5628,5.6044,5.5959,5.5295,5.6985,5.8292,5.9137,5.9954,6.0336,6.0356,6.1188,6.1588,6.1588,6.1607,6.1607,6.1529,6.0698,5.9891,5.902,5.7271,5.6043,5.4768,0.0,0.0,0.0,0.0,0.0,0.0,0.0,0.0,0.0,0.0,0.0,0.0,0.0,0.0,0.0,0.0,0.0,0.0,0.0,0.0,0.0,0.0,0.0,0.0,0.0,0.0,0.0,0.0,0.0,0.0,0.0,0.0,0.0,5.6667,5.7338,5.7911,5.7911,6.0097,6.0934,5.9256,6.0603,6.1607,6.1607,6.1607,6.1607,6.1646,6.2433,6.291,6.2929,6.3792,6.4228,6.4235,6.4274,6.4703,6.5535,6.5535,6.5984,6.6803,6.6803,6.6803,6.6803,6.672,6.6711,6.6633,6.5787,6.4939,6.4179,6.4082,6.3575,6.2854,6.2893,6.2367,6.1646,0.0,0.0,0.0,0.0,0.0,0.0,0.0,3.9065,4.205,4.5664,4.8648,5.1582,5.4587,5.5207,5.5403,5.5403,5.5403,5.5677,5.6301,5.583,5.5647,5.588,5.7346,5.7829,5.7108,5.8647,5.966,6.0035,6.0851,6.1241,6.1256,6.1483,6.16,6.16,6.1603,6.1595,6.1576,6.1353,6.1108,6.0761,5.9079,5.7473,5.5938,0.0,0.0,0.0,0.0,0.0,0.0,0.0,0.0,0.0,0.0,0.0,0.0,0.0,0.0,0.0,0.0,0.0,0.0,0.0,0.0,0.0,0.0,0.0,0.0,0.0,0.0,0.0,0.0,0.0,0.0,0.0,0.0,5.7716,5.7482,5.9248,6.0564,6.0564,6.1159,6.1412,6.0934,6.1315,6.1607,6.1607,6.1607,6.188,6.2503,6.2766,6.3185,6.3826,6.4689,6.5133,6.5146,6.5764,6.6218,6.6433,6.6433,6.657,6.6804,6.6792,6.6798,6.6803,6.672,6.6702,6.6683,6.6439,6.6205,6.5796,6.3945,6.2718,6.2036,6.2679,6.2757,6.2542,0.0,0.0,0.0,0.0,0.0,0.0,0.0,3.937,4.246,4.6552,4.9196,5.1934,5.5167,5.5465,5.5403,5.5403,5.5708,5.5963,5.6135,5.5753,5.5711,5.6107,5.7534,5.8325,5.8343,5.9581,6.0438,6.0893,6.1366,6.1607,6.1595,6.1595,6.1595,6.1595,6.1592,6.1603,6.1603,6.1597,6.1597,6.1509,6.0539,5.9545,5.8504,5.7283,5.6184,5.5002,5.2937,5.2508,5.2664,5.0969,0.0,0.0,0.0,0.0,0.0,0.0,0.0,0.0,0.0,0.0,0.0,0.0,0.0,0.0,0.0,0.0,0.0,0.0,0.0,0.0,0.0,0.0,0.0,0.0,5.8036,5.9384,5.9384,6.0662,6.1607,6.1607,6.1607,6.1607,6.1607,6.1607,6.1744,6.2114,6.2133,6.2503,6.3361,6.3779,6.4218,6.4723,6.5586,6.6049,6.6044,6.6558,6.6798,6.6809,6.6809,6.679,6.6795,6.6809,6.6792,0.0,6.6756,6.6731,6.6702,6.6692,6.6478,0.0,0.0,0.0,0.0,0.0,6.2893,6.2854,0.0,0.0,0.0,0.0,0.0,0.0,0.0,3.9459,4.2498,4.6515,4.912,5.1834,5.5046,5.5403,5.5479,5.567,5.632,5.6441,5.5752,5.5818,5.6051,5.6411,5.722,5.8179,5.9209,6.0093,6.0893,6.1621,6.1621,6.1602,6.1602,6.1602,6.1602,6.1602,6.1619,6.1612,6.1603,6.1606,6.1588,6.1597,6.1595,6.1603,6.1448,5.9942,5.9342,5.8996,5.6736,5.5976,5.5821,5.4164,0.0,0.0,0.0,0.0,0.0,0.0,0.0,0.0,0.0,0.0,0.0,0.0,0.0,0.0,0.0,0.0,0.0,0.0,0.0,0.0,0.0,0.0,0.0,0.0,5.9999,6.1607,6.1607,6.1607,6.1607,6.1607,6.1607,6.1646,6.1744,6.1744,6.2094,6.2971,6.3049,6.34,6.4199,0.0,0.0,0.0,0.0,6.6783,6.6803,6.6803,6.6798,6.6792,6.6792,6.6798,6.679,6.679,6.6804,6.6785,6.6791,6.6748,6.6702,6.6702,6.6244,6.5601,6.6186,6.5991,6.5231,6.3731,6.3185,0.0,0.0,0.0,0.0,0.0,0.0,0.0,0.0,4.0354,4.3391,4.7418,4.9504,5.1834,5.5046,5.5403,5.5938,5.7294,5.7562,5.7634,5.7588,5.7255,5.711,5.7174,5.8208,5.9186,6.0052,6.0925,6.1465,6.1673,6.1673,6.1679,6.1671,6.1671,6.1671,6.1671,6.1679,6.1687,6.1687,6.1612,6.1595,6.1595,6.1603,6.1595,6.1558,6.1253,6.1108,6.1023,6.0536,6.0808,6.1257,6.0204,5.8802,5.7301,5.6093,5.3716,0.0,0.0,0.0,0.0,0.0,0.0,0.0,0.0,0.0,0.0,0.0,0.0,0.0,0.0,0.0,0.0,0.0,0.0,0.0,5.8593,6.035,6.1607,6.1607,6.1607,6.1607,6.1607,6.1607,6.188,6.2581,6.2659,6.2991,6.3809,6.3867,6.4238,6.5095,6.5309,0.0,6.6458,6.6633,6.6756,6.6805,6.6805,6.6811,6.6792,0.0,0.0,6.6798,6.6798,6.6764,6.672,6.672,6.6702,6.6702,6.6692,6.6595,6.6342,6.5095,6.4939,6.5368,6.5036,6.4919,6.489,0.0,0.0,0.0,0.0,0.0,0.0,0.0,4.0528,4.34,4.7031,4.9279,5.1483,5.3886,5.4555,5.4803,5.4803,5.5192,5.5834,5.675,5.677,5.6941,5.7381,5.8501,5.9482,6.0332,6.1192,6.1673,6.171,6.171,6.1691,6.1701,6.1701,6.1701,6.1701,6.1705,6.1699,6.1699,6.1639,6.1603,6.1603,6.1606,6.1597,6.1588,6.1595,6.1595,6.1606,6.1588,6.188,6.2172,6.1744,6.1023,6.0068,5.8763,5.7184,5.5119,0.0,0.0,0.0,0.0,0.0,0.0,0.0,0.0,0.0,0.0,0.0,0.0,0.0,0.0,5.4437,5.6172,0.0,5.878,6.0086,6.1032,6.1607,6.1607,6.1607,6.1607,6.1607,6.1997,6.2426,6.2854,6.3263,6.3848,6.4686,6.4744,6.5134,6.6011,6.605,6.6244,6.6693,6.6693,6.6722,6.6748,6.6748,6.6756,6.6744,6.6744,6.6764,6.6803,6.6803,6.6748,6.6692,6.6692,6.6693,6.6712,6.6712,6.6712,6.6615,6.5738,6.5679,6.6011,6.5562,6.5396,6.5347,0.0,0.0,0.0,0.0,0.0,0.0,0.0,4.0546,4.3085,4.6157,4.8433,5.0459,5.2254,5.3054,5.313,5.2292,5.2989,5.4166,5.5681,5.5975,5.6495,5.7358,5.8491,5.9515,6.0373,6.125,6.171,6.1701,6.1701,6.1701,6.1701,6.1701,6.1701,6.1701,6.171,6.1705,6.1699,6.1627,6.1612,6.1603,6.1597,6.1588,6.1597,6.1586,6.1595,6.1595,6.1597,6.1607,6.1607,6.1607,6.1607,6.1354,5.9951,5.962,5.8841,5.4164,5.3677,0.0,0.0,0.0,0.0,0.0,0.0,0.0,0.0,0.0,5.2324,5.4865,5.595,5.6866,5.8281,5.9081,5.9969,6.1373,6.1607,6.1607,6.1607,6.1744,6.1841,6.1841,6.2465,6.303,6.3341,6.3965,6.4705,6.5601,6.566,6.5972,6.6653,6.6712,6.6712,6.6712,6.6712,6.6692,6.6702,6.6702,6.6712,6.6692,6.6692,6.6739,6.6767,6.6767,6.6739,6.6702,6.6702,6.6693,6.6712,6.6712,6.6712,6.6712,6.6712,6.6702,6.6585,6.5727,6.5406,6.5297,0.0,0.0,0.0,0.0,0.0,0.0,0.0,0.0,4.2825,4.5401,4.6606,4.8125,5.0498,5.0862,5.1762,5.3832,5.4799,5.5727,5.6668,5.6341,5.649,5.7363,5.849,5.9513,6.0372,6.1242,6.1696,6.1701,6.1701,6.1701,6.1701,6.1701,6.1701,6.1701,6.1696,6.1696,6.1696,6.1628,6.1595,6.1607,6.1606,6.1597,6.1595,6.1597,6.1588,6.1588,6.1607,6.1607,6.1607,6.1607,6.1607,6.1568,6.1373,6.1841,6.188,5.8996,5.773,5.6511,5.2972,5.1726,5.1889,5.3962,5.3891,5.4558,0.0,0.0,5.7666,6.0213,6.0826,6.0932,6.1149,6.1237,6.1373,6.1568,6.1607,6.1607,6.1607,6.227,6.2757,6.2757,6.2835,6.3478,6.4978,6.5192,6.5621,6.6498,6.6556,6.6595,6.6692,6.6712,6.6712,6.6712,6.6712,6.6702,6.6702,6.6702,6.6711,6.6692,6.6692,6.6702,6.6722,6.6722,6.6722,6.6692,6.6692,6.6692,6.6712,6.6712,6.6712,6.6712,6.6712,6.6709,6.6589,6.573,6.5399,6.5399,0.0,0.0,0.0,0.0,0.0,0.0,0.0,0.0,0.0,4.3857,4.5611,4.7106,4.812,4.8214,4.9037,5.1105,5.211,5.321,5.4553,5.5545,5.6498,5.7363,5.8488,5.9505,6.0372,6.1256,6.1691,6.1701,6.1691,6.1691,6.1701,6.1701,6.1701,6.1701,6.1701,6.1701,6.1696,6.1628,6.1595,6.1595,6.1603,6.1595,6.1603,6.1612,6.1603,6.1606,6.1597,6.1607,0.0,6.1607,6.1607,6.1607,6.1607,6.114,6.0419,5.9328,5.8373,5.7613,5.7193,5.609,0.0,0.0,5.7139,5.7424,5.9599,5.9284,5.9135,6.1188,6.1606,6.1595,6.1597,6.1607,6.1607,0.0,6.1607,6.1607,6.1607,6.2348,6.3069,6.3536,6.4043,6.4627,6.5329,6.5855,6.6303,6.6673,6.6712,6.6712,6.6712,6.6712,6.6712,6.6712,6.6712,6.6692,6.6702,6.6702,6.6702,6.6702,6.7209,6.7462,6.7472,6.7978,6.7939,6.7472,6.7472,6.718,6.6712,6.6712,6.6712,6.6712,6.6712,6.6689,6.658,6.5716,6.5397,6.533,0.0,0.0,0.0,0.0,0.0,0.0,0.0,0.0,0.0,0.0,4.4518,4.5802,4.6222,4.632,4.7011,4.8635,4.9871,5.1275,5.2919,5.4895,5.6306,5.697,5.8072,5.9098,5.9963,6.0879,6.1456,6.1701,6.171,6.171,6.1701,6.1701,6.1701,6.1701,6.1701,6.1701,6.1696,6.1654,6.1621,6.1621,6.16,6.1592,6.1592,6.16,6.1307,6.0882,6.0885,6.0876,6.0769,6.0068,6.0146,6.0438,5.9971,5.9445,5.8957,5.8704,5.7866,5.7282,5.8557,0.0,0.0,5.873,5.9354,5.9724,5.9724,5.974,6.0137,6.1353,6.1595,6.1595,6.1597,6.1607,6.1607,6.1607,6.1607,6.1685,6.1919,6.2698,6.3536,6.4354,6.5231,6.5757,6.5757,6.6342,6.6712,6.6712,6.6712,6.6712,6.6712,6.6712,6.6712,6.6712,6.6712,6.6829,6.7063,6.7063,6.718,6.7413,6.8056,6.8368,6.8388,6.9011,6.8953,6.8368,6.8368,6.7998,6.7413,6.7413,6.7277,6.7063,6.7063,6.69,6.6579,6.572,6.539,6.5273,0.0,0.0,0.0,0.0,0.0,0.0,0.0,0.0,0.0,0.0,0.0,0.0,0.0,4.5603,4.635,4.7894,4.9663,5.1376,5.3006,5.4805,5.5861,5.5935,5.7033,5.805,5.8927,5.9937,6.0842,6.1701,6.1701,6.1701,6.1701,6.1701,6.1701,6.1701,6.1701,6.1701,6.1696,6.1705,6.1699,6.1699,6.1621,6.1595,6.1595,6.1592,6.0551,5.9089,5.9089,5.9072,5.8704,5.623,5.6464,5.7535,5.5918,5.7048,5.8821,5.7983,5.6561,5.5295,5.5338,0.0,5.694,5.8593,6.0281,6.1519,6.1517,6.1526,6.1545,6.1584,6.1603,6.1595,6.1597,6.1607,6.1607,6.1607,6.1607,6.1899,6.2737,6.3556,6.4393,6.527,6.6127,6.6653,0.0,6.6673,6.6712,6.6712,6.6712,6.6712,6.6712,6.6712,6.6712,6.6712,6.6712,6.7121,6.7959,6.7959,6.8388,6.9225,6.9245,6.9264,6.9264,6.9284,6.9284,6.9264,6.9264,6.9245,6.9225,6.9225,6.8719,6.7959,6.7959,6.7442,6.6582,6.5722,6.5404,6.5287,0.0,0.0,0.0,0.0,0.0,0.0,0.0,0.0,0.0,0.0,0.0,0.0,0.0,0.0,0.0,0.0,4.8948,5.0681,5.2387,5.4165,5.5433,5.6142,5.7079,5.8055,5.902,5.9929,6.0832,6.1701,6.1691,6.1691,6.1701,6.1701,6.1701,6.1701,6.1701,6.1701,6.1696,6.1705,6.1699,6.1699,6.1673,6.2005,6.259,6.3162,6.194,5.9774,0.0,5.7821,5.7213,5.6344,5.6441,5.6695,5.5564,5.4987,5.457,5.3705,5.4691,5.6171,5.6706,5.7505,5.8568,6.0291,6.1168,6.1597,6.1595,6.1603,6.1603,6.1603,6.1603,6.1595,6.1597,6.1607,6.1783,6.2367,6.2465,6.2757,6.3575,6.4432,6.5075,6.5368,6.6166,0.0,0.0,0.0,0.0,6.6712,6.6712,6.6712,6.6712,6.6712,6.6712,6.6712,6.7257,6.7706,6.7998,6.8563,6.9011,6.9303,6.9888,7.0433,7.0959,7.0959,7.0667,7.0161,7.0161,6.9829,6.9303,6.9303,6.9128,6.8855,6.8855,6.834,6.7539,6.7226,6.6758,6.6057,0.0,0.0,0.0,0.0,0.0,0.0,0.0,0.0,0.0,0.0,0.0,0.0,0.0,0.0,0.0,0.0,0.0,4.993,5.1625,5.3063,5.4549,5.6158,5.6242,5.6967,5.8539,5.8577,5.9446,6.1232,6.091,6.1242,6.2169,6.1857,6.1701,6.1701,6.1701,6.1701,6.172,6.2022,6.2153,6.2134,6.1822,6.1841,6.2061,6.2003,6.0353,0.0,5.6459,5.519,5.4095,5.3498,5.3674,5.4025,5.3175,5.298,5.2953,5.2387,5.4258,5.6734,5.7864,5.8566,5.9415,6.1159,6.1607,6.1597,6.1595,6.1603,6.1603,6.1603,6.135,6.1225,6.1539,6.1607,6.188,6.2757,6.34,6.3965,6.4491,6.5309,6.5855,6.5855,6.6361,6.6712,0.0,0.0,0.0,6.6712,6.6712,6.6712,6.6712,6.6712,6.6848,6.716,6.7706,6.831,6.8914,6.9479,6.9907,7.02,7.0765,7.1291,7.1797,7.1797,7.1524,7.1037,7.1037,7.0706,7.018,7.018,7.0024,6.9762,6.9761,6.904,6.8008,6.8005,6.7453,6.6498,0.0,0.0,0.0,0.0,0.0,0.0,0.0,0.0,0.0,0.0,0.0,0.0,0.0,0.0,0.0,0.0,0.0,0.0,5.069,5.1532,5.317,5.5807,5.4505,5.4928,5.7488,5.6101,5.6996,6.0334,5.9514,6.0373,6.2774,6.1954,6.1583,6.1622,6.1622,6.1661,6.1759,6.254,6.2833,6.2716,6.1857,6.1017,6.01,5.8468,5.6231,5.3871,5.3031,5.1554,4.9761,4.8164,4.8748,5.0014,4.934,5.1347,5.3978,5.3962,5.5236,5.6991,5.8562,5.9069,5.9529,6.1188,6.1607,6.1597,6.1595,6.1603,6.1564,6.1487,6.0843,6.0523,0.0,0.0,6.188,6.2757,6.4315,6.5426,6.5465,6.6186,6.6712,0.0,0.0,0.0,0.0,0.0,0.0,6.6712,0.0,6.6712,6.6712,6.6751,6.716,6.7978,6.8095,6.8933,7.057,7.0628,7.1037,7.1797,7.1797,7.1797,7.1797,7.1797,7.1797,7.1797,7.1797,7.1797,7.1797,7.1797,7.133,7.0591,7.0597,6.9537,6.8007,6.8043,6.7512,6.6653,0.0,0.0,0.0,0.0,0.0,0.0,0.0,0.0,0.0,0.0,0.0,0.0,0.0,0.0,0.0,0.0,0.0,0.0,4.9274,5.004,5.1361,5.3389,5.302,5.4022,5.6719,5.6411,5.726,5.9436,5.9202,5.9436,6.01,5.9866,6.0119,6.0725,6.0725,6.1095,6.1681,6.1232,6.0686,6.0022,5.9143,5.8656,5.8499,5.8699,5.7141,5.4846,5.4612,5.2616,5.0017,4.9588,5.0569,5.2188,5.3234,5.4164,5.4879,5.4866,5.6556,5.8526,5.8901,5.9946,6.103,6.15,6.1607,6.1597,6.1595,6.1606,6.1236,5.9927,5.9988,5.998,0.0,0.0,0.0,6.2757,6.4315,0.0,6.6283,6.6556,0.0,6.6712,0.0,6.6712,6.6712,6.6712,0.0,0.0,6.6712,6.6712,6.6712,6.7316,6.7764,6.7998,6.9264,7.0141,7.0589,7.1193,7.1602,7.1797,7.1797,7.1797,7.1797,7.1797,7.1797,7.1797,7.1797,7.1797,7.1797,7.1797,7.1341,7.0597,7.059,6.9525,6.8086,6.8737,6.841,6.7725,0.0,0.0,0.0,0.0,0.0,0.0,0.0,0.0,0.0,0.0,0.0,0.0,0.0,0.0,0.0,0.0,0.0,0.0,0.0,4.8611,4.9798,5.1939,5.1253,5.1893,5.4215,5.3894,5.4718,5.686,5.6489,5.7055,5.8519,5.7777,5.7894,5.8734,5.8734,5.9007,5.9456,5.9319,5.8987,0.0,0.0,5.7035,5.6665,5.6397,5.4903,5.2908,5.2532,5.1622,5.0803,5.1954,5.2994,5.3955,5.4903,5.5736,5.6413,5.679,5.8214,5.9755,6.0093,6.0886,6.1592,6.1606,6.1597,6.1393,6.0631,6.074,6.0428,5.8332,5.8577,0.0,5.7418,0.0,0.0,0.0,0.0,0.0,6.6692,6.7024,6.7141,0.0,6.6712,0.0,6.6712,6.6712,6.6712,0.0,6.6712,6.6712,6.6712,6.753,6.8173,6.8563,6.9888,7.0765,7.1115,7.1563,7.1797,7.1797,7.1797,7.1797,7.1797,7.1797,7.1797,7.1797,0.0,7.1797,7.1797,7.1797,7.133,7.0601,7.0601,6.9531,6.8069,6.8541,6.8182,6.7491,0.0,0.0,0.0,0.0,0.0,0.0,0.0,0.0,0.0,0.0,0.0,0.0,0.0,0.0,0.0,0.0,0.0,0.0,0.0,0.0,4.8378,5.0696,4.9406,4.9445,5.1199,5.0489,5.1264,5.3659,5.2897,5.4049,5.6918,5.5454,5.5259,5.6098,5.6196,5.6313,5.6469,5.7172,5.7406,5.7211,5.6274,5.5396,5.4439,0.0,5.1318,5.0025,4.9379,5.0225,5.2045,5.4538,5.5533,5.575,5.599,5.7102,5.8468,5.9221,5.9987,6.0748,6.1484,6.1667,6.1615,6.1612,6.1606,6.1159,5.9542,5.9659,5.9395,5.6842,0.0,5.7115,5.6297,5.8938,6.1334,6.1568,0.0,6.7433,6.679,6.7355,6.755,6.679,6.6712,6.6712,6.6712,6.6712,6.6712,6.6712,6.6712,6.6751,6.6868,6.7706,6.8621,6.9596,7.0375,7.1096,7.1797,7.1797,7.1797,7.1797,7.1797,7.1797,7.1797,7.1797,7.1797,7.1797,0.0,0.0,7.1797,7.1797,7.1261,7.0436,7.0427,6.9369,6.7838,6.7959,6.7511,6.6897,0.0,0.0,0.0,0.0,0.0,0.0,0.0,0.0,0.0,0.0,4.791,4.6196,0.0,0.0,0.0,0.0,0.0,0.0,0.0,0.0,0.0,4.8105,4.7878,4.8535,5.0282,5.0191,5.0669,5.1843,5.1707,5.1921,5.2507,5.2214,5.2546,5.3405,5.4127,5.4849,5.5532,5.5669,5.5318,5.4517,5.2936,5.1785,5.0883,4.9879,0.0,0.0,5.0747,5.2055,5.3816,5.5719,5.728,5.8674,6.0129,6.0778,6.1052,6.1208,6.1364,6.152,6.1666,6.1699,6.1667,6.1612,6.1595,6.1342,6.0311,5.9629,0.0,0.0,5.5533,5.5377,5.45,5.7162,5.9912,6.1373,6.3984,6.605,0.0,0.0,6.6868,0.0,0.0,0.0,0.0,0.0,0.0,0.0,0.0,0.0,6.7745,6.8602,6.9771,7.131,7.1505,7.1661,7.1797,7.1797,7.1797,7.1797,7.1797,7.1797,7.1797,7.1797,7.1797,7.1797,0.0,0.0,7.1797,7.1797,7.0902,6.9528,6.953,6.8457,6.7014,6.7735,6.7891,6.79,0.0,0.0,0.0,0.0,0.0,0.0,0.0,4.8761,4.9687,5.2733,5.1823,5.019,4.8378,4.7404,4.6683,0.0,0.0,0.0,0.0,0.0,0.0,0.0,4.6819,4.7203,4.8047,4.8502,4.9162,0.0,0.0,4.9872,5.0692,4.9833,4.9872,5.0692,5.1102,5.1531,5.1921,5.1921,5.1687,5.1219,5.0379,5.0067,5.0044,0.0,0.0,0.0,5.0566,5.2143,5.4133,5.4962,5.7265,5.9998,6.1286,6.1701,6.1701,6.1701,6.1701,6.1696,6.1691,6.1705,6.1673,6.1627,6.1943,6.1576,5.8927,0.0,0.0,0.0,5.3884,5.4117,5.2792,5.572,0.0,5.9425,6.2465,6.5036,6.5894,6.642,0.0,6.6712,0.0,0.0,0.0,0.0,0.0,0.0,0.0,0.0,6.7978,6.9264,7.0531,7.1758,7.1797,7.1797,7.1797,7.1797,7.1797,7.1797,7.1797,7.1797,7.1797,7.1797,7.1797,7.1797,7.1797,0.0,7.1797,7.1797,7.0811,6.9297,6.9297,6.8222,6.6751,6.717,6.7344,6.7438,0.0,0.0,0.0,0.0,0.0,0.0,0.0,5.0629,5.1744,5.5302,5.5736,5.4554,5.1456,4.943,4.7813,0.0,0.0,0.0,0.0,0.0,0.0,0.0,0.0,0.0,0.0,0.0,0.0,0.0,0.0,0.0,0.0,0.0,0.0,0.0,0.0,4.8545,4.8545,4.872,4.8798,0.0,0.0,4.9208,0.0,0.0,0.0,0.0,0.0,5.1703,5.3489,5.3869,5.6235,5.9241,6.0486,6.1383,6.1935,6.1759,6.1837,6.1935,6.1759,6.1691,6.1738,6.1855,6.238,6.1876,5.7934,5.7922,0.0,5.2565,5.2526,5.2987,5.1804,5.4629,5.734,0.0,6.1276,6.4218,6.5251,6.6147,6.6712,0.0,6.6712,0.0,0.0,0.0,0.0,0.0,0.0,0.0,6.8543,7.0024,7.1154,7.1778,7.1797,7.1797,7.1797,7.1797,7.1797,7.1797,7.1797,7.1797,7.1797,7.1797,7.1797,7.1797,7.1797,0.0,0.0,7.1797,7.0811,6.9297,6.9296,6.8226,6.6692,6.672,6.6756,6.6791,0.0,0.0,0.0,0.0,0.0,0.0,0.0,5.1792,5.3798,5.8062,5.7944,5.6775,5.4924,5.2469,4.9995,0.0,0.0,0.0,0.0,0.0,0.0,0.0,0.0,0.0,0.0,0.0,0.0,0.0,0.0,0.0,0.0,0.0,0.0,0.0,0.0,0.0,0.0,4.8486,0.0,0.0,0.0,0.0,0.0,0.0,0.0,0.0,0.0,5.1433,5.1882,5.3463,5.4264,5.5001,5.7392,6.0324,6.2735,6.1935,0.0,0.0,6.1915,6.1696,6.1866,6.2597,6.2843,6.2165,5.9395,0.0,5.6886,5.3241,5.1986,5.1726,5.2363,5.4091,5.6191,0.0,0.0,6.3575,6.5173,6.6147,6.6712,6.6712,0.0,0.0,0.0,0.0,0.0,0.0,0.0,0.0,0.0,7.1213,7.1719,7.1797,7.1797,7.1797,7.1797,7.1797,7.1797,7.1797,7.1797,7.1797,7.1797,7.1797,7.1797,7.1797,0.0,0.0,0.0,7.1797,7.0811,6.9296,6.9294,6.8232,6.6711,6.6778,6.6792,6.6792,0.0,0.0,0.0,0.0,0.0,0.0,5.2016,5.2174,5.3885,5.9795,5.9815,5.9016,5.8334,5.5509,5.1982,4.7852,0.0,0.0,0.0,0.0,0.0,0.0,0.0,0.0,0.0,0.0,0.0,0.0,0.0,0.0,0.0,0.0,0.0,0.0,0.0,0.0,0.0,0.0,0.0,0.0,0.0,0.0,0.0,0.0,0.0,0.0,0.0,0.0,5.2214,5.237,5.3483,5.4869,5.5362,5.788,6.0695,6.0871,6.154,6.2149,6.1798,6.2071,6.2554,6.2883,6.2928,6.2212,5.9596,0.0,5.6179,5.3215,5.1947,5.1616,5.2454,5.3167,5.4632,5.7711,5.9522,6.114,6.2874,6.4725,6.5718,6.5192,0.0,0.0,0.0,0.0,0.0,0.0,0.0,0.0,0.0,7.1622,7.1797,7.1797,7.1797,7.1797,7.1797,7.1797,7.1797,7.1797,7.1797,7.1797,7.1797,7.1797,7.1797,7.1797,0.0,0.0,0.0,7.128,7.0392,6.9256,6.873,6.7809,6.6752,6.6785,6.6798,6.6809,0.0,0.0,0.0,0.0,0.0,4.763,5.2281,5.2464,5.4087,5.9717,6.0146,5.9912,5.9912,5.6639,5.3073,4.9683,4.7676,0.0,0.0,0.0,0.0,0.0,0.0,0.0,0.0,0.0,0.0,5.0452,0.0,0.0,0.0,0.0,0.0,0.0,0.0,0.0,0.0,0.0,0.0,0.0,0.0,0.0,0.0,0.0,0.0,0.0,0.0,0.0,0.0,0.0,0.0,5.4088,5.3723,5.5455,5.7913,5.9533,6.0832,6.1696,6.1696,6.2345,6.3062,6.3299,6.3123,6.2212,5.9596,0.0,5.5665,5.2792,5.1765,5.1531,5.211,5.2641,5.3853,5.6522,5.81,5.9698,6.1705,6.3731,6.4978,0.0,0.0,0.0,0.0,0.0,0.0,0.0,0.0,0.0,0.0,7.1797,7.1797,7.1797,7.1797,7.1797,7.1797,7.1797,7.1797,7.1797,7.1797,7.1797,7.1797,7.1797,7.1797,7.1797,0.0,0.0,0.0,7.1202,7.0309,6.9232,6.8613,6.7738,6.6792,6.6798,6.6809,6.6795,0.0,0.0,0.0,0.0,0.0,0.0,5.0794,5.2781,5.4807,5.7399,5.847,5.9016,5.9016,5.5197,5.2957,5.3755,4.9937,0.0,0.0,0.0,0.0,0.0,0.0,0.0,0.0,0.0,5.0412,5.1291,5.2129,5.2168,0.0,0.0,0.0,0.0,0.0,0.0,0.0,0.0,0.0,0.0,0.0,0.0,0.0,0.0,0.0,0.0,0.0,0.0,0.0,0.0,0.0,0.0,0.0,5.3328,5.4718,5.8114,6.0339,6.1705,6.1696,6.2345,6.3199,6.3982,6.3545,6.2231,5.959,5.7652,5.542,5.2012,5.1316,5.1308,5.131,5.2719,5.4184,5.508,5.736,5.9912,6.2523,6.3595,6.4744,0.0,0.0,0.0,0.0,0.0,0.0,0.0,0.0,0.0,0.0,7.1797,7.1797,7.1797,7.1797,7.1797,7.1797,7.1797,7.1797,7.1797,7.1797,7.1797,7.1797,7.1797,7.1797,0.0,0.0,0.0,0.0,7.179,7.0812,6.9303,6.9292,6.8262,6.6792,6.679,6.6795,6.6795,0.0,0.0,0.0,0.0,0.0,0.0,0.0,5.0053,5.1534,5.4691,5.4827,5.5314,5.7107,5.395,5.2294,5.3775,5.0521,0.0,0.0,0.0,0.0,0.0,0.0,0.0,0.0,0.0,5.2197,5.3081,5.3949,5.4261,5.3994,5.3431,5.2718,0.0,0.0,0.0,0.0,0.0,0.0,0.0,0.0,0.0,0.0,0.0,0.0,0.0,0.0,0.0,0.0,0.0,0.0,0.0,0.0,0.0,0.0,5.5054,5.7629,5.9931,5.9911,6.0971,6.196,6.168,6.0905,5.9876,5.8496,5.6371,5.4227,5.2536,5.1705,5.1479,5.2068,5.2138,5.3366,5.7184,5.7964,5.923,0.0,0.0,0.0,0.0,0.0,0.0,0.0,0.0,0.0,0.0,0.0,0.0,0.0,7.1797,7.1797,7.1797,7.1797,7.1797,7.1797,7.1797,7.1797,7.1797,7.1797,7.1797,7.1797,7.1797,0.0,0.0,0.0,0.0,0.0,7.1146,7.0606,7.0004,6.8859,6.8086,6.7551,6.7004,6.6795,6.6795,0.0,0.0,0.0,0.0,0.0,0.0,0.0,4.8592,4.9664,5.2119,5.1963,5.2606,5.5236,5.2703,5.1632,5.3716,5.1359,0.0,0.0,0.0,0.0,0.0,0.0,0.0,5.13,5.1826,5.2859,5.4398,5.5587,5.6186,5.6173,5.6333,5.5255,5.3132,5.2058,0.0,0.0,0.0,0.0,0.0,0.0,0.0,5.0945,0.0,0.0,0.0,0.0,0.0,0.0,0.0,0.0,0.0,0.0,0.0,0.0,0.0,5.4704,5.6939,5.826,5.984,6.101,6.0496,5.9455,5.8328,5.7502,5.5299,5.3167,5.2294,5.1678,5.1471,5.2002,5.1924,5.2957,5.6503,5.6892,0.0,0.0,0.0,0.0,0.0,0.0,0.0,0.0,0.0,0.0,0.0,0.0,0.0,0.0,0.0,7.1797,7.1797,7.1797,7.1797,7.1797,7.1797,7.1797,7.1797,7.1797,7.1797,7.1797,7.1797,0.0,0.0,0.0,0.0,0.0,7.1174,7.0766,7.0328,6.8984,6.826,6.789,6.7106,6.6795,6.6795,0.0,0.0,0.0,0.0,0.0,0.0,0.0,4.8144,4.8982,4.9722,4.982,5.0755,5.319,5.1339,5.0891,5.3327,0.0,0.0,0.0,0.0,0.0,0.0,0.0,0.0,5.13,5.1417,5.2742,5.5295,5.7042,5.7914,5.8026,5.9586,5.808,5.4088,5.4029,5.3034,0.0,0.0,0.0,0.0,0.0,5.0926,0.0,0.0,0.0,0.0,0.0,0.0,0.0,0.0,0.0,0.0,0.0,0.0,0.0,0.0,0.0,0.0,0.0,5.8669,6.0028,5.9946,5.8718,5.7307,5.6492,5.4398,0.0,5.1476,5.13,5.1339,5.1456,5.206,5.2898,5.4067,5.4944,0.0,0.0,0.0,0.0,0.0,0.0,0.0,0.0,0.0,0.0,0.0,0.0,0.0,0.0,0.0,7.1797,7.1797,7.1797,7.1797,7.1797,7.1797,7.1797,7.1797,7.1797,7.1797,7.1797,7.1797,0.0,0.0,0.0,0.0,0.0,7.1699,7.1232,7.0403,6.9529,6.875,6.7988,6.7129,6.6795,6.6795,0.0,0.0,0.0,0.0,0.0,0.0,0.0,0.0,0.0,0.0,4.8086,4.8319,4.8943,4.904,4.9333,0.0,0.0,0.0,0.0,0.0,0.0,0.0,0.0,0.0,5.13,5.2606,5.4242,5.6191,5.7946,5.9131,5.9781,5.9539,5.7831,5.4966,5.4303,5.3034,0.0,0.0,0.0,0.0,5.1316,5.1277,0.0,0.0,0.0,0.0,5.0633,5.0828,0.0,0.0,0.0,0.0,0.0,0.0,0.0,0.0,5.0979,5.1787,5.2621,0.0,5.6422,5.6394,5.5595,5.4757,0.0,5.3522,5.2353,5.1476,0.0,0.0,0.0,5.2372,5.2976,0.0,0.0,0.0,0.0,0.0,0.0,0.0,0.0,0.0,0.0,0.0,0.0,0.0,0.0,0.0,0.0,0.0,7.1797,7.1797,7.1797,7.1797,7.1797,7.1797,7.1797,7.1797,7.1797,7.1797,7.1797,7.1794,0.0,0.0,0.0,0.0,7.1699,7.1699,7.1544,7.117,6.974,6.9079,6.875,6.7314,6.6795,6.6795,0.0,0.0,0.0,0.0,0.0,0.0,0.0,0.0,0.0,0.0,0.0,4.6897,4.6897,4.8047,0.0,0.0,0.0,0.0,0.0,0.0,0.0,0.0,0.0,5.13,5.13,5.2625,5.4535,5.7048,5.8831,6.0327,6.1556,6.1509,5.9495,5.5806,5.3737,5.2273,0.0,0.0,0.0,0.0,5.1238,0.0,0.0,0.0,0.0,0.0,5.0418,5.0653,0.0,5.278,5.2663,5.2136,0.0,0.0,0.0,0.0,4.9816,5.0139,5.0151,5.2625,5.5197,5.5197,5.4543,5.39,5.3892,5.2933,5.1908,5.1394,0.0,0.0,0.0,0.0,0.0,0.0,0.0,0.0,0.0,0.0,0.0,0.0,0.0,0.0,0.0,0.0,0.0,0.0,0.0,0.0,0.0,0.0,7.1797,7.1797,7.1797,7.1797,7.1797,7.1797,7.1797,7.1797,7.1806,7.1794,7.1794,7.1758,0.0,0.0,0.0,0.0,7.1649,7.1649,7.1614,7.1494,7.023,6.974,6.9568,6.7949,6.7353,6.7292,0.0,0.0,0.0,0.0,0.0,0.0,0.0,0.0,0.0,0.0,0.0,0.0,0.0,0.0,0.0,0.0,0.0,0.0,0.0,0.0,0.0,0.0,5.13,5.1417,5.169,5.243,5.4418,5.7719,5.963,6.1387,6.2948,6.3876,6.1544,5.6469,5.3229,5.1648,0.0,0.0,5.0965,5.036,5.1102,0.0,0.0,0.0,0.0,0.0,0.0,0.0,0.0,5.3756,5.36,5.2741,5.4088,0.0,0.0,0.0,0.0,0.0,4.9437,5.2333,5.5139,5.4866,5.4258,5.3701,5.3697,5.2492,5.1362,5.131,0.0,0.0,0.0,5.4484,0.0,0.0,0.0,0.0,0.0,0.0,0.0,0.0,0.0,0.0,0.0,0.0,0.0,0.0,0.0,0.0,0.0,0.0,0.0,7.1797,7.1797,7.1797,7.1797,7.1797,7.1797,7.1797,7.1802,7.1777,7.1777,7.1718,7.169,0.0,0.0,0.0,7.1598,7.1598,7.1598,7.1517,7.0706,7.0403,7.021,6.858,6.8086,6.8105,0.0,0.0,0.0,0.0,0.0,0.0,0.0,0.0,0.0,0.0,0.0,0.0,0.0,0.0,0.0,0.0,0.0,0.0,0.0,0.0,0.0,5.13,5.13,5.1982,5.3463,5.3638,5.503,5.7783,6.0223,6.196,6.3006,6.3882,6.1544,5.6508,5.4498,5.278,5.1394,5.1394,5.1316,5.1219,5.1355,0.0,0.0,0.0,0.0,0.0,0.0,0.0,0.0,5.077,5.1219,5.1511,5.1043,0.0,0.0,0.0,0.0,0.0,5.2333,5.4142,5.4851,5.3366,5.2898,5.2801,5.2801,5.2021,5.1308,5.1308,0.0,0.0,0.0,5.6589,0.0,0.0,0.0,0.0,0.0,0.0,0.0,0.0,0.0,0.0,0.0,0.0,0.0,0.0,0.0,0.0,0.0,0.0,0.0,7.1797,7.1797,7.1797,7.1797,7.1797,7.1806,7.1802,7.179,7.1777,7.1699,7.1709,7.1699,0.0,0.0,7.1614,7.1598,7.1598,7.1598,7.1517,7.0706,7.0403,7.021,6.858,6.8476,6.9082,0.0,0.0,0.0,0.0,0.0,0.0,0.0,0.0,0.0,0.0,0.0,0.0,0.0,0.0,0.0,0.0,0.0,0.0,0.0,0.0,5.1729,5.2664,5.2699,5.3089,5.3872,5.4816,5.68,5.9849,6.1973,6.3702,6.5016,6.3081,6.0198,5.6508,5.4283,5.2585,5.1394,5.1394,5.1394,5.1394,0.0,0.0,0.0,0.0,0.0,0.0,0.0,0.0,0.0,0.0,5.1063,5.1414,5.1472,0.0,0.0,0.0,0.0,0.0,5.1277,5.3148,5.4317,5.3502,5.4726,5.6106,5.6063,5.5779,5.5385,5.4902,0.0,0.0,0.0,0.0,0.0,0.0,0.0,0.0,0.0,0.0,0.0,0.0,0.0,0.0,0.0,0.0,0.0,0.0,0.0,0.0,0.0,0.0,0.0,0.0,7.1797,7.1797,7.1797,7.1806,7.1802,7.1809,7.1764,7.1718,7.1709,7.1665,7.1649,7.1649,0.0,7.1598,7.1598,7.1598,7.1614,7.1626,7.1244,7.1115,7.1019,6.9833,6.9373,6.9283,0.0,0.0,0.0,0.0,0.0,0.0,0.0,0.0,0.0,0.0,0.0,0.0,0.0,0.0,0.0,0.0,0.0,0.0,0.0,5.1183,5.1982,5.3541,5.3798,5.4371,5.5381,5.673,5.9084,6.2497,6.4268,6.5686,6.672,6.2828,5.9436,5.6489,5.4088,5.2409,5.1394,5.1394,5.1394,5.1394,0.0,0.0,0.0,0.0,0.0,0.0,0.0,0.0,0.0,0.0,0.0,0.0,0.0,0.0,0.0,5.0366,4.9906,4.9731,5.1193,5.2875,5.4309,5.4691,5.6508,5.8278,5.8616,5.8593,5.8414,5.8145,0.0,0.0,0.0,0.0,0.0,0.0,0.0,0.0,0.0,0.0,0.0,0.0,0.0,0.0,0.0,0.0,0.0,0.0,0.0,0.0,0.0,0.0,0.0,0.0,7.1622,7.1524,7.1524,7.1295,7.1303,7.1485,7.1426,7.1301,7.1082,7.1031,7.1015,7.1015,7.1015,7.1015,7.1015,7.1015,7.1031,7.1097,7.112,7.1019,7.087,7.0443,6.9796,6.902,0.0,0.0,0.0,0.0,0.0,0.0,0.0,0.0,0.0,0.0,0.0,0.0,0.0,0.0,0.0,0.0,0.0,0.0,0.0,5.0852,5.1729,5.2645,5.3467,5.5762,5.9751,6.0028,6.1777,6.5211,6.6967,6.7467,6.6737,6.4062,6.0588,5.6528,5.4713,5.2975,5.1394,5.1394,5.1394,5.1394,5.1394,0.0,0.0,0.0,0.0,0.0,0.0,0.0,0.0,0.0,0.0,0.0,0.0,0.0,5.1284,5.1167,5.1164,5.1915,5.5155,5.5584,5.5482,5.7037,5.6444,5.5879,5.7438,5.7232,5.7115,5.8616,0.0,0.0,0.0,0.0,0.0,0.0,0.0,0.0,0.0,0.0,0.0,0.0,0.0,0.0,0.0,0.0,0.0,0.0,0.0,0.0,0.0,0.0,0.0,0.0,0.0,7.0687,7.0687,6.9827,6.9791,7.0603,7.0543,7.0071,6.9286,6.9286,6.9286,6.9286,6.9286,6.9286,6.9286,6.9286,6.9286,6.9282,6.9356,6.8938,6.8358,6.9121,6.8881,6.8298,0.0,0.0,0.0,0.0,0.0,0.0,0.0,0.0,0.0,0.0,0.0,0.0,0.0,0.0,0.0,0.0,0.0,0.0,0.0,5.0307,5.1367,5.3323,5.4248,5.5978,5.8695,6.1374,6.447,6.7923,6.8599,6.8195,6.6717,6.3086,5.9671,5.6508,5.4205,5.2839,5.2175,5.1629,5.1707,5.2156,5.1629,5.1394,0.0,0.0,0.0,0.0,0.0,0.0,0.0,0.0,4.834,4.9263,4.9449,4.996,5.0674,5.1702,5.1342,5.1113,5.3481,5.4665,5.5477,5.6664,5.7669,5.8683,5.9854,6.112,6.2367,6.3556,6.3614,0.0,0.0,0.0,0.0,0.0,0.0,0.0,0.0,0.0,0.0,0.0,0.0,0.0,0.0,0.0,0.0,0.0,0.0,0.0,0.0,0.0,0.0,0.0,0.0,6.979,6.979,6.9395,6.9085,6.8877,6.9361,6.943,6.9111,6.9111,6.9111,6.9111,6.9111,6.9111,6.9111,6.9111,6.9128,6.9165,6.9288,6.914,6.8909,6.9241,6.9175,6.8884,0.0,0.0,0.0,0.0,0.0,0.0,0.0,0.0,0.0,0.0,0.0,0.0,0.0,0.0,0.0,0.0,0.0,0.0,4.9138,4.973,5.0945,5.2987,5.4203,5.5873,5.8167,6.2173,6.5652,6.8574,6.9132,6.8103,6.5526,6.2032,5.9183,5.6879,5.4556,5.3522,5.3444,5.2292,5.2156,5.2624,5.1746,5.1394,0.0,0.0,0.0,0.0,0.0,0.0,0.0,0.0,4.7521,4.8394,4.9054,4.974,5.0557,5.2008,5.208,5.1934,5.3161,5.4521,5.5744,5.6354,5.8433,6.0559,6.1411,6.3361,6.5348,6.6478,6.6225,6.5816,0.0,0.0,0.0,0.0,0.0,0.0,0.0,0.0,0.0,0.0,0.0,0.0,0.0,0.0,0.0,0.0,0.0,0.0,0.0,0.0,0.0,0.0,0.0,6.8894,6.8894,6.8545,6.808,6.7496,6.8039,6.8287,6.8276,6.8276,6.8276,6.8276,6.8276,6.8276,6.8276,6.8276,6.8326,6.841,6.8531,6.8583,6.8571,6.8571,6.8571,6.8493,0.0,0.0,0.0,0.0,0.0,0.0,0.0,0.0,0.0,0.0,0.0,0.0,0.0,0.0,0.0,0.0,0.0,0.0,4.7501,4.9113,5.0433,5.1252,5.3005,5.5552,5.8948,6.2437,6.5077,6.6815,6.8513,6.7166,6.295,6.1193,5.9436,5.7719,5.604,5.5298,5.5162,5.3444,5.2702,5.2624,5.1746,5.1394,5.1219,0.0,0.0,0.0,0.0,0.0,0.0,0.0,4.8105,4.7801,5.0137,5.0978,5.1253,5.2071,5.363,5.5091,5.5165,5.5822,5.6511,5.6511,0.0,0.0,6.1428,6.297,6.4686,6.6361,6.6712,6.6712,6.6712,0.0,0.0,0.0,0.0,0.0,0.0,0.0,0.0,0.0,0.0,0.0,0.0,0.0,0.0,0.0,0.0,0.0,0.0,0.0,0.0,0.0,0.0,0.0,6.7998,6.7066,6.6601,6.6601,6.6533,6.6508,6.6508,6.6508,6.6508,6.6508,6.6508,6.6489,6.6489,6.6489,6.6583,6.6702,6.6775,6.6808,6.6795,6.6795,6.6795,6.6795,0.0,0.0,0.0,0.0,0.0,0.0,0.0,0.0,0.0,0.0,0.0,0.0,0.0,0.0,0.0,0.0,0.0,0.0,4.7463,4.7977,4.8925,5.0386,5.1567,5.265,5.3654,5.7094,6.1779,6.7712,6.6444,6.4531,6.2013,5.9085,5.7445,5.6918,5.5806,5.4966,5.4303,5.3171,5.2702,5.2624,5.1746,5.1394,5.1219,0.0,0.0,0.0,0.0,0.0,0.0,0.0,0.0,0.0,4.8552,4.993,5.1253,5.2057,5.2825,5.342,5.3431,5.4977,0.0,5.6503,0.0,0.0,0.0,6.4305,6.5426,0.0,6.7199,6.7433,0.0,0.0,0.0,0.0,0.0,0.0,0.0,0.0,0.0,0.0,0.0,0.0,0.0,0.0,0.0,0.0,0.0,0.0,0.0,0.0,0.0,0.0,0.0,0.0,6.7102,6.6754,6.6601,6.6601,6.6587,6.6549,6.6508,6.6508,6.6508,6.6489,6.6562,6.6579,6.6571,6.6668,6.6722,6.6775,6.6789,6.6809,6.6795,6.6795,6.6795,6.6795,0.0,0.0,0.0,0.0,0.0,0.0,0.0,0.0,0.0,0.0,4.6975,4.7326,0.0,0.0,0.0,0.0,0.0,0.0,0.0,4.7638,4.8493,4.9543,5.0757,5.1898,5.2936,5.6001,5.9534,6.3535,6.2657,6.1369,5.9651,5.8597,5.8109,5.8128,5.8285,5.7484,5.5942,5.4752,5.3854,5.3132,5.2273,5.1921,5.1726,0.0,0.0,0.0,0.0,0.0,0.0,0.0,0.0,0.0,4.739,4.8466,4.9853,5.1746,5.2697,5.3459,5.4864,5.6391,0.0,5.8392,6.1158,6.3982,6.5001,0.0,0.0,0.0,0.0,0.0,0.0,0.0,0.0,0.0,0.0,0.0,0.0,0.0,0.0,0.0,0.0,0.0,0.0,0.0,0.0,0.0,0.0,0.0,0.0,0.0,0.0,0.0,0.0,0.0,6.6712,6.6638,6.6606,6.6633,6.6604,6.6585,6.6583,6.6583,6.6583,6.6583,6.6624,6.6631,6.6647,6.6769,6.6797,6.6797,6.6793,6.6795,6.6795,6.6795,6.6795,6.6795,0.0,0.0,4.2221,4.2299,0.0,0.0,0.0,0.0,0.0,0.0,4.6196,4.6507,0.0,0.0,0.0,0.0,0.0,0.0,0.0,4.7752,4.8723,4.8806,5.0551,5.2663,5.5123,5.7289,5.7699,5.6235,5.8011,5.805,5.6547,5.9007,6.0159,6.0237,6.1896,6.1193,5.8636,5.6957,5.5279,5.3698,5.2897,5.2585,5.239,5.0649,0.0,0.0,0.0,0.0,0.0,0.0,0.0,0.0,4.6658,4.7053,4.7859,5.1113,5.2952,5.4617,5.7782,5.887,0.0,6.1076,6.2286,0.0,6.6244,0.0,0.0,0.0,0.0,0.0,0.0,0.0,0.0,0.0,0.0,0.0,0.0,0.0,0.0,0.0,0.0,0.0,0.0,0.0,0.0,0.0,0.0,0.0,0.0,0.0,0.0,0.0,0.0,0.0,6.6702,6.6618,6.6633,0.0,6.6633,6.6647,6.6707,6.6702,6.6702,6.6707,6.6707,6.6707,6.6715,6.6776,6.6797,6.6796,6.6793,6.6795,6.6795,6.6795,6.6795,6.6795,0.0,0.0,4.1559,4.2202,0.0,0.0,0.0,0.0,0.0,0.0,0.0,0.0,0.0,0.0,0.0,0.0,0.0,0.0,0.0,4.7192,4.8084,4.8775,5.1121,5.2995,5.4244,5.3483,5.321,5.3541,5.5962,5.6606,5.5611,5.7484,5.8363,5.8402,5.9475,5.8519,5.6001,5.4264,5.2936,5.1941,5.1765,5.1687,5.1488,4.9672,4.8873,0.0,0.0,0.0,0.0,0.0,0.0,0.0,4.6642,4.788,4.9204,5.0072,5.2466,5.4851,5.505,5.7055,0.0,0.0,6.1827,6.4437,6.6356,6.6791,0.0,0.0,0.0,0.0,0.0,0.0,0.0,0.0,0.0,0.0,0.0,0.0,0.0,0.0,0.0,0.0,0.0,0.0,0.0,0.0,0.0,0.0,0.0,0.0,0.0,0.0,0.0,6.6699,6.6699,6.6634,6.6615,0.0,6.6711,6.6752,6.6775,6.6715,6.6738,6.6776,6.6776,6.6777,6.6784,6.6797,6.6793,6.6789,6.68,6.6795,6.6795,6.6795,6.6795,6.6795,0.0,0.0,0.0,0.0,0.0,0.0,0.0,0.0,0.0,0.0,0.0,0.0,0.0,0.0,0.0,0.0,0.0,0.0,0.0,0.0,4.8107,4.9364,5.1531,5.2526,5.2136,5.1648,5.1414,5.1453,5.2819,5.3893,5.4713,5.643,5.7641,5.846,5.9339,5.8304,5.5845,5.4517,5.319,5.2019,5.2019,5.1733,5.1166,4.9829,4.8787,4.7843,4.6402,0.0,0.0,0.0,0.0,0.0,0.0,0.0,4.8614,4.9983,5.2027,5.4219,5.59,0.0,0.0,6.1174,0.0,6.5203,6.6499,6.6805,0.0,0.0,0.0,0.0,0.0,0.0,0.0,0.0,0.0,0.0,0.0,0.0,0.0,0.0,0.0,0.0,0.0,0.0,0.0,0.0,0.0,0.0,0.0,0.0,0.0,0.0,6.6702,6.6692,6.6692,6.6661,6.6661,6.6692,6.6775,6.6795,6.6808,6.6757,6.6777,6.6806,6.6806,6.6797,6.6795,6.6795,6.6795,6.6795,6.6795,6.6795,6.6795,6.6795,6.6795,6.6795,0.0,0.0,0.0,0.0,0.0,0.0,0.0,0.0,0.0,0.0,0.0,0.0,0.0,0.0,0.0,0.0,0.0,0.0,0.0,0.0,0.0,5.0028,5.1472,5.1648,5.036,5.075,5.075,5.0321,5.0028,5.1375,5.4264,5.5845,5.7406,5.8909,5.9475,5.8402,5.6079,5.4908,5.3483,5.2019,5.2019,5.1528,5.0686,4.9834,4.858,4.7184,4.6268,4.5879,4.5808,4.5955,0.0,0.0,0.0,0.0,4.7661,4.9896,5.1489,5.3299,5.7026,5.8676,6.0139,6.3477,6.496,0.0,6.6622,6.6798,6.6792,0.0,0.0,0.0,0.0,0.0,0.0,0.0,0.0,0.0,0.0,0.0,0.0,0.0,0.0,0.0,0.0,0.0,0.0,0.0,0.0,0.0,0.0,0.0,6.6702,6.6702,6.6693,6.6709,6.6706,6.67,6.6735,6.6795,6.6795,6.6808,6.6795,6.6795,6.6795,6.6795,6.6795,6.6795,6.6795,6.6795,6.6795,6.6795,6.6795,6.6795,6.6795,6.6795,6.6795,6.6795,0.0,0.0,0.0,0.0,0.0,0.0,0.0,0.0,0.0,0.0,4.6196,4.6196,0.0,4.619,4.6203,4.6203,4.625,4.6284,4.6303,0.0,0.0,5.0028,5.0321,5.0692,5.1219,4.9852,4.9833,5.1238,4.9716,5.1082,5.5142,5.6138,5.7094,5.7953,5.7367,5.6079,5.4186,5.1804,5.0223,4.9325,4.9325,4.9243,4.9016,4.796,4.7456,4.7164,4.6129,4.5735,4.5827,4.66,4.6835,0.0,0.0,0.0,4.8218,4.8676,5.0542,5.2719,5.418,0.0,6.0881,0.0,6.496,6.5819,0.0,0.0,0.0,0.0,0.0,0.0,0.0,0.0,0.0,0.0,0.0,0.0,0.0,0.0,0.0,0.0,0.0,0.0,0.0,0.0,0.0,0.0,0.0,0.0,6.6712,6.6712,6.6692,6.6706,6.6694,6.6706,6.6703,6.6698,6.6738,6.6797,6.6803,6.6805,6.6795,6.6795,6.6795,6.6795,6.6795,6.6795,6.6795,6.6795,6.6795,6.6795,6.6795,6.6795,6.6795,6.6795,6.6795,6.6795,0.0,0.0,0.0,0.0,0.0,0.0,0.0,0.0,0.0,0.0,0.0,4.6203,4.619,4.6203,4.6209,4.6245,4.6279,4.6308,4.6292,4.7116,4.7939,4.8681,4.913,4.9345,4.9267,4.8525,4.8505,4.9267,4.8505,5.034,5.4576,5.4966,5.6098,5.7738,5.645,5.4908,5.3132,5.1004,4.9599,4.8798,4.8798,4.9332,4.9919,4.7999,4.7824,4.839,4.6448,4.577,4.5866,4.6719,4.6664,4.6372,4.6889,0.0,0.0,0.0,4.9617,5.2329,5.5276,5.8548,6.1642,0.0,6.5292,6.6366,6.6717,0.0,0.0,0.0,0.0,0.0,0.0,0.0,0.0,0.0,0.0,0.0,0.0,0.0,0.0,0.0,0.0,0.0,0.0,0.0,0.0,0.0,0.0,6.6693,6.6689,6.6705,6.67,6.6703,6.6706,6.6713,6.6757,6.6754,6.6769,6.6803,6.6805,6.6795,6.6795,6.6795,6.6795,6.6795,6.6795,6.6795,6.6795,6.6795,6.6795,6.6795,6.6795,6.6795,6.6795,6.6795,6.6795,6.6795,0.0,0.0,0.0,0.0,0.0,0.0,0.0,0.0,0.0,0.0,0.0,4.619,4.6209,0.0,0.0,0.0,4.6308,4.6292,4.63,4.6905,4.7276,4.7276,4.7842,4.7881,4.7276,4.7276,4.7373,4.7608,4.7803,5.0106,5.4342,5.4556,5.602,5.8382,5.6489,5.4654,5.2897,5.0926,4.9712,4.9118,4.9126,4.9845,5.0743,4.9456,4.9712,5.0425,4.7763,4.6965,0.0,0.0,0.0,0.0,0.0,0.0,0.0,0.0,0.0,5.1657,5.5474,0.0,6.092,6.3106,6.4902,6.6288,0.0,0.0,0.0,0.0,0.0,0.0,0.0,0.0,0.0,0.0,0.0,0.0,0.0,0.0,0.0,0.0,0.0,0.0,0.0,0.0,0.0,0.0,0.0,6.6709,6.6694,6.6717,6.6722,6.6699,6.6718,6.6754,6.6793,6.6797,6.6793,6.6795,6.6795,6.6795,6.6795,6.6795,6.6795,6.6795,6.6795,6.6795,6.6795,6.6795,6.6795,6.6795,6.6795,6.6795,6.6795,6.6795,6.6795,6.6795,0.0,0.0,0.0,0.0,0.0,0.0,0.0,0.0,0.0,0.0,0.0,4.6209,4.6206,4.6255,4.6303,4.6303,4.6296,4.63,4.63,4.6339,4.6378,4.6378,4.6417,0.0,4.6378,4.6378,4.6768,4.7608,4.8369,5.0965,5.524,5.6079,5.7816,6.0159,5.766,5.5552,5.3756,5.1199,5.005,4.9939,5.0015,5.004,5.0302,5.2586,5.3541,5.3318,5.0577,0.0,0.0,0.0,0.0,0.0,0.0,0.0,0.0,0.0,0.0,0.0,5.2435,5.4869,5.768,6.0998,6.3145,6.4843,0.0,0.0,0.0,0.0,0.0,0.0,0.0,0.0,0.0,0.0,0.0,0.0,0.0,0.0,0.0,0.0,0.0,0.0,0.0,0.0,0.0,0.0,0.0,6.6694,6.6694,6.675,6.6776,6.6703,6.6764,6.6789,6.6791,6.6804,6.6795,6.6795,6.6795,6.6795,6.6795,6.6795,6.6795,6.6795,6.6795,6.6795,6.6795,6.6795,6.6795,6.6795,6.6795,6.6795,6.6795,6.6795,6.6795,6.6795,0.0,0.0,0.0,0.0,0.0,0.0,0.0,0.0,0.0,0.0,0.0,0.0,0.0,4.6284,4.6308,4.6296,4.63,4.63,4.63,4.63,4.63,4.63,4.63,4.63,4.63,4.63,4.6456,4.6768,4.7042,4.9111,5.2819,5.3698,5.5474,5.7914,5.7016,5.563,5.3795,5.0572,4.8892,4.8484,4.9588,5.1031,5.2538,5.2899,0.0,0.0,0.0,0.0,0.0,0.0,0.0,0.0,0.0,0.0,0.0,0.0,0.0,4.9791,5.2073,5.4205,5.6454,5.9319,6.1759,6.377,6.4921,0.0,0.0,0.0,0.0,0.0,0.0,0.0,0.0,0.0,0.0,0.0,0.0,0.0,0.0,0.0,0.0,0.0,0.0,0.0,0.0,0.0,0.0,0.0,6.675,6.6757,6.6747,6.6751,6.6784,6.6798,6.6805,6.6804,6.6795,6.6795,6.6795,6.6795,6.6795,6.6795,6.6795,6.6795,6.6795,6.6795,6.6795,6.6795,6.6795,6.6795,6.6795,6.6795,6.6795,6.6795,6.6795,6.6795,0.0,0.0,0.0,0.0,0.0,0.0,0.0,0.0,0.0,4.624,0.0,0.0,0.0,0.0,4.6292,4.63,4.63,4.63,4.63,4.63,4.63,4.63,4.63,4.63,4.63,4.63,4.63,4.63,4.6593,4.8193,5.0984,5.2156,5.3932,5.6157,5.5831,5.5533,5.504,5.211,5.0334,4.969,5.1456,5.2809,5.3931,0.0,0.0,0.0,0.0,0.0,0.0,0.0,0.0,0.0,0.0,0.0,0.0,0.0,0.0,0.0,5.0614,5.2667,5.5114,5.7957,5.9963,6.1935,6.455,0.0,0.0,0.0,0.0,0.0,0.0,0.0,0.0,0.0,0.0,0.0,0.0,0.0,0.0,0.0,0.0,0.0,0.0,0.0,0.0,0.0,0.0,0.0,6.6769,6.675,6.6756,6.6804,6.6805,6.6805,6.6798,6.679,6.6795,6.6795,6.6795,6.6795,6.6795,6.6795,6.6795,6.6795,6.6795,6.6795,6.6795,6.6795,6.6795,6.6795,6.6795,6.6795,6.6795,6.6795,6.6795,6.6795,0.0,0.0,0.0,0.0,0.0,0.0,0.0,0.0,4.6236,4.6296,0.0,0.0,0.0,0.0,0.0,4.6378,4.6378,4.6358,4.63,4.63,4.63,4.63,4.63,4.63,4.63,4.63,4.63,4.63,4.7159,4.8427,5.0106,5.1824,5.3541,5.5181,5.43,5.5268,5.7471,5.5689,5.4412,5.3734,0.0,5.5298,5.4274,0.0,0.0,0.0,5.7929,5.7631,0.0,5.4762,0.0,0.0,0.0,0.0,0.0,0.0,0.0,0.0,0.0,0.0,0.0,0.0,0.0,0.0,6.5155,0.0,0.0,0.0,0.0,0.0,0.0,0.0,0.0,0.0,0.0,0.0,0.0,0.0,0.0,0.0,0.0,0.0,0.0,0.0,0.0,0.0,0.0,6.6697,6.6697,6.6758,6.6798,6.6795,6.6804,6.6798,6.6795,6.6795,6.6795,6.6795,6.6795,6.6795,6.6795,6.6795,6.6795,6.6795,6.6795,6.6795,6.6795,6.6795,6.6795,6.6795,6.6795,6.6795,6.6795,6.6795,6.6795,6.6795,0.0,0.0,0.0,0.0,0.0,0.0,4.5945,4.614,4.6273,0.0,0.0,0.0,4.6378,4.7373,4.8115,4.8115,4.8115,4.7588,4.6378,4.63,4.63,4.63,4.63,4.63,4.63,4.63,4.63,4.63,4.6534,4.753,4.9189,5.0301,5.1746,5.3424,5.376,5.4239,5.4646,5.228,0.0,5.2822,5.4594,5.5777,0.0,0.0,0.0,0.0,0.0,5.9581,5.9248,0.0,5.5509,5.34,0.0,0.0,0.0,0.0,0.0,0.0,5.0067,0.0,0.0,0.0,0.0,0.0,5.8909,6.1466,0.0,0.0,0.0,0.0,0.0,0.0,0.0,0.0,0.0,0.0,0.0,0.0,0.0,0.0,0.0,0.0,0.0,0.0,0.0,0.0,6.6708,6.6699,6.6691,6.6761,6.6792,6.6798,6.6804,6.6804,6.6798,6.679,6.679,6.6798,6.679,6.6795,6.6795,6.6795,6.6795,6.6795,6.6795,6.6795,6.6795,6.6795,6.6795,6.6795,6.6795,6.6795,6.6795,6.6795,6.6795,6.6795,0.0,0.0,4.6417,4.6788,0.0,4.7334,4.7334,4.7334,4.7334,0.0,0.0,0.0,4.7354,4.9189,4.9989,4.8896,4.8798,4.8232,4.6924,4.6495,4.63,4.63,4.63,4.6475,4.6827,4.6495,4.6475,4.6846,4.6846,4.7159,4.7783,4.9364,5.0254,5.0572,5.172,5.1968,5.1431,4.9879,0.0,0.0,5.5017,0.0,0.0,5.9698,6.0691,0.0,0.0,0.0,6.0196,5.9573,5.7154,0.0,0.0,0.0,0.0,0.0,0.0,0.0,0.0,5.1648,0.0,0.0,0.0,0.0,5.8577,6.0646,6.2579,0.0,0.0,0.0,0.0,0.0,0.0,0.0,0.0,0.0,0.0,0.0,0.0,0.0,0.0,0.0,0.0,0.0,0.0,6.6692,6.6693,6.6693,6.6706,6.6739,6.6778,6.6792,6.6804,6.6804,6.6792,6.6804,6.6804,6.6792,6.6804,6.679,6.6795,6.6795,6.6795,6.6795,6.6795,6.6795,6.6795,6.6795,6.6795,6.6795,6.6795,6.6795,6.6795,6.6795,6.6795,6.6795,0.0,0.0,4.6729,4.7588,4.8408,4.9013,4.9208,4.9072,4.9052,0.0,4.8662,4.8505,4.9423,5.1414,5.1765,4.9442,4.9052,4.8564,4.7666,4.6788,4.63,4.63,4.6397,4.6768,4.7432,4.6885,4.6866,4.7451,4.7549,4.7253,4.6628,4.8888,4.9103,4.7671,4.9117,4.9234,4.8359,4.8377,0.0,5.2524,5.5932,5.6507,0.0,0.0,6.0546,0.0,6.0984,6.1129,6.0691,6.1339,5.885,0.0,0.0,0.0,0.0,0.0,5.0699,0.0,0.0,0.0,0.0,0.0,0.0,0.0,6.0568,6.0881,6.1174,0.0,0.0,0.0,0.0,0.0,0.0,0.0,0.0,0.0,0.0,0.0,0.0,0.0,0.0,0.0,0.0,6.6449,6.6466,6.6546,6.6659,6.6699,6.6692,6.6711,6.6728,6.6805,6.6811,6.6811,6.6811,6.6792,6.6792,6.6811,6.6792,6.6804,6.6795,6.6795,6.6795,6.6795,6.6795,6.6795,6.6795,6.6795,6.6795,6.6795,6.6795,6.6795,6.6795,6.6795,6.6795,6.6795,4.6209,4.683,4.7608,4.8427,4.9286,5.0321,5.1726,5.075,5.0594,5.2702,5.2234,5.2292,5.3854,5.3229,5.2487,5.198,5.0653,4.9208,4.7705,4.6788,4.63,4.63,4.6963,4.71,4.6573,4.7705,4.7725,4.6554,4.7256,4.7825,4.8242,4.873,4.8762,4.8407,4.866,4.8285,4.7493,0.0,0.0,5.2551,5.4613,0.0,5.8374,6.0707,6.1387,6.1203,6.1543,6.2017,6.2296,0.0,5.9123,5.6725,0.0,0.0,0.0,0.0,0.0,0.0,0.0,0.0,0.0,0.0,0.0,0.0,5.3873,5.6079,5.8363,0.0,0.0,0.0,0.0,0.0,0.0,0.0,0.0,0.0,0.0,0.0,0.0,0.0,0.0,0.0,0.0,6.4692,6.4971,6.5603,6.6292,6.6692,6.6702,6.6702,6.672,6.681,6.681,6.681,6.681,6.6805,6.6805,6.681,6.6798,6.6795,6.6795,6.6795,6.6795,6.6795,6.6795,6.6795,6.6795,6.6795,6.6795,6.6795,6.6795,6.6795,6.6795,6.6795,6.6795,6.679,4.6268,4.7254,4.8426,4.9302,5.0535,5.198,5.3737,5.2897,5.2835,5.5005,5.565,5.5747,5.5337,5.5259,5.4556,5.2839,5.1102,4.956,4.8271,4.7002,4.63,4.63,4.6729,4.7139,4.7549,4.7549,4.7549,4.7549,4.7552,4.7513,4.747,4.8308,4.8904,4.9206,4.8292,4.8114,4.8386,0.0,4.8368,5.0671,5.4175,0.0,5.9147,6.0964,6.1673,6.1701,6.1701,6.1974,6.2228,6.1349,5.9876,0.0,0.0,5.5822,5.5327,0.0,5.354,5.5103,0.0,0.0,0.0,5.4654,0.0,0.0,0.0,5.5611,5.6918,0.0,0.0,0.0,0.0,0.0,0.0,0.0,0.0,0.0,0.0,0.0,0.0,0.0,0.0,0.0,0.0,6.4213,6.4372,6.4764,6.5209,6.5444,6.5444,6.5873,6.6115,6.6159,6.6569,6.6775,6.6748,6.6778,6.6805,6.6803,6.6792,6.6809,6.6795,6.6795,6.6759,6.6705,6.6705,6.6642,6.6556,6.6556,6.6303,6.6011,6.6577,6.6795,6.6795,6.6795,6.6759,6.6697,4.6298,4.7541,4.8944,4.9727,5.157,5.3483,5.5064,5.4693,5.4825,5.6391,5.7914,5.807,5.6001,5.6704,5.6274,5.3678,5.1863,5.0418,4.9364,4.7881,4.7022,4.7022,4.6729,4.7334,4.9013,4.7545,4.7268,4.8302,4.7735,4.7002,4.6189,4.7708,4.8677,4.909,4.8351,4.8552,4.9343,0.0,0.0,5.019,0.0,5.6814,5.8189,6.0347,6.1169,6.1217,6.1579,6.1701,6.1701,6.1701,0.0,5.9494,5.9125,5.8799,0.0,0.0,0.0,0.0,0.0,0.0,0.0,0.0,0.0,5.5044,0.0,0.0,0.0,0.0,0.0,0.0,0.0,0.0,0.0,0.0,0.0,0.0,0.0,0.0,0.0,0.0,0.0,0.0,0.0,6.3553,6.3589,6.3923,6.3798,6.385,6.4189,6.4876,6.5246,6.5242,6.6101,6.6514,6.6466,6.6674,6.6798,6.6803,6.6805,6.6792,6.6759,6.6759,6.6678,6.6544,6.6544,6.6445,6.6295,6.6139,6.5693,6.5197,6.6098,6.6369,6.6213,6.6213,6.6271,6.629,4.6163,4.7467,4.8755,4.8912,5.1668,5.4186,5.5142,5.522,5.5493,5.6469,5.7387,5.7836,5.7543,5.6352,0.0,5.6118,0.0,0.0,5.1219,0.0,4.9677,4.9677,4.8252,4.8232,4.993,4.8942,4.7794,4.6507,4.7058,4.6844,4.5972,4.6911,4.7008,4.6484,4.9329,0.0,0.0,0.0,5.2304,0.0,5.5197,5.4743,0.0,5.7914,5.9209,5.9447,6.11,6.1701,6.1701,0.0,6.1485,6.0971,0.0,6.0002,6.0445,0.0,0.0,0.0,0.0,0.0,0.0,0.0,5.6411,0.0,0.0,0.0,0.0,0.0,0.0,0.0,0.0,0.0,0.0,0.0,0.0,0.0,0.0,0.0,0.0,0.0,0.0,0.0,0.0,0.0,6.1386,6.2928,6.2325,6.2567,6.4131,6.4279,6.4352,6.4346,6.5196,6.5628,6.5644,6.6358,6.6748,6.6803,6.6805,6.6744,6.6615,6.6615,6.6532,6.6344,6.6344,6.6329,6.6237,6.5533,6.5183,6.5125,6.5231,6.4817,6.4131,6.4131,6.4623,6.5144,4.6042,4.7835,4.9255,4.882,5.1245,5.3717,5.5083,5.6977,5.8207,5.807,5.9222,5.9866,0.0,0.0,0.0,0.0,0.0,5.401,0.0,0.0,5.0399,4.9384,4.8621,0.0,4.9274,4.8366,4.7529,4.6839,4.6591,4.6263,4.5861,4.672,4.7759,4.8929,5.0402,0.0,5.2168,0.0,5.2758,0.0,0.0,0.0,0.0,5.8548,6.0522,6.0639,6.1417,6.1701,6.1701,0.0,6.1666,0.0,0.0,0.0,0.0,0.0,0.0,0.0,0.0,0.0,0.0,0.0,0.0,0.0,0.0,0.0,5.2429,0.0,0.0,0.0,0.0,0.0,0.0,0.0,0.0,0.0,0.0,0.0,0.0,0.0,0.0,0.0,0.0,0.0,0.0,0.0,0.0,6.1919,6.2648,6.316,6.3452,6.3441,6.4283,6.4976,6.5435,6.5823,6.6268,6.6803,6.672,6.6654,6.6615,6.6477,6.6349,6.6184,6.6184,6.6129,6.5988,6.5158,6.452,6.4018,6.3535,6.3531,6.3784,6.3784,6.3977,6.4168,4.5919,4.7675,4.8992,4.8451,5.0542,5.2986,5.4986,5.7406,0.0,0.0,0.0,0.0,6.0744,5.9768,0.0,0.0,5.7543,5.5962,0.0,0.0,5.2117,0.0,0.0,0.0,0.0,4.8368,4.7271,4.727,4.6325,4.5841,4.58,4.6656,4.8077,4.9974,0.0,5.3001,5.4529,0.0,0.0,5.3719,5.5003,5.5255,5.5327,5.9396,6.1256,6.1701,6.1701,6.1701,6.1701,6.1701,6.1691,0.0,6.1696,0.0,0.0,0.0,0.0,0.0,5.905,0.0,0.0,0.0,0.0,0.0,0.0,0.0,0.0,0.0,0.0,0.0,0.0,0.0,0.0,0.0,0.0,0.0,0.0,0.0,0.0,0.0,0.0,0.0,0.0,0.0,0.0,0.0,0.0,0.0,6.1576,6.2204,6.2547,6.2547,6.3378,6.4129,6.4715,6.521,6.5792,6.6444,6.6526,6.656,6.6509,6.6334,6.6185,6.6063,6.6063,6.599,6.5801,6.4705,6.3878,6.3205,6.2147,6.2236,6.2981,6.2981,6.307,6.3146,4.5781,4.6609,4.7315,4.7428,0.0,5.2233,0.0,0.0,0.0,0.0,0.0,0.0,0.0,0.0,0.0,0.0,0.0,5.9495,5.7758,0.0,5.5864,0.0,0.0,5.0667,0.0,0.0,4.7202,4.7204,4.6259,4.577,4.5728,4.6521,4.6992,4.7352,5.2353,5.4226,5.3786,5.6246,5.8282,5.9765,5.8234,5.9137,6.1222,0.0,6.0113,6.1701,6.1701,0.0,0.0,6.1701,6.1602,0.0,0.0,0.0,0.0,0.0,0.0,0.0,0.0,0.0,0.0,5.7457,0.0,0.0,0.0,0.0,5.4693,0.0,0.0,0.0,0.0,0.0,5.3366,5.1707,5.2175,0.0,0.0,0.0,0.0,0.0,0.0,0.0,0.0,0.0,0.0,0.0,0.0,0.0,6.1517,6.1634,6.1634,6.1634,6.2489,6.2949,6.2979,6.4578,6.5436,6.5541,6.6201,6.6431,6.629,6.6167,6.6041,6.5923,6.5923,6.5897,6.5763,6.4051,6.3339,6.3147,6.1493,6.0862,6.09,6.09,6.142,6.2036,4.6521,4.678,4.6868,0.0,0.0,0.0,0.0,5.4917,0.0,0.0,0.0,0.0,0.0,0.0,6.1056,0.0,0.0,6.0529,5.8773,5.8128,0.0,0.0,0.0,5.3654,0.0,0.0,4.9683,4.7854,4.7552,4.7383,4.7386,4.8216,4.8636,4.8836,0.0,5.4996,0.0,0.0,0.0,0.0,0.0,5.97,6.2423,0.0,0.0,6.1701,6.1701,6.1701,0.0,6.1701,6.1666,6.1634,6.1696,6.1666,6.1634,6.1696,6.1648,0.0,0.0,0.0,6.1006,5.8749,0.0,0.0,0.0,0.0,0.0,0.0,0.0,0.0,0.0,0.0,5.3424,5.1687,5.2136,5.1804,0.0,0.0,0.0,0.0,0.0,0.0,0.0,0.0,0.0,0.0,0.0,0.0,0.0,6.1595,6.1595,6.1595,6.1898,6.2318,6.2883,6.3458,6.4267,6.5306,6.545,6.5752,6.6167,6.6039,6.5933,6.5897,6.5897,6.5897,6.5801,6.4647,6.382,6.3205,6.2089,6.13,6.08,6.08,6.0993,6.1204,4.7354,0.0,0.0,0.0,0.0,0.0,0.0,0.0,0.0,0.0,6.0073,0.0,6.2071,0.0,6.1818,0.0,6.1876,6.1213,6.01,5.9436,0.0,5.8421,5.7115,0.0,0.0,0.0,5.2027,4.9663,4.929,4.8966,4.8675,4.9253,4.9676,5.0096,0.0,5.5312,5.6422,0.0,5.9747,0.0,0.0,6.0529,0.0,0.0,6.2169,6.213,0.0,6.1701,6.1701,6.1701,6.1701,6.1701,6.1701,6.1701,6.1701,6.1678,6.162,6.1557,6.1557,6.1538,0.0,5.9413,5.8194,0.0,5.5273,0.0,0.0,0.0,0.0,0.0,0.0,0.0,5.4346,5.2585,5.1991,5.0809,0.0,4.8115,0.0,0.0,0.0,0.0,0.0,0.0,0.0,0.0,0.0,0.0,0.0,0.0,6.1607,6.1607,6.1607,6.1861,6.2426,6.2757,6.3525,6.4727,6.4912,6.5373,6.6065,6.5938,6.5897,6.5872,6.5897,6.5897,6.582,6.4955,6.4089,6.3224,6.2397,6.157,6.08,6.08,6.08,6.08,4.8256,0.0,0.0,0.0,4.9802,0.0,0.0,0.0,5.7808,0.0,6.049,6.1974,6.2833,6.2208,6.2032,6.2852,6.2189,0.0,6.1701,6.0159,0.0,0.0,5.8461,5.7388,5.896,0.0,0.0,0.0,5.1396,5.0465,4.9691,4.9652,5.0057,5.0926,5.3474,0.0,5.6375,5.8939,6.0682,6.1701,6.1759,6.1798,6.1915,6.2755,0.0,6.3008,6.2149,6.1837,6.1837,6.1837,6.1837,6.1837,6.1837,6.1798,6.1748,6.1678,6.1594,6.1505,6.1505,6.1497,6.112,5.9529,0.0,0.0,0.0,0.0,5.989,0.0,0.0,0.0,0.0,0.0,0.0,5.4141,5.175,4.954,4.7959,0.0,0.0,0.0,0.0,0.0,0.0,0.0,0.0,0.0,0.0,0.0,0.0,0.0,6.1471,6.1607,6.1607,6.1607,6.1607,6.2367,6.3095,6.3773,6.4508,6.5219,6.5855,6.587,6.5846,6.5793,6.5872,6.5897,6.584,6.5013,6.4147,6.3281,6.2474,6.1589,6.08,6.08,6.08,6.08,4.9202,4.9259,4.9547,0.0,4.9961,5.0687,0.0,0.0,0.0,0.0,5.9942,6.1076,6.1935,6.1837,6.1798,6.2013,6.1837,0.0,0.0,0.0,0.0,6.1681,6.0832,5.9892,5.8944,5.7634,0.0,5.506,5.2903,5.2028,5.2389,5.1732,5.1228,5.099,0.0,0.0,5.6397,5.8371,6.0174,6.1759,6.2403,6.3047,0.0,0.0,6.4375,6.4824,6.3945,6.3633,6.3633,6.3633,6.3633,6.3633,6.3633,6.3184,6.2646,6.2596,6.2063,6.1501,6.1502,6.145,6.1324,6.0955,5.9883,5.8832,0.0,0.0,0.0,0.0,0.0,0.0,0.0,0.0,0.0,5.3386,5.1363,4.995,0.0,0.0,0.0,0.0,0.0,0.0,0.0,0.0,0.0,0.0,0.0,0.0,0.0,0.0,0.0,6.1549,6.1607,6.1607,6.1607,6.1078,6.1155,6.1821,6.253,6.3191,6.3899,6.5224,6.582,6.5793,6.5872,6.5897,6.5878,6.5647,6.5051,6.4185,6.3339,6.2089,6.08,6.08,6.08,6.08,4.9429,0.0,0.0,5.1819,0.0,0.0,5.4276,0.0,0.0,5.8564,5.9999,0.0,6.1036,6.1431,6.1701,6.1701,6.1701,0.0,0.0,0.0,0.0,6.1701,6.1701,6.1217,6.0152,5.9615,0.0,5.6692,0.0,0.0,5.3426,5.2169,5.1531,5.1544,0.0,5.4997,5.643,5.8987,6.1144,6.2852,6.2969,0.0,0.0,6.4726,6.5175,6.5585,6.5448,6.4921,6.4297,6.4297,6.4297,6.4297,6.4297,6.3943,6.3508,6.3435,6.3032,6.2594,6.2599,6.229,6.1977,6.2017,6.1007,6.0009,6.0088,6.0458,6.0546,0.0,0.0,0.0,0.0,0.0,0.0,0.0,0.0,0.0,0.0,0.0,0.0,0.0,0.0,0.0,0.0,0.0,0.0,0.0,0.0,0.0,0.0,0.0,0.0,6.0419,6.1207,6.1597,6.1607,6.1032,6.0871,6.1113,6.2221,6.2882,6.318,6.498,6.5793,6.5793,6.5872,6.5897,6.5897,6.5897,6.5397,6.4512,6.3647,6.2512,6.1358,6.1358,6.1127,6.08,0.0,0.0,0.0,0.0,0.0,0.0,0.0,5.7602,0.0,5.8862,0.0,6.14,6.0659,6.1459,6.2032,6.2032,0.0,6.2032,6.2032,6.2032,6.2032,6.2032,6.1935,6.1876,6.1876,6.1529,0.0,0.0,0.0,0.0,5.3491,5.1834,5.1467,5.224,0.0,0.0,0.0,6.0137,6.2584,6.4082,6.3555,6.3789,6.455,6.5429,6.5761,6.5858,6.6541,6.5858,6.4628,6.4628,6.4628,6.4633,6.4638,6.4504,6.4354,6.4286,6.4143,6.3993,6.4007,6.3439,6.2876,6.2876,6.2216,6.1594,6.1652,6.1575,6.1497,6.1497,6.1526,6.1461,0.0,0.0,0.0,0.0,0.0,0.0,0.0,0.0,0.0,0.0,0.0,0.0,0.0,0.0,0.0,0.0,0.0,0.0,0.0,0.0,0.0,5.9347,6.0807,0.0,6.1607,0.0,6.1192,6.0784,6.2548,6.318,6.2828,6.4864,6.5793,6.5793,6.5872,6.5897,6.5897,6.5897,6.5397,6.4532,6.3782,6.2974,6.2262,6.2262,6.1704,6.0954,0.0,0.0,0.0,0.0,0.0,5.7153,5.8076,5.8573,5.9104,5.9835,6.1568,6.268,6.2524,6.3316,6.3848,6.3848,6.3848,0.0,0.0,0.0,0.0,6.3848,6.3164,6.2774,6.2774,6.1339,5.9983,0.0,0.0,0.0,5.3557,5.2481,5.2047,5.224,0.0,0.0,5.7545,6.0444,0.0,6.334,6.4628,6.5234,6.5468,6.6288,6.658,6.66,6.6756,6.66,6.6366,6.6366,6.6366,6.6356,6.6363,6.5859,6.5251,6.5133,6.4559,6.3993,6.4007,6.3886,6.377,6.377,6.3129,6.2488,6.2488,6.1924,6.1419,6.1419,6.1428,6.1019,5.9599,0.0,0.0,0.0,0.0,0.0,0.0,0.0,0.0,0.0,0.0,0.0,0.0,0.0,0.0,0.0,0.0,0.0,0.0,0.0,0.0,0.0,0.0,0.0,0.0,0.0,5.9918,5.9058,6.1292,6.189,6.1141,6.4346,6.5793,6.5793,6.5872,6.5897,6.5897,6.5897,6.5397,6.4589,6.4436,6.3858,6.3089,6.3089,6.257,6.1762,0.0,0.0,0.0,0.0,0.0,0.0,0.0,6.111,0.0,6.0934,6.2041,6.2902,6.2902,6.3734,6.4297,6.4297,6.4297,6.4297,6.4297,6.4297,6.4297,6.4297,6.3906,0.0,6.3672,6.2852,6.1289,5.8991,0.0,0.0,5.3604,5.177,5.1382,5.2351,0.0,5.6848,0.0,0.0,0.0,6.5019,6.5429,6.5858,6.6268,6.6658,6.6795,6.6795,6.6795,6.6795,6.6795,6.6795,6.6793,6.6808,6.6796,6.6455,6.6056,6.5981,6.5656,6.5291,6.53,6.4974,6.4624,6.4624,6.3983,6.3362,6.3362,6.2701,6.208,6.208,6.1711,6.0761,5.8666,5.7258,0.0,0.0,0.0,0.0,0.0,0.0,0.0,0.0,0.0,0.0,0.0,0.0,0.0,0.0,0.0,0.0,0.0,0.0,0.0,0.0,0.0,0.0,0.0,0.0,0.0,5.8528,6.1406,6.2024,6.077,6.4212,6.582,6.5846,6.5897,6.5897,6.5897,6.5897,6.5647,6.5263,6.5263,6.4743,6.3974,6.4022,6.3484,6.2694,0.0,5.6534,0.0,0.0,5.9746,0.0,0.0,6.3317,6.367,6.2211,6.2823,6.3405,6.3405,6.4255,6.4824,6.4824,6.4824,6.4824,6.4824,6.4824,6.4824,6.4824,6.4667,6.457,6.457,6.4394,6.2739,0.0,0.0,0.0,0.0,5.1638,0.0,0.0,0.0,0.0,0.0,0.0,6.5062,6.6502,6.6034,6.6229,6.6795,6.6795,6.6795,6.6795,6.6795,6.6795,6.6795,6.6795,6.6803,6.6797,6.6776,6.6692,6.6604,6.6583,6.6536,6.6508,6.6508,6.6003,6.5479,6.5479,6.4857,6.4255,6.4255,6.3595,6.2973,6.2973,6.2274,6.0858,5.8189,5.7568,0.0,0.0,0.0,0.0,0.0,0.0,0.0,0.0,0.0,0.0,0.0,0.0,0.0,0.0,0.0,0.0,0.0,0.0,0.0,0.0,0.0,6.0786,6.0864,0.0,6.0302,0.0,6.1732,6.2417,6.1094,6.4148,6.5673,6.5878,6.5705,6.5609,6.5628,6.582,6.5897,6.5897,6.5897,6.5474,6.4903,6.4951,6.444,6.3727,0.0,0.0,0.0,0.0,0.0,0.0,0.0,6.3477,6.4478,6.3837,6.4677,6.5346,6.5346,6.6073,6.6561,6.6561,6.6561,6.6561,6.6561,6.6561,6.6561,6.6561,6.5878,6.5487,6.5487,6.4707,6.336,0.0,0.0,0.0,0.0,0.0,0.0,0.0,0.0,0.0,0.0,6.348,6.4838,6.5761,6.6424,6.6737,6.6795,6.6795,6.6795,6.6795,6.6795,6.6795,6.6795,6.6795,6.6803,6.6796,6.6738,6.6654,6.6594,6.6528,6.6504,6.6508,6.6508,6.645,6.6373,6.6373,6.5732,6.5091,6.5091,6.4469,6.3886,6.3886,6.3187,6.1577,5.8286,5.9471,5.9911,0.0,0.0,0.0,0.0,0.0,0.0,0.0,0.0,0.0,0.0,0.0,0.0,0.0,0.0,0.0,0.0,0.0,0.0,5.8925,0.0,5.904,5.904,6.0463,0.0,5.9611,6.1504,6.2251,6.2031,6.3878,6.5147,6.5859,6.5051,6.4724,6.4782,6.557,6.5897,6.5897,6.5897,6.589,6.5881,6.5881,6.5369,6.4778,0.0,0.0,0.0,0.0,0.0,0.0,0.0,6.471,6.5232,6.5139,6.5757,6.6225,6.6302,6.66,6.6795,6.6795,6.6795,6.6795,6.6795,6.6795,6.6795,6.6795,6.6483,6.6327,6.6327,6.5975,6.4707,0.0,0.0,0.0,0.0,0.0,0.0,0.0,0.0,6.1751,6.2596,6.4838,6.5995,6.6346,6.6678,6.6795,6.6795,6.6795,6.6795,6.6795,6.6795,6.6795,6.6795,6.6795,6.6803,6.6796,6.6715,6.6654,6.6594,6.6514,6.6508,6.6508,6.6508,6.6508,6.6508,6.6508,6.6237,6.5984,6.5984,6.5324,6.4721,6.4721,6.3648,6.2134,6.0319,5.9941,5.9309,0.0,0.0,0.0,0.0,0.0,0.0,0.0,0.0,0.0,0.0,0.0,0.0,0.0,0.0,0.0,0.0,0.0,0.0,5.825,0.0,6.0192,6.0234,6.0692,6.0224,5.889,6.1081,6.1847,6.1377,6.3565,6.5045,6.584,6.4974,6.4897,6.5416,6.5763,6.5897,6.5897,6.5947,6.5972,6.6001,6.6052,6.5865,6.5636,6.2791,0.0,6.1709,0.0,6.3231,6.3074,6.4972,6.5369,6.5517,6.5741,6.607,6.6426,6.6713,6.6784,6.6795,6.6795,6.6795,6.6795,6.6795,6.6795,6.6795,6.6795,6.6795,0.0,6.6795,6.6795,6.5917,6.4121,6.2961,0.0,0.0,0.0,0.0,0.0,6.2213,6.3611,6.4238,6.6034,6.6795,6.6795,6.6795,6.6795,6.6795,6.6795,6.6795,6.6795,6.6795,6.6795,6.6795,6.6815,6.6836,6.6815,6.6745,6.6686,6.6626,6.6538,6.6528,6.6528,6.6508,6.6508,6.6508,6.6508,6.6508,6.6508,6.6508,6.6023,6.5518,6.5246,6.4265,6.3048,6.1744,6.0711,5.9698,5.8632,0.0,0.0,0.0,0.0,0.0,0.0,0.0,5.6308,5.6814,0.0,0.0,0.0,0.0,0.0,0.0,0.0,0.0,0.0,0.0,0.0,0.0,6.0608,6.0157,5.9027,6.106,6.1848,6.1584,6.3866,6.4981,6.5128,6.5032,6.5186,6.5532,6.5782,6.5923,6.5947,6.5996,6.6001,6.6048,6.6099,6.6102,6.6123,6.3429,6.3581,6.3846,6.4737,6.4869,6.4869,6.4888,6.5023,6.5175,6.5388,6.5532,6.5872,6.6532,6.672,6.6795,6.6795,6.6795,6.6795,6.6795,6.6795,6.6795,0.0,0.0,6.6795,6.6795,6.6795,6.6776,6.6756,0.0,0.0,6.2891,0.0,6.174,6.4219,6.4258,6.5194,6.6756,6.6795,6.6795,6.6795,6.6795,6.6795,6.6795,6.6795,6.6795,6.6795,6.6795,6.6795,6.6815,6.6873,6.6893,6.6887,6.6816,6.6756,6.6683,6.6625,6.6606,6.6586,6.6528,6.6508,6.6508,6.6508,6.6508,6.6508,6.6508,6.6489,6.6237,6.5382,6.5236,6.45,6.1958,6.2184,6.221,6.0536,0.0,0.0,0.0,0.0,0.0,0.0,5.5743,5.5879,5.7516,0.0,0.0,0.0,0.0,0.0,0.0,0.0,0.0,5.861,5.8542,0.0,5.8528,6.0046,6.0757,6.0666,6.1642,6.2488,6.322,6.5045,6.4955,6.3435,6.5147,6.5397,6.4686,6.5532,6.5947,6.5996,6.5996,6.6029,6.6102,6.6102,6.6144,6.6205,6.4453,6.449,6.4566,6.485,6.4907,6.4907,6.4907,6.4924,6.5023,6.5175,6.5498,6.5848,6.6144,6.6394,6.6605,0.0,6.6804,6.6795,0.0,6.6795,6.6795,6.6795,6.6795,6.6795,6.6795,6.6795,6.6795,6.6795,0.0,0.0,0.0,6.4199,6.4687,6.5995,6.5995,6.6307,6.6795,6.6795,6.6795,6.6795,6.6795,6.6795,6.6795,6.6795,6.6795,6.6795,6.6795,6.6824,6.6875,6.6895,6.6907,6.6898,6.6878,6.6816,6.675,6.67,6.6652,6.6606,6.6567,6.6528,6.6508,6.6508,6.6508,6.6508,6.6508,6.6508,6.6431,6.6139,6.5664,6.5045,6.4247,6.3346,6.2379,6.1353,6.0633,0.0,0.0,0.0,0.0,0.0,0.0,5.9113,0.0,6.0125,0.0,0.0,0.0,0.0,0.0,0.0,0.0,0.0,5.9409,0.0,6.019,6.0605,6.0469,5.9821,6.1324,6.2746,6.4084,6.4122,6.4474,6.507,6.5032,6.5186,6.5513,6.5832,6.5972,6.6001,6.6052,6.6077,6.6102,6.6144,6.6165,6.6205,6.4907,6.4907,6.4907,6.4907,6.4907,6.4907,6.4907,6.4907,6.4924,6.5023,6.536,6.5678,6.5862,6.6144,0.0,6.6775,6.6805,6.6804,6.6795,6.6795,6.6795,6.6795,6.6795,6.6795,6.6795,0.0,0.0,6.6795,6.6307,6.6053,6.6053,6.6053,6.6327,6.6795,6.6795,6.6795,6.6795,6.6795,6.6795,6.6795,6.6795,6.6795,6.6795,6.6795,6.6795,6.6795,6.6834,6.6863,6.6895,6.6901,6.6891,6.6893,6.6893,6.6875,6.6816,6.6758,6.6689,6.664,6.6616,6.6547,6.6508,6.6508,6.6508,6.6508,6.6508,6.6508,6.6508,6.6508,6.6111,6.5686,6.5356,6.4409,6.3332,6.226,6.1576,6.09,6.0098,0.0,0.0,0.0,0.0,0.0,0.0,6.0339,0.0,0.0,0.0,0.0,0.0,0.0,0.0,5.8919,6.0263,0.0,6.0923,6.0808,6.046,5.9849,6.1601,6.3162,6.4539,6.4353,6.4686,6.5397,6.5186,6.5422,6.5947,6.5996,6.6001,6.6029,6.608,6.6102,6.6144,6.6165,6.6205,6.6205,6.4907,6.4907,0.0,0.0,6.4907,0.0,6.4907,6.4907,6.4907,6.4907,6.5169,6.5398,6.568,6.5989,6.6388,6.6837,0.0,0.0,0.0,6.6795,6.6795,6.6795,6.6795,6.6795,6.6795,6.6795,6.6795,6.6795,6.68,6.68,6.6795,6.68,6.68,6.6795,6.6795,6.6795,6.6795,6.6795,6.6795,6.6795,6.6795,6.6795,6.6795,6.6795,6.6795,6.682,6.6878,6.6898,6.6902,6.6901,6.6895,6.6898,6.6898,6.6904,6.6894,6.6836,6.6758,6.6689,6.6639,6.6567,6.6508,6.6508,6.6508,6.6508,6.6508,6.6508,6.6508,6.6508,6.6558,6.6347,6.555,6.5336,6.4804,6.3331,6.2921,6.2541,6.1792,0.0,0.0,0.0,0.0,0.0,0.0,5.8451,5.8899,0.0,0.0,0.0,0.0,0.0,5.9554,6.0962,6.1002,6.0943,6.0781,6.0734,6.0737,6.0796,6.2375,6.3655,6.4724,6.5474,6.5378,6.4647,6.5513,6.5909,6.59,6.5982,6.6052,6.6102,6.6102,6.6163,6.6205,6.6205,6.6205,6.6205,0.0,0.0,6.4907,6.4907,6.4907,6.4907,6.4907,6.4907,6.4907,6.4907,6.5257,6.5548,6.5601,6.6068,6.6687,6.7496,6.7102,6.681,6.6798,6.6804,6.6795,6.6795,6.6795,6.6795,6.6795,6.6795,6.6795,6.6795,6.6806,6.6806,6.6795,6.6806,6.6806,6.6795,6.6795,6.6795,6.6795,6.6795,6.6795,6.6795,6.6795,6.6795,6.6795,6.6795,6.6805,6.6793,6.6813,6.6865,6.6892,6.6894,6.6893,6.6892,6.6892,6.6894,6.6894,6.6875,6.6834,6.6774,6.6757,6.6703,6.6644,6.6586,6.6547,6.6508,6.6508,6.6508,6.6508,6.6508,6.6508,6.648,6.6316,6.5706,6.5128,6.4847,6.3679,6.2733,6.2541,6.1987,0.0,0.0,6.0808,6.075,6.0964,6.0808,6.0136,0.0,0.0,0.0,0.0,5.8922,5.9698,6.1106,6.1058,6.0923,6.0729,6.071,6.1338,6.258,6.2983,6.4014,6.557,6.5128,6.4801,6.4647,6.5562,6.5611,6.5076,6.5762,6.6099,6.6102,6.6163,6.6184,6.6205,6.6205,6.6205,6.6184,6.4615,6.4781,6.4907,6.4907,6.4907,6.4907,6.4907,6.4907,6.504,6.54,6.5902,6.6384,6.6749,6.7289,6.7833,6.8346,6.7751,6.7519,6.7914,6.7969,6.7986,6.7986,6.7986,6.7791,6.74,6.7381,6.7205,6.6795,6.6793,6.6793,6.6795,6.6793,6.6791,6.6795,6.6795,6.6795,6.6795,6.6795,6.6795,6.6795,6.6795,6.6795,6.6795,6.6795,6.68,6.6809,6.6828,6.6875,6.6908,6.6894,6.6894,6.6894,6.6894,6.6894,6.6894,6.6894,6.6855,6.6793,6.681,6.6754,6.6696,6.6645,6.661,6.6583,6.6543,6.6549,6.6536,6.6504,6.6524,6.6572,6.6594,6.6178,6.5731,6.5407,6.4227,6.3223,6.2841,6.2084,0.0,6.1607,6.1607,6.1607,6.1607,6.1607,6.1032,5.9635,0.0,0.0,5.9554,5.9995,6.057,6.1272,6.112,6.0964,6.0789,6.1094,6.21,6.3777,6.3777,6.4539,6.5878,6.5416,6.4974,6.4647,6.5587,6.5519,6.481,6.573,6.6123,6.6144,6.6184,6.6205,6.6205,6.6102,6.6061,6.5978,6.4742,6.4974,6.5196,6.5286,6.5286,6.5286,6.5286,6.5286,6.5549,6.6248,6.6853,6.7462,6.818,6.8762,6.9134,6.927,6.8715,6.8612,6.9244,6.9348,6.9386,6.9391,6.9382,6.9035,6.8288,6.8269,6.7844,6.6985,6.6971,6.6912,6.6809,6.6795,6.6795,6.6809,6.68,6.6795,6.6795,6.6795,6.6795,6.6795,6.6795,6.6795,6.6795,6.6795,6.6795,6.6815,6.6854,6.6893,6.6902,6.689,6.6894,6.6894,6.6894,6.6894,6.6894,6.6894,6.6855,6.6816,6.6824,6.6772,6.672,6.6713,6.6714,6.6687,6.6633,6.6605,6.6583,6.6528,6.6553,6.6606,6.6606,6.6606,6.627,6.529,6.4604,6.3871,6.293,0.0,6.1724,6.1783,6.1685,6.1607,6.1607,6.1588,6.1606,6.1603,6.1603,6.1612,0.0,6.1607,6.1526,6.1381,6.12,6.1074,6.1051,6.1881,6.3034,6.4488,6.4648,6.5135,6.5897,6.5897,6.5416,6.4672,6.5611,6.5543,6.4878,6.5773,6.6144,6.6185,6.6009,6.6028,6.6104,6.5615,6.5543,6.5499,6.6274,6.6497,6.6634,6.6955,6.7011,6.7011,6.7011,6.7011,6.7119,6.7496,6.7822,6.8155,6.851,6.882,6.9315,7.0052,7.0062,6.9804,6.9255,6.9283,6.9341,6.9391,6.9347,6.9257,6.912,6.9101,6.8691,6.7812,6.7802,6.747,6.6796,6.6747,6.6747,6.6795,6.6793,6.6795,6.6795,6.6795,6.6795,6.6795,6.6795,6.6795,6.6795,6.6795,6.6795,6.6795,6.6815,6.6854,6.6898,6.6901,6.6892,6.6894,6.6894,6.6894,6.6894,6.6894,6.6889,6.6887,6.6878,6.6836,6.6787,6.6784,6.6735,6.6697,6.6687,6.6631,6.6604,6.6594,6.6581,6.6606,6.6606,6.6606,6.6102,6.4539,6.473,6.4563,6.3018,0.0,6.2698,6.2698,6.2055,6.1607,6.1607,6.1606,6.1603,6.1607,6.1595,6.1615,6.1673,6.1621,6.1509,6.1324,6.1182,6.1312,6.1735,6.329,6.4238,6.4507,6.5314,6.5763,6.5897,6.5897,6.5441,6.4744,6.562,6.5592,6.4962,6.5816,6.6205,6.6088,6.5141,6.5269,6.575,6.3981,6.3871,6.4389,6.6287,6.6547,6.6814,6.7316,6.739,6.739,6.739,6.739,6.7667,6.84,6.8743,6.9188,6.991,7.0234,7.0555,7.0962,7.1027,7.0893,7.057,7.0619,7.047,7.0113,7.0441,7.043,6.9967,6.9495,6.9046,6.8655,6.8645,6.8457,6.807,6.7625,6.7422,6.7422,6.6992,6.6795,6.6795,6.6795,6.6795,6.6795,6.6795,6.6795,6.6795,6.6795,6.6795,6.6795,6.6795,6.6815,6.6859,6.6898,6.6906,6.6892,6.6892,6.6892,6.689,6.6904,6.6904,6.6901,6.6902,6.6875,6.685,6.685,6.6794,6.6758,6.6752,6.6738,6.6692,6.6661,6.6634,6.6591,6.6599,6.6607,6.6347,6.5531,6.5343,0.0,0.0,6.3088,6.2689,6.225,6.1841,6.1607,6.1607,6.1597,6.1595,6.16,6.16,6.16,6.1627,6.1619,6.151,6.1298,6.1518,6.196,6.2574,6.3873,6.4744,6.525,6.5705,6.5897,6.5897,6.5947,6.5491,6.4744,6.5646,6.5616,6.4962,6.5836,6.5833,6.5241,6.4701,6.4411,6.4154,6.3122,6.3045,6.3284,6.6593,6.6999,6.7398,6.7884,6.7977,6.7977,6.7977,6.7977,6.8348,6.9355,6.9664,7.0163,7.118,7.1472,7.1598,7.1598,7.1598,7.163,7.1685,7.1738,7.1429,7.0702,7.1208,7.1261,7.0762,7.0114,6.9673,6.9478,6.947,6.9382,6.9185,6.856,6.8277,6.8239,6.7445,6.7107,6.7088,6.6893,6.6795,6.6795,6.6795,6.6795,6.6795,6.6795,6.6795,6.6795,6.6795,6.6795,6.682,6.6856,6.6881,6.6904,6.6898,6.6901,6.6901,6.6902,6.6898,6.691,6.6883,6.6878,6.6878,6.6873,6.6834,6.6805,6.6791,6.6796,6.6796,6.6722,6.6661,6.6611,6.6605,6.6599,6.6452,6.6003,0.0,0.0,0.0,6.3214,6.2601,6.1977,6.1724,6.1607,6.1607,6.1597,6.1606,6.1603,6.1603,6.1603,6.1603,6.1595,6.1578,6.1583,6.2124,6.2775,6.3489,6.4379,6.5193,6.5897,6.5897,6.5897,6.5923,6.5972,6.5635,6.5061,6.5788,6.5616,6.4861,6.5541,6.5141,6.4072,6.3809,6.3357,6.2749,6.2185,6.2237,6.249,6.8304,6.8809,6.9212,6.9645,6.9721,6.9721,6.9721,6.9721,6.9957,7.0594,7.0679,7.0932,7.1508,7.1598,7.1598,7.1598,7.1598,7.163,7.1685,7.1661,7.1297,7.0635,7.0595,7.0893,7.1509,7.1517,7.1126,7.0316,7.0316,6.9927,6.9197,6.9146,6.9098,6.9089,6.8332,6.8005,6.7947,6.7146,6.6795,6.6795,6.6795,6.6795,6.6795,6.6795,6.6795,6.6795,6.6795,6.6795,6.6795,6.682,6.6852,6.6901,6.6902,6.6891,6.6901,6.6902,6.6898,6.6898,6.6815,6.6805,6.6813,6.682,6.6795,6.6795,6.68,6.6808,6.6797,6.6797,6.675,6.6673,6.6615,6.6605,6.6089,6.4539,0.0,0.0,6.3194,6.2929,6.2874,6.2815,6.2094,6.1607,6.1607,6.1606,6.1603,6.1603,6.1603,6.1603,6.1603,6.1606,6.1846,6.238,6.3052,6.3711,6.4392,6.5333,6.584,6.5897,6.5897,6.5947,6.5996,6.5996,6.6009,6.5983,6.6082,6.5492,6.4523,6.46,6.395,6.2835,6.1835,6.1926,6.2401,6.0643,6.1012,6.2307,6.829,6.8825,6.934,6.9834,6.9891,6.9891,6.9891,6.9891,7.0128,7.0719,7.0802,7.099,7.1545,7.1598,7.1598,7.1598,7.1598,7.1614,7.1645,7.1614,7.1271,7.0518,6.9967,7.0061,7.0839,7.1379,7.1476,7.1145,7.1145,7.099,7.0679,7.018,6.997,6.9977,6.9199,6.8873,6.8845,6.7986,6.7615,6.7556,6.701,6.6795,6.6795,6.6795,6.6795,6.6795,6.6795,6.6795,6.6795,6.6795,6.6824,6.6848,6.6898,6.6863,6.6848,6.6839,6.6834,6.6834,6.6815,6.68,6.6805,6.68,6.6795,6.6795,6.6795,6.6789,6.68,6.68,6.6756,6.6683,6.6661,6.6634,6.6197,6.5053,0.0,6.478,6.3078,6.2883,6.2698,6.2153,6.1802,6.1607,6.1607,6.1597,6.1597,6.1597,6.1597,6.184,6.2383,6.2835,6.3378,6.4026,6.4213,6.4395,6.4564,6.5455,6.5923,6.5972,6.5972,6.5977,6.5986,6.6032,6.6077,6.6063,6.5392,6.4902,6.4508,6.3803,6.2881,6.1838,6.1424,6.1413,6.1515,6.0808,6.1319,6.2239,6.8222,6.8852,6.9442,6.9834,6.9891,6.9891,6.9891,6.9891,7.0128,7.0719,7.0802,7.099,7.1545,7.1598,7.1598,7.1598,7.1598,7.1598,7.1598,7.1136,7.0706,7.0416,6.9639,6.9613,7.0408,7.1213,7.1633,7.1633,7.1614,7.1598,7.1578,7.1076,7.0862,7.0875,7.0095,6.9779,6.9742,6.8884,6.8513,6.8435,6.7556,6.7205,6.7185,6.6893,6.6795,6.6795,6.6795,6.6795,6.6795,6.6795,6.6795,6.6815,6.6854,6.6834,6.6795,6.6795,6.6795,6.6795,6.6795,6.6795,6.6795,6.6795,6.6795,6.6795,6.6795,6.6795,6.6795,6.6795,6.6757,6.6719,6.6696,6.6427,6.603,6.5426,6.4924,6.4176,6.2999,6.265,6.227,6.1666,6.1607,6.1607,6.1607,6.1607,6.1607,6.1607,6.185,6.2376,6.3205,6.392,6.4503,6.4924,6.5082,6.5126,6.5037,6.5615,6.5953,6.5982,6.5982,6.6009,6.6036,6.608,6.5925,6.5569,6.5129,6.4545,6.3898,6.3389,6.2391,6.121,6.1508,6.1359,6.1039,6.1338,6.1997,6.2583,6.8301,6.9152,6.9891,6.9891,6.9891,6.9891,6.9891,6.9891,7.0128,7.0719,7.0802,7.099,7.1545,7.1598,7.1598,7.1598,7.1598,7.1598,7.1598,7.0088,6.9568,7.0357,6.9689,6.9664,7.0466,7.1276,7.168,7.1699,7.1614,7.1598,7.1598,7.1736,7.1796,7.1778,7.1034,7.0712,7.066,6.9782,6.9411,6.9333,6.8454,6.8103,6.8025,6.7146,6.6815,6.6815,6.6795,6.6795,6.6795,6.6795,6.6795,6.6795,6.6795,6.6795,6.6795,6.6795,6.6795,6.6795,6.6795,6.6795,6.6795,6.6795,6.6795,6.6795,6.6795,6.6795,6.6795,6.6795,6.6789,6.6776,6.6683,6.5985,6.5406,6.5375,6.3943,6.2824,6.2893,6.2153,6.1607,6.1607,6.1607,6.1607,6.1607,6.1607,6.1607,6.1627,6.2433,6.3234,6.3955,6.4644,6.4945,6.4827,6.5515,6.5947,6.5996,6.5996,6.5982,6.6013,6.6013,6.6036,6.6102,6.6102,6.5511,6.4556,6.5471,6.4573,6.2572,6.3435,6.2644,6.0993,6.193,6.1776,6.1114,6.2069,6.2917,6.3397,6.8301,6.9152,6.9891,6.9891,6.9891,6.9891,6.9891,6.9891,7.0128,7.0719,7.0802,7.099,7.1545,7.1598,7.1598,7.1598,7.1603,7.1605,7.1605,7.0097,6.9314,6.9549,6.8845,6.8819,6.9636,7.0408,7.1077,7.1699,7.1614,7.1598,7.1598,7.169,7.1749,7.1792,7.1623,7.1562,7.1558,7.0679,7.0309,7.025,6.9352,6.9001,6.8923,6.8044,6.7712,6.7634,6.701,6.6795,6.6795,6.6795,6.6795,6.6795,6.6795,6.6795,6.6795,6.6795,6.6795,6.6795,6.6795,6.6795,6.6795,6.6795,6.6795,6.6795,6.6795,6.6332,6.5894,6.5894,6.5807,6.5569,6.4977,6.5123,6.4955,6.3828,6.3215,6.2669,6.2075,6.1763,6.1607,6.1607,6.1607,6.185,6.2453,6.2511,6.2773,6.3374,6.413,6.4685,6.4905,6.5455,6.5761,6.572,6.5874,6.5977,6.6009,6.6001,6.6005,6.608,6.608,6.6102,6.6146,6.5357,6.5168,6.5414,6.4106,6.3528,6.3511,6.2981,6.2429,6.1997,6.2243,6.2008,6.1525,6.1919,6.2015,6.1818,6.8301,6.9152,6.9891,6.9891,6.9891,6.9891,6.9891,6.9891,7.0128,7.0719,7.0802,7.099,7.1545,7.1598,7.1598,7.1598,7.16,7.1469,7.1143,7.0253,6.9441,6.8797,6.8359,6.8513,6.9327,7.008,7.0881,7.1743,7.1665,7.1649,7.1649,7.1684,7.1736,7.1792,7.1865,7.1933,7.1968,7.1441,7.1206,7.1148,7.027,6.9918,6.9821,6.8942,6.8396,6.8025,6.7498,6.7088,6.6795,6.6795,6.6795,6.6795,6.6795,6.6795,6.6795,6.6795,6.6795,6.6795,6.6795,6.6795,6.6795,6.6795,6.6795,6.6795,6.6795,6.6393,6.5917,6.5566,6.5663,6.5455,6.4306,6.4481,6.4368,6.3117,6.2601,6.2192,6.1666,6.1909,6.2113,6.2113,6.2414,6.2832,6.3355,6.3413,6.3756,6.4567,6.4963,6.5303,6.5591,6.5951,6.6127,6.6041,6.6032,6.6009,6.6036,6.6032,6.6055,6.6144,6.6144,6.6144,6.6166,6.5411,6.5134,6.5167,6.4035,6.3663,6.3783,6.3467,6.3132,6.2845,6.274,6.2351,6.1789,6.1769,6.1574,6.1218,6.835,6.9195,6.9891,6.9891,6.9891,6.9891,6.9891,6.9891,7.0128,7.0719,7.0802,7.099,7.1545,7.1598,7.1598,7.1598,7.1598,7.1292,7.0562,7.0499,6.9859,6.8386,6.8238,6.8577,6.9386,7.0112,7.0918,7.1809,7.1743,7.1699,7.1699,7.1699,7.1736,7.1792,7.1865,7.1933,7.2007,7.2007,7.2007,7.1929,7.1148,7.0816,7.0718,6.984,6.902,6.8318,6.8161,6.7595,6.6893,6.6834,6.6795,6.6795,6.6795,6.6795,6.6795,6.6795,6.6795,6.6795,6.6795,6.6795,6.6795,6.6795,6.68,6.68,6.68,6.6745,6.6445,6.5644,6.6014,6.6009,6.4396,6.4111,6.3881,6.3137,6.2348,6.1822,6.1822,6.2511,6.3015,6.3015,6.3714,6.4235,6.4313,6.4384,6.4692,6.5375,6.5222,6.5407,6.607,6.6167,6.6125,6.6001,6.6009,6.6036,6.6102,6.6102,6.6144,6.6205,6.6205,6.6205,6.6165,6.5894,6.5205,6.4317,6.4825,6.451,6.3703,6.455,6.436,6.353,6.3276,6.2636,6.1751,6.1553,6.1431,6.1237,6.8852,6.9442,6.9891,6.9891,6.9891,6.9891,6.9891,6.9891,7.0128,7.0719,7.0802,7.099,7.1545,7.1598,7.1598,7.1598,7.1603,7.1529,7.1337,7.0817,7.0344,6.998,6.8846,6.858,6.9385,6.9519,7.0314,7.179,7.1743,7.1699,7.1699,7.1699,7.1736,7.1792,7.1865,7.1933,7.2007,7.2007,7.2007,7.1987,7.1792,7.1714,7.1616,7.0757,7.0309,6.9957,6.8591,6.7986,6.7712,6.7029,6.6795,6.6795,6.6795,6.6795,6.6795,6.6795,6.6795,6.6795,6.6795,6.6795,6.6795,6.6795,6.6797,6.6808,6.6808,6.623,6.5648,6.5463,6.5513,6.5286,6.4276,6.4655,6.4819,6.3974,6.373,6.3642,6.3642,6.3803,6.3916,6.3916,6.4072,6.4469,6.5146,6.5745,6.6157,6.6312,6.6085,6.6012,6.6167,6.6102,6.6032,6.6009,6.599,6.6036,6.6102,6.6144,6.6184,6.6205,6.6205,6.6123,6.5928,6.5013,6.4709,6.494,6.421,6.4133,6.4607,6.4832,6.4234,6.3276,6.3201,6.2286,6.0976,6.0995,6.0811,6.0441,6.8985,6.9542,6.9891,6.9891,6.9891,7.0024,7.0403,7.0138,7.0261,7.1238,7.1052,7.099,7.1545,7.1598,7.1598,7.1598,7.16,7.1603,7.1603,7.1307,7.0935,7.0521,6.9784,6.9577,6.9965,6.9938,7.0336,7.1229,7.1543,7.1709,7.1709,7.1665,7.1686,7.1765,7.1825,7.1888,7.1939,7.1997,7.2007,7.2007,7.2007,7.2007,7.1948,7.1499,7.107,7.0523,6.9196,6.8181,6.74,6.6951,6.6795,6.6795,6.6795,6.6795,6.6795,6.6795,6.6809,6.68,6.68,6.6808,6.6794,6.6794,6.6797,6.6797,6.6795,6.64,6.5892,6.5484,6.5709,6.5586,6.4334,6.4802,6.5124,6.4285,6.4185,6.4193,6.4193,6.4567,6.4808,6.4808,6.5185,6.5595,6.5995,6.6301,6.6452,6.6417,6.6225,6.6104,6.6104,6.6032,6.5986,6.6013,6.6036,6.608,6.6144,6.5655,6.5614,6.6058,6.6058,6.5735,6.5064,6.4805,6.4886,6.5163,6.4465,6.4455,6.4907,6.4745,6.4313,6.3709,6.296,6.2135,6.131,6.0822,6.0525,6.0304,6.9152,6.9582,6.9891,6.9891,7.0005,7.027,7.0801,7.0498,7.0579,7.166,7.1233,7.1058,7.1545,7.1598,7.1598,7.1598,7.1598,7.1598,7.1598,7.1701,7.1465,7.0753,7.0692,7.0655,7.06,7.06,7.0678,7.0804,7.1427,7.1699,7.1699,7.1656,7.1654,7.1712,7.178,7.1847,7.1912,7.1987,7.2007,7.2007,7.2007,7.2007,7.2007,7.2007,7.1558,7.0797,6.9762,6.8279,6.6795,6.6795,6.6795,6.6795,6.6795,6.6795,6.6795,6.68,6.68,6.6794,6.6795,6.6795,6.6806,6.6806,6.6784,6.6787,6.6777,6.6742,6.6492,6.5761,6.6205,6.6262,6.4812,6.5144,6.5416,6.4755,6.4645,6.4645,6.4645,6.5263,6.5725,6.5725,6.633,6.6713,6.6555,6.6392,6.6254,6.6205,6.608,6.6025,6.6025,6.6009,6.6036,6.6036,6.608,6.6123,6.6144,6.5215,6.5018,6.5551,6.5705,6.5287,6.4393,6.4951,6.5182,6.5136,6.4974,6.4872,6.4781,6.4521,6.4232,6.3866,6.2587,6.2058,6.1911,6.1103,6.0823,6.0823,6.9699,6.9834,6.9891,6.9891,7.0479,7.0725,7.0138,7.0813,7.1267,7.0997,7.1067,7.1278,7.1581,7.1598,7.1598,7.1598,7.1598,7.1598,7.1598,7.1673,7.169,7.1622,7.0972,7.0616,7.06,7.06,7.0932,7.1641,7.1743,7.1764,7.1699,7.1755,7.1779,7.178,7.1866,7.1911,7.1997,7.1993,7.2007,7.2007,7.2007,7.2007,7.2007,7.2007,7.1929,7.1616,6.9977,6.8279,6.6795,6.6795,6.6795,6.6795,6.6798,6.6798,6.6804,6.6797,6.6803,6.6791,6.6794,6.6808,6.6806,6.6806,6.677,6.6706,6.6712,6.6706,6.6661,6.6537,6.6615,6.6624,6.639,6.6486,6.658,6.6471,6.6447,6.646,6.646,6.655,6.6619,6.6619,6.6627,6.6555,6.6358,6.6273,6.6205,6.6206,6.6125,6.6099,6.6099,6.608,6.6102,6.6165,6.6123,6.6058,6.5947,6.5784,6.516,6.4088,6.4913,6.5199,6.5073,6.5156,6.5104,6.4924,6.4888,6.4745,6.4444,6.4405,6.3615,6.2387,6.2186,6.1939,6.1746,6.2273,6.2493,6.2493,6.9796,6.9891,6.9891,6.9891,7.0176,7.046,7.0555,7.0734,7.1013,7.142,7.1304,7.1299,7.1562,7.1598,7.1598,7.1598,7.1598,7.1598,7.1598,7.1667,7.1731,7.1812,7.1504,7.1334,7.1341,7.133,7.1487,7.1814,7.179,7.1764,7.1699,7.1778,7.177,7.1757,7.1847,7.1912,7.1945,7.1983,7.2007,7.2007,7.2007,7.2007,7.2007,7.2007,7.2007,7.1772,7.0035,6.8591,6.7459,6.696,6.6804,6.6804,6.6805,6.6809,6.6797,6.6796,6.6775,6.6745,6.675,6.6745,6.6739,6.6739,6.6725,6.67,6.67,6.67,6.6692,6.6702,6.6693,6.6711,6.6748,6.6783,6.6805,6.6792,6.6804,6.6804,6.6804,6.679,6.6765,6.6705,6.6672,6.6552,6.6273,6.626,6.6225,6.6147,6.6123,6.6102,6.6102,6.6102,6.6102,6.6144,6.6013,6.5924,6.59,6.5126,6.4679,6.4578,6.4339,6.4253,6.4272,6.478,6.4974,6.4907,6.4907,6.4708,6.4366,6.4206,6.363,6.278,6.2593,6.2401,6.231,6.2677,6.2805,6.2805]},{"header":{"parameterUnit":"m.s-1","parameterCategory":1,"la1":30.6,"la2":28.766,"lo1":-90.7593,"lo2":-88.6598,"dy":0.0162,"dx":0.0183,"nx":116,"ny":114,"refTime":"2024-03-12T12:00:00:Z","depth":0,"parameterNumber":3,"parameterNumberName":"V-component_of_WINDS"},"data":[0.0,0.0,0.0,0.0,0.0,0.0,0.0,0.0,0.0,0.0,0.0,0.0,0.0,0.0,0.0,0.0,0.0,0.0,0.0,0.0,0.0,0.0,0.0,0.0,0.0,0.0,0.0,0.0,0.0,0.0,0.0,0.0,0.0,0.0,0.0,0.0,0.0,0.0,0.0,0.0,0.0,0.0,0.0,0.0,0.0,0.0,0.0,0.0,0.0,0.0,0.0,0.0,0.0,0.0,0.0,0.0,0.0,0.0,0.0,0.0,0.0,0.0,0.0,0.0,0.0,0.0,0.0,0.0,0.0,0.0,0.0,0.0,0.0,0.0,0.0,0.0,0.0,0.0,0.0,0.0,0.0,0.0,0.0,0.0,0.0,0.0,0.0,0.0,0.0,0.0,0.0,0.0,0.0,0.0,0.0,0.0,0.0,0.0,0.0,0.0,0.0,0.0,0.0,0.0,0.0,0.0,0.0,0.0,0.0,0.0,0.0,0.0,0.0,0.0,0.0,0.0,0.0,0.0,0.0,0.0,0.0,0.0,0.0,0.0,0.0,0.0,0.0,0.0,0.0,0.0,0.0,0.0,0.0,0.0,0.0,0.0,0.0,0.0,0.0,0.0,0.0,0.0,0.0,0.0,0.0,0.0,0.0,0.0,0.0,0.0,0.0,0.0,0.0,0.0,0.0,0.0,0.0,0.0,0.0,0.0,0.0,0.0,0.0,0.0,0.0,0.0,0.0,0.0,0.0,0.0,0.0,0.0,0.0,0.0,0.0,0.0,0.0,0.0,0.0,0.0,0.0,0.0,0.0,0.0,0.0,0.0,0.0,0.0,0.0,0.0,0.0,0.0,0.0,0.0,0.0,0.0,0.0,0.0,0.0,0.0,0.0,0.0,0.0,0.0,0.0,0.0,0.0,0.0,0.0,0.0,0.0,0.0,0.0,0.0,0.0,0.0,0.0,0.0,0.0,0.0,0.0,0.0,0.0,0.0,0.0,0.0,0.0,0.0,0.0,0.0,0.0,0.0,0.0,0.0,0.0,0.0,0.0,0.0,0.0,0.0,0.0,0.0,0.0,0.0,0.0,0.0,0.0,0.0,0.0,0.0,0.0,0.0,0.0,0.0,0.0,0.0,0.0,0.0,0.0,0.0,0.0,0.0,0.0,0.0,0.0,0.0,0.0,0.0,0.0,0.0,0.0,0.0,0.0,0.0,0.0,0.0,0.0,0.0,0.0,0.0,0.0,0.0,0.0,0.0,0.0,0.0,0.0,0.0,0.0,0.0,0.0,0.0,0.0,0.0,0.0,0.0,0.0,0.0,0.0,0.0,0.0,0.0,0.0,0.0,0.0,0.0,0.0,0.0,0.0,0.0,0.0,0.0,0.0,0.0,0.0,0.0,0.0,0.0,0.0,0.0,0.0,0.0,0.0,0.0,0.0,0.0,0.0,0.0,0.0,0.0,0.0,0.0,0.0,0.0,0.0,0.0,0.0,0.0,0.0,0.0,0.0,0.0,0.0,0.0,0.0,0.0,0.0,0.0,0.0,0.0,0.0,0.0,0.0,0.0,0.0,0.0,0.0,0.0,0.0,0.0,0.0,0.0,0.0,0.0,0.0,0.0,0.0,0.0,0.0,0.0,0.0,0.0,0.0,0.0,0.0,0.0,0.0,0.0,0.0,0.0,0.0,0.0,0.0,0.0,0.0,0.0,0.0,0.0,0.0,0.0,0.0,0.0,0.0,0.0,0.0,0.0,0.0,0.0,0.0,0.0,0.0,0.0,0.0,0.0,0.0,0.0,0.0,0.0,0.0,0.0,0.0,0.0,0.0,0.0,0.0,0.0,0.0,0.0,0.0,0.0,0.0,0.0,0.0,0.0,0.0,0.0,0.0,0.0,0.0,0.0,0.0,0.0,0.0,0.0,0.0,0.0,0.0,0.0,0.0,0.0,0.0,0.0,0.0,0.0,0.0,0.0,0.0,0.0,0.0,0.0,0.0,0.0,0.0,0.0,0.0,0.0,0.0,0.0,0.0,0.0,0.0,0.0,0.0,0.0,0.0,0.0,0.0,0.0,0.0,0.0,0.0,0.0,0.0,0.0,0.0,0.0,0.0,0.0,0.0,0.0,0.0,0.0,0.0,0.0,0.0,0.0,0.0,0.0,0.0,0.0,0.0,0.0,0.0,0.0,0.0,0.0,0.0,0.0,0.0,0.0,0.0,0.0,0.0,0.0,0.0,0.0,0.0,0.0,0.0,0.0,0.0,0.0,0.0,0.0,0.0,0.0,0.0,0.0,0.0,0.0,0.0,0.0,0.0,0.0,0.0,0.0,0.0,0.0,0.0,0.0,0.0,0.0,0.0,0.0,0.0,0.0,0.0,0.0,0.0,0.0,0.0,0.0,0.0,0.0,0.0,0.0,0.0,0.0,0.0,0.0,0.0,0.0,0.0,0.0,0.0,0.0,0.0,0.0,0.0,0.0,0.0,0.0,0.0,0.0,0.0,0.0,0.0,0.0,0.0,0.0,0.0,0.0,0.0,0.0,0.0,0.0,0.0,0.0,0.0,0.0,0.0,0.0,0.0,0.0,0.0,0.0,0.0,0.0,0.0,0.0,0.0,0.0,0.0,0.0,0.0,0.0,0.0,0.0,0.0,0.0,0.0,0.0,0.0,0.0,0.0,0.0,0.0,0.0,0.0,0.0,0.0,0.0,0.0,0.0,0.0,0.0,0.0,0.0,0.0,0.0,0.0,0.0,0.0,0.0,0.0,0.0,0.0,0.0,0.0,0.0,0.0,0.0,0.0,0.0,0.0,0.0,0.0,0.0,0.0,0.0,0.0,0.0,0.0,0.0,0.0,0.0,0.0,0.0,0.0,0.0,0.0,0.0,0.0,0.0,0.0,0.0,0.0,0.0,0.0,0.0,0.0,0.0,0.0,0.0,0.0,0.0,0.0,0.0,0.0,0.0,0.0,0.0,0.0,0.0,0.0,0.0,0.0,0.0,0.0,0.0,0.0,0.0,0.0,0.0,0.0,0.0,0.0,0.0,0.0,0.0,0.0,0.0,0.0,0.0,0.0,0.0,0.0,0.0,0.0,0.0,0.0,0.0,0.0,0.0,0.0,0.0,0.0,0.0,0.0,0.0,0.0,0.0,0.0,0.0,0.0,0.0,0.0,0.0,0.0,0.0,0.0,0.0,0.0,0.0,0.0,0.0,0.0,0.0,0.0,0.0,0.0,0.0,0.0,0.0,0.0,0.0,0.0,0.0,0.0,0.0,0.0,0.0,0.0,0.0,0.0,0.0,0.0,0.0,0.0,0.0,0.0,0.0,0.0,0.0,0.0,0.0,0.0,0.0,0.0,0.0,0.0,0.0,0.0,0.0,0.0,0.0,0.0,0.0,0.0,0.0,0.0,0.0,0.0,0.0,0.0,0.0,0.0,0.0,0.0,0.0,0.0,0.0,0.0,0.0,0.0,0.0,0.0,0.0,0.0,0.0,0.0,0.0,0.0,0.0,0.0,0.0,0.0,0.0,0.0,0.0,0.0,0.0,0.0,0.0,0.0,0.0,0.0,0.0,0.0,0.0,0.0,0.0,0.0,0.0,0.0,0.0,0.0,0.0,0.0,0.0,0.0,0.0,0.0,0.0,0.0,0.0,0.0,0.0,0.0,0.0,0.0,0.0,0.0,0.0,0.0,0.0,0.0,0.0,0.0,0.0,0.0,0.0,0.0,0.0,0.0,0.0,0.0,0.0,0.0,0.0,0.0,0.0,0.0,0.0,0.0,0.0,0.0,0.0,0.0,0.0,0.0,0.0,0.0,0.0,0.0,0.0,0.0,0.0,0.0,0.0,0.0,0.0,0.0,0.0,0.0,0.0,0.0,0.0,0.0,0.0,0.0,0.0,0.0,0.0,0.0,0.0,0.0,0.0,0.0,0.0,0.0,0.0,0.0,0.0,0.0,0.0,0.0,0.0,0.0,0.0,0.0,0.0,0.0,0.0,0.0,0.0,0.0,0.0,0.0,0.0,0.0,0.0,0.0,0.0,0.0,0.0,0.0,0.0,0.0,0.0,0.0,0.0,0.0,0.0,0.0,0.0,0.0,0.0,0.0,0.0,0.0,0.0,0.0,0.0,0.0,0.0,0.0,0.0,0.0,0.0,0.0,0.0,0.0,0.0,0.0,0.0,0.0,0.0,0.0,0.0,0.0,0.0,0.0,0.0,0.0,0.0,0.0,0.0,0.0,0.0,0.0,0.0,0.0,0.0,0.0,0.0,0.0,0.0,0.0,0.0,0.0,0.0,0.0,0.0,0.0,0.0,0.0,0.0,0.0,0.0,0.0,0.0,0.0,0.0,0.0,0.0,0.0,0.0,0.0,0.0,0.0,0.0,0.0,0.0,0.0,0.0,0.0,0.0,0.0,0.0,0.0,0.0,0.0,0.0,0.0,0.0,0.0,0.0,0.0,0.0,0.0,0.0,0.0,0.0,0.0,0.0,0.0,0.0,0.0,0.0,0.0,0.0,0.0,0.0,0.0,0.0,0.0,0.0,0.0,0.0,0.0,0.0,0.0,0.0,0.0,0.0,0.0,0.0,0.0,0.0,0.0,0.0,0.0,0.0,0.0,0.0,0.0,0.0,0.0,0.0,0.0,0.0,0.0,0.0,0.0,0.0,0.0,0.0,0.0,0.0,0.0,0.0,0.0,0.0,0.0,0.0,0.0,0.0,0.0,0.0,0.0,0.0,0.0,0.0,0.0,0.0,0.0,0.0,0.0,0.0,0.0,0.0,0.0,0.0,0.0,0.0,0.0,0.0,0.0,0.0,0.0,0.0,0.0,0.0,0.0,0.0,0.0,0.0,0.0,0.0,0.0,0.0,0.0,0.0,0.0,0.0,0.0,0.0,0.0,0.0,0.0,0.0,0.0,0.0,0.0,0.0,0.0,0.0,0.0,0.0,0.0,0.0,0.0,0.0,0.0,0.0,0.0,0.0,0.0,0.0,0.0,0.0,0.0,0.0,0.0,0.0,0.0,0.0,0.0,0.0,0.0,0.0,0.0,0.0,0.0,0.0,0.0,0.0,0.0,0.0,0.0,0.0,0.0,0.0,0.0,0.0,0.0,0.0,0.0,0.0,0.0,0.0,0.0,0.0,0.0,0.0,0.0,0.0,0.0,0.0,0.0,0.0,0.0,0.0,0.0,0.0,0.0,0.0,0.0,0.0,0.0,0.0,0.0,0.0,0.0,0.0,0.0,0.0,0.0,0.0,0.0,0.0,0.0,0.0,0.0,0.0,0.0,0.0,0.0,0.0,0.0,0.0,0.0,0.0,0.0,0.0,0.0,0.0,0.0,0.0,0.0,0.0,0.0,0.0,0.0,0.0,0.0,0.0,0.0,0.0,0.0,0.0,0.0,0.0,0.0,0.0,0.0,0.0,0.0,0.0,0.0,0.0,0.0,0.0,0.0,0.0,0.0,0.0,0.0,0.0,0.0,0.0,0.0,0.0,0.0,0.0,0.0,0.0,0.0,0.0,0.0,0.0,0.0,0.0,0.0,0.0,0.0,0.0,0.0,0.0,0.0,0.0,0.0,0.0,0.0,0.0,0.0,0.0,0.0,0.0,0.0,0.0,0.0,0.0,0.0,0.0,0.0,0.0,0.0,0.0,0.0,0.0,0.0,0.0,0.0,0.0,0.0,0.0,0.0,0.0,0.0,0.0,0.0,0.0,0.0,0.0,0.0,0.0,0.0,0.0,0.0,0.0,0.0,0.0,0.0,0.0,0.0,0.0,0.0,0.0,0.0,0.0,0.0,0.0,0.0,0.0,0.0,0.0,0.0,0.0,0.0,0.0,0.0,0.0,0.0,0.0,0.0,0.0,0.0,0.0,0.0,0.0,0.0,0.0,0.0,0.0,0.0,0.0,0.0,0.0,0.0,0.0,0.0,0.0,0.0,0.0,0.0,0.0,0.0,0.0,0.0,0.0,0.0,0.0,0.0,0.0,0.0,0.0,0.0,0.0,0.0,0.0,0.0,0.0,0.0,0.0,0.0,0.0,0.0,0.0,0.0,0.0,0.0,0.0,0.0,0.0,0.0,0.0,0.0,0.0,0.3842,0.0,0.0,0.0,0.0,0.0,0.0,0.0,0.0,0.0,0.0,0.0,0.0,0.0,0.0,0.0,0.0,0.0,0.0,0.0,0.0,0.0,0.0,0.0,0.0,0.0,0.0,0.0,0.1639,0.1639,0.1821,0.1876,0.2021,0.2261,0.2321,0.2452,0.2646,0.2673,0.2717,0.2773,0.2656,0.2586,0.2447,0.2466,0.259,0.263,0.0,0.0,0.0,0.0,0.0,0.0,0.0,0.0,0.0,0.0,0.0,0.0,0.0,0.0,0.0,0.0,0.0,0.0,0.0,0.0,0.0,0.0,0.0,0.0,0.0,0.0,0.0,0.0,0.0,0.0,0.0,0.0,0.0,0.0,0.0,0.0,0.0,0.0,0.0,0.0,0.0,0.0,0.0,0.0,0.0,0.0,0.0,0.0,0.0,0.0,0.0,0.0,0.0,0.0,0.0,0.0,0.0,0.0,0.0,0.0,0.0,0.0,0.0,0.0,0.0,0.0,0.0,0.0,0.0,0.0,0.0,0.3871,0.0,0.0,0.0,0.0,0.0,0.0,0.0,0.0,0.0,0.0,0.0,0.0,0.0,0.0,0.0,0.0,0.0,0.0,0.0,0.0,0.0,0.0,0.0,0.164,0.2048,0.1956,0.1958,0.1954,0.2234,0.2192,0.2235,0.245,0.2448,0.2514,0.2725,0.2783,0.2871,0.2896,0.2618,0.243,0.2337,0.2378,0.2449,0.2544,0.2803,0.0,0.0,0.0,0.0,0.0,0.0,0.0,0.0,0.0,0.0,0.0,0.0,0.0,0.0,0.0,0.0,0.0,0.0,0.0,0.0,0.0,0.0,0.0,0.0,0.0,0.0,0.0,0.0,0.0,0.0,0.0,0.0,0.0,0.0,0.0,0.0,0.0,0.0,0.0,0.0,0.0,0.0,0.0,0.0,0.0,0.0,0.0,0.0,0.0,0.0,0.0,0.0,0.0,0.0,0.0,0.0,0.0,0.0,0.0,0.0,0.0,0.0,0.0,0.0,0.4188,0.4312,0.3952,0.3912,0.4034,0.397,0.3947,0.3867,0.0,0.0,0.0,0.0,0.0,0.0,0.0,0.0,0.0,0.0,0.0,0.0,0.0,0.0,0.0,0.0,0.0,0.0,0.0,0.0,0.0,0.0,0.203,0.2197,0.2324,0.2302,0.2282,0.2282,0.2239,0.2284,0.2505,0.2503,0.259,0.285,0.2906,0.29,0.2628,0.2364,0.2273,0.2321,0.2356,0.2365,0.2459,0.2671,0.2885,0.2907,0.0,0.0,0.0,0.0,0.0,0.0,0.0,0.0,0.0,0.0,0.0,0.0,0.0,0.0,0.0,0.0,0.0,0.0,0.0,0.0,0.0,0.0,0.0,0.0,0.0,0.0,0.0,0.0,0.0,0.0,0.0,0.0,0.0,0.0,0.0,0.0,0.0,0.0,0.0,0.0,0.0,0.2991,0.3004,0.0,0.0,0.0,0.0,0.0,0.0,0.0,0.0,0.0,0.0,0.0,0.0,0.0,0.0,0.3403,0.3498,0.3793,0.4413,0.4153,0.4206,0.4591,0.4206,0.4091,0.411,0.4064,0.0,0.4004,0.3907,0.0,0.0,0.0,0.0,0.0,0.0,0.0,0.0,0.0,0.0,0.0,0.0,0.0,0.0,0.0,0.0,0.0,0.0,0.0,0.0,0.0,0.3106,0.3726,0.3941,0.4547,0.469,0.4,0.3883,0.3485,0.2834,0.2737,0.2844,0.2971,0.2904,0.276,0.2403,0.2441,0.2402,0.242,0.2192,0.2321,0.2437,0.2573,0.271,0.2733,0.2885,0.0,0.0,0.0,0.0,0.0,0.0,0.0,0.0,0.0,0.0,0.0,0.0,0.0,0.0,0.0,0.0,0.0,0.0,0.0,0.0,0.0,0.0,0.0,0.0,0.0,0.0,0.0,0.0,0.0,0.0,0.0,0.0,0.0,0.0,0.0,0.0,0.0,0.0,0.0,0.2696,0.2774,0.2576,0.2768,0.2832,0.0,0.0,0.0,0.0,0.0,0.0,0.0,0.0,0.0,0.3021,0.3171,0.3334,0.3516,0.3563,0.3859,0.4279,0.4203,0.4228,0.4361,0.4228,0.4228,0.4228,0.4228,0.4213,0.4176,0.4016,0.3872,0.3745,0.0,0.0,0.0,0.0,0.0,0.3591,0.0,0.0,0.0,0.0,0.0,0.0,0.0,0.0,0.0,0.0,0.0,0.0,0.3072,0.451,0.5443,0.5718,0.659,0.6716,0.5917,0.5431,0.4763,0.3652,0.3234,0.3071,0.3162,0.2924,0.2665,0.2371,0.2445,0.2482,0.2482,0.2369,0.2373,0.2621,0.2621,0.2672,0.2657,0.2769,0.2743,0.2595,0.0,0.0,0.0,0.0,0.0,0.0,0.0,0.0,0.0,0.0,0.0,0.0,0.0,0.0,0.0,0.0,0.0,0.0,0.0,0.0,0.0,0.0,0.0,0.0,0.0,0.0,0.0,0.0,0.0,0.0,0.0,0.0,0.0,0.0,0.0,0.0,0.0,0.2651,0.2594,0.2398,0.264,0.2726,0.0,0.0,0.0,0.0,0.0,0.0,0.3495,0.3537,0.3466,0.3407,0.3446,0.3501,0.384,0.3842,0.4003,0.4331,0.4331,0.4338,0.4352,0.4352,0.4352,0.4352,0.4352,0.4352,0.4337,0.4128,0.4023,0.3986,0.3895,0.3842,0.3823,0.3883,0.3876,0.3858,0.0,0.0,0.0,0.0,0.0,0.0,0.0,0.0,0.0,0.0,0.0,0.4413,0.4995,0.62,0.7032,0.7401,0.7427,0.7465,0.734,0.6243,0.5382,0.5282,0.3888,0.3297,0.347,0.308,0.2717,0.2408,0.2483,0.2647,0.2648,0.2942,0.309,0.309,0.309,0.2933,0.2625,0.2708,0.2746,0.2715,0.2654,0.0,0.0,0.0,0.0,0.0,0.0,0.0,0.0,0.0,0.0,0.0,0.0,0.0,0.0,0.0,0.0,0.0,0.0,0.0,0.0,0.0,0.0,0.0,0.0,0.0,0.0,0.0,0.0,0.0,0.0,0.0,0.0,0.0,0.0,0.0,0.0,0.0,0.0,0.2883,0.3166,0.0,0.0,0.0,0.0,0.336,0.349,0.356,0.3713,0.3982,0.4166,0.4286,0.4293,0.4297,0.4303,0.4303,0.4334,0.4394,0.4394,0.4421,0.4473,0.4473,0.4473,0.4473,0.4473,0.4473,0.4465,0.4341,0.4221,0.4116,0.411,0.404,0.3948,0.4006,0.4025,0.4031,0.0,0.0,0.0,0.0,0.0,0.0,0.0,0.0,0.2369,0.2756,0.398,0.5069,0.5437,0.7407,0.8784,0.895,0.9763,0.9884,0.8879,0.8392,0.7252,0.5492,0.4943,0.4136,0.3093,0.3807,0.3665,0.2483,0.2789,0.3072,0.3198,0.3089,0.3225,0.3353,0.3225,0.3088,0.2939,0.2974,0.2883,0.2789,0.2851,0.2772,0.0,0.0,0.0,0.0,0.0,0.0,0.0,0.0,0.0,0.0,0.0,0.0,0.0,0.0,0.0,0.0,0.0,0.0,0.0,0.0,0.0,0.0,0.0,0.0,0.0,0.0,0.0,0.0,0.0,0.0,0.0,0.0,0.0,0.0,0.0,0.0,0.0,0.3305,0.3475,0.0,0.0,0.3334,0.3506,0.3525,0.3846,0.4046,0.4106,0.4243,0.4263,0.4307,0.4072,0.3955,0.3955,0.3715,0.3602,0.3759,0.3759,0.3768,0.3784,0.4064,0.4065,0.4065,0.4344,0.4482,0.4478,0.4437,0.4373,0.4297,0.4258,0.4217,0.4183,0.4203,0.421,0.4213,0.0,0.0,0.0,0.0,0.0,0.0,0.0,0.0,0.2785,0.3608,0.4956,0.6172,0.6868,0.8929,1.0436,1.0525,1.1281,1.1431,1.0366,0.9425,0.8393,0.7036,0.5945,0.4611,0.2846,0.3791,0.3754,0.2797,0.3097,0.3377,0.3637,0.3526,0.3665,0.3794,0.3664,0.3535,0.3532,0.3351,0.3139,0.2787,0.2935,0.2907,0.2727,0.0,0.0,0.0,0.0,0.0,0.0,0.0,0.0,0.0,0.0,0.0,0.0,0.0,0.0,0.0,0.0,0.0,0.0,0.0,0.0,0.0,0.0,0.0,0.0,0.0,0.0,0.0,0.0,0.0,0.0,0.0,0.0,0.0,0.0,0.0,0.3483,0.3483,0.3687,0.3713,0.3389,0.3729,0.3924,0.3924,0.4129,0.4308,0.4308,0.4192,0.4066,0.4066,0.3845,0.3596,0.3596,0.335,0.3372,0.3388,0.3388,0.3396,0.3411,0.3695,0.3696,0.3837,0.426,0.4401,0.4399,0.4522,0.4478,0.4422,0.4383,0.4356,0.4338,0.4338,0.4324,0.4308,0.0,0.0,0.0,0.0,0.0,0.0,0.0,0.2584,0.3293,0.4817,0.6395,0.7993,0.9449,1.0963,1.1776,1.1776,1.1776,1.178,1.1784,0.9447,0.8465,0.9684,0.6881,0.465,0.2898,0.3111,0.3182,0.3099,0.3536,0.369,0.3692,0.4145,0.4307,0.4307,0.4308,0.4308,0.4303,0.3845,0.327,0.2706,0.2876,0.2814,0.287,0.0,0.0,0.0,0.0,0.0,0.0,0.0,0.0,0.0,0.0,0.0,0.0,0.0,0.0,0.0,0.0,0.0,0.0,0.0,0.0,0.0,0.0,0.0,0.0,0.0,0.0,0.0,0.0,0.0,0.0,0.0,0.0,0.0,0.3838,0.3758,0.3669,0.3669,0.4071,0.4127,0.3754,0.4105,0.4308,0.4308,0.4308,0.4308,0.4311,0.3955,0.3848,0.3849,0.3483,0.3366,0.3226,0.3228,0.3249,0.3435,0.3435,0.3458,0.3501,0.3501,0.3501,0.3501,0.3935,0.408,0.4075,0.4456,0.4541,0.4488,0.4481,0.4446,0.4395,0.4398,0.4361,0.4311,0.0,0.0,0.0,0.0,0.0,0.0,0.0,0.2732,0.3402,0.5001,0.6513,0.8054,0.9625,1.0981,1.1776,1.1776,1.1776,1.1708,1.1583,1.0852,0.9687,0.8102,0.6154,0.4551,0.3368,0.4358,0.4433,0.3146,0.3589,0.3612,0.3344,0.3491,0.3498,0.3498,0.3768,0.3902,0.3901,0.4021,0.3871,0.345,0.3096,0.3138,0.3299,0.0,0.0,0.0,0.0,0.0,0.0,0.0,0.0,0.0,0.0,0.0,0.0,0.0,0.0,0.0,0.0,0.0,0.0,0.0,0.0,0.0,0.0,0.0,0.0,0.0,0.0,0.0,0.0,0.0,0.0,0.0,0.0,0.3656,0.3642,0.3883,0.4102,0.4102,0.4277,0.4294,0.4127,0.4288,0.4308,0.4308,0.4308,0.4327,0.4371,0.4251,0.4141,0.3904,0.3532,0.3271,0.2987,0.2728,0.2602,0.261,0.261,0.2616,0.2625,0.2916,0.3209,0.3501,0.3935,0.4226,0.4517,0.4646,0.463,0.4601,0.4471,0.4386,0.4338,0.4383,0.4388,0.4373,0.0,0.0,0.0,0.0,0.0,0.0,0.0,0.3099,0.4088,0.5819,0.7243,0.8691,1.0474,1.1285,1.1776,1.1776,1.1841,1.1768,1.1421,1.0837,0.9198,0.6517,0.5667,0.4718,0.3313,0.4166,0.4226,0.3191,0.3485,0.3363,0.3228,0.3228,0.3228,0.3228,0.3632,0.3768,0.3768,0.4172,0.4172,0.4031,0.357,0.3512,0.3578,0.3378,0.3436,0.3846,0.3702,0.3672,0.3683,0.3564,0.0,0.0,0.0,0.0,0.0,0.0,0.0,0.0,0.0,0.0,0.0,0.0,0.0,0.0,0.0,0.0,0.0,0.0,0.0,0.0,0.0,0.0,0.0,0.0,0.355,0.3892,0.3892,0.4109,0.4308,0.4308,0.4308,0.4308,0.4308,0.4308,0.4318,0.4343,0.4345,0.4371,0.4431,0.432,0.4209,0.3959,0.3581,0.3317,0.3028,0.2906,0.277,0.2479,0.2479,0.2478,0.2333,0.2479,0.2916,0.0,0.3645,0.4081,0.4518,0.4664,0.4649,0.0,0.0,0.0,0.0,0.0,0.4398,0.4395,0.0,0.0,0.0,0.0,0.0,0.0,0.0,0.3452,0.4842,0.6952,0.811,0.949,1.1575,1.1776,1.1792,1.1833,1.1971,1.1868,1.1343,0.9842,0.7877,0.5308,0.5258,0.4579,0.3233,0.3149,0.3191,0.3095,0.3095,0.3094,0.3094,0.3094,0.3094,0.3094,0.3499,0.3633,0.3768,0.4038,0.4307,0.4172,0.3902,0.3768,0.3758,0.3404,0.363,0.4125,0.3967,0.3914,0.3903,0.3788,0.0,0.0,0.0,0.0,0.0,0.0,0.0,0.0,0.0,0.0,0.0,0.0,0.0,0.0,0.0,0.0,0.0,0.0,0.0,0.0,0.0,0.0,0.0,0.0,0.4064,0.4308,0.4308,0.4308,0.4308,0.4308,0.4308,0.4311,0.4318,0.4318,0.4342,0.4403,0.4409,0.4433,0.4489,0.0,0.0,0.0,0.0,0.35,0.3501,0.3501,0.3209,0.2916,0.2916,0.277,0.2478,0.2478,0.2625,0.3062,0.3354,0.379,0.4226,0.4518,0.4632,0.4587,0.4628,0.4615,0.4561,0.4457,0.4418,0.0,0.0,0.0,0.0,0.0,0.0,0.0,0.0,0.353,0.4944,0.6981,0.8062,0.949,1.1575,1.1776,1.189,1.2178,1.2235,1.1988,1.1324,0.8685,0.7012,0.6641,0.4709,0.362,0.3541,0.3326,0.3087,0.2828,0.2828,0.2693,0.2423,0.2423,0.2423,0.2423,0.2693,0.2963,0.2963,0.3633,0.3902,0.3902,0.3768,0.3902,0.417,0.3746,0.3871,0.4267,0.4233,0.4252,0.4283,0.421,0.4112,0.4007,0.3922,0.3756,0.0,0.0,0.0,0.0,0.0,0.0,0.0,0.0,0.0,0.0,0.0,0.0,0.0,0.0,0.0,0.0,0.0,0.0,0.0,0.3712,0.4088,0.4308,0.4308,0.4308,0.4308,0.4308,0.4308,0.4327,0.4376,0.4382,0.4405,0.4462,0.4466,0.4492,0.4552,0.4567,0.0,0.4065,0.4075,0.3645,0.3063,0.3063,0.2917,0.2916,0.0,0.0,0.3209,0.3209,0.3499,0.3935,0.3935,0.4226,0.4518,0.4664,0.4657,0.4639,0.4552,0.4541,0.4571,0.4548,0.454,0.4395,0.0,0.0,0.0,0.0,0.0,0.0,0.0,0.417,0.5521,0.7449,0.8689,0.9774,1.1208,1.1347,1.1399,1.1399,1.1354,1.1233,1.1031,0.8231,0.6614,0.7046,0.4476,0.3247,0.3426,0.3073,0.2828,0.2425,0.2425,0.2424,0.2155,0.2155,0.2155,0.2155,0.2559,0.2694,0.2694,0.35,0.3768,0.3768,0.4038,0.4172,0.4307,0.3902,0.3902,0.4038,0.4307,0.4327,0.4348,0.4318,0.4267,0.42,0.4109,0.3999,0.3854,0.0,0.0,0.0,0.0,0.0,0.0,0.0,0.0,0.0,0.0,0.0,0.0,0.0,0.0,0.321,0.3313,0.0,0.3853,0.3938,0.4134,0.4308,0.4308,0.4308,0.4308,0.4308,0.4335,0.4365,0.4395,0.4424,0.4465,0.4523,0.4527,0.4555,0.4616,0.4619,0.4632,0.4371,0.4371,0.4227,0.379,0.379,0.3645,0.3498,0.3498,0.3499,0.3501,0.3501,0.379,0.4079,0.4079,0.4371,0.4665,0.4665,0.4665,0.4658,0.4597,0.4593,0.4616,0.4585,0.4143,0.3282,0.0,0.0,0.0,0.0,0.0,0.0,0.0,0.4889,0.6247,0.7828,0.8977,0.9923,1.0512,1.0794,1.0809,1.052,1.042,1.0406,1.0697,0.7991,0.6562,0.6916,0.4347,0.2989,0.3032,0.2674,0.2425,0.2155,0.2155,0.2155,0.2155,0.2155,0.2155,0.2155,0.2425,0.2559,0.2694,0.3365,0.3633,0.3768,0.4172,0.4307,0.4172,0.4037,0.3902,0.3902,0.4172,0.4308,0.4308,0.4308,0.4308,0.429,0.4192,0.4169,0.4115,0.3788,0.3753,0.0,0.0,0.0,0.0,0.0,0.0,0.0,0.0,0.0,0.32,0.3236,0.3422,0.3478,0.3692,0.3743,0.3931,0.4292,0.4308,0.4308,0.4308,0.4318,0.4324,0.4324,0.4368,0.4407,0.4429,0.4473,0.4525,0.4587,0.4591,0.4613,0.4661,0.4665,0.4665,0.4665,0.4665,0.4664,0.4518,0.4518,0.4373,0.4079,0.4079,0.3936,0.3791,0.3791,0.3936,0.4226,0.4226,0.4371,0.4665,0.4665,0.4665,0.4665,0.4665,0.4518,0.4218,0.4164,0.3285,0.2138,0.0,0.0,0.0,0.0,0.0,0.0,0.0,0.0,0.6783,0.7496,0.8323,0.9137,0.993,1.0002,1.0179,1.0586,1.0528,1.0454,1.0631,0.7918,0.6436,0.6536,0.409,0.2598,0.2636,0.2406,0.2289,0.2155,0.2155,0.2155,0.2155,0.2155,0.2155,0.2155,0.2289,0.2289,0.2289,0.296,0.3228,0.3363,0.4038,0.4172,0.3902,0.4172,0.4307,0.4307,0.4308,0.4308,0.4308,0.4308,0.4308,0.4305,0.4292,0.4324,0.4327,0.4125,0.4037,0.3828,0.3472,0.305,0.2946,0.2946,0.3178,0.3456,0.0,0.0,0.3527,0.4079,0.3987,0.386,0.4142,0.4282,0.4292,0.4305,0.4308,0.4308,0.4308,0.4354,0.4388,0.4388,0.4394,0.4439,0.4544,0.4559,0.4589,0.465,0.4654,0.4657,0.4664,0.4665,0.4665,0.4665,0.4665,0.4518,0.4226,0.4226,0.408,0.4079,0.4079,0.4226,0.4519,0.4519,0.4519,0.4664,0.4664,0.4664,0.4665,0.4665,0.4665,0.4665,0.4665,0.3788,0.2616,0.2583,0.257,0.1998,0.0,0.0,0.0,0.0,0.0,0.0,0.0,0.0,0.0,0.7832,0.8556,0.9157,0.9572,0.97,0.9865,1.0281,1.0129,1.0102,1.0357,0.7683,0.6188,0.6536,0.3833,0.2338,0.2636,0.2541,0.2424,0.2155,0.2424,0.2424,0.2155,0.2155,0.2155,0.2155,0.2155,0.2155,0.2289,0.296,0.3228,0.3228,0.3768,0.3902,0.3768,0.3633,0.3768,0.4038,0.4172,0.4308,0.0,0.4308,0.4308,0.4308,0.4308,0.4275,0.4225,0.4149,0.4082,0.4029,0.3874,0.3676,0.0,0.0,0.3495,0.3638,0.3906,0.3626,0.3487,0.4145,0.4038,0.3902,0.4172,0.4308,0.4308,0.0,0.4308,0.4308,0.4308,0.436,0.441,0.4443,0.4478,0.4519,0.4568,0.4605,0.4636,0.4662,0.4665,0.4665,0.4665,0.4665,0.4665,0.4665,0.4665,0.4664,0.4518,0.4518,0.4518,0.4518,0.4552,0.457,0.4718,0.4754,0.4751,0.4718,0.4718,0.4698,0.4665,0.4665,0.4665,0.4665,0.4665,0.3787,0.2325,0.2438,0.1284,-0.0428,0.0,0.0,0.0,0.0,0.0,0.0,0.0,0.0,0.0,0.0,0.8653,0.9007,0.9299,0.9004,0.9138,0.9784,0.9468,0.9503,1.0167,0.7959,0.6664,0.6869,0.4188,0.2709,0.3011,0.2658,0.2415,0.2155,0.2425,0.2425,0.2155,0.2155,0.2155,0.2155,0.2155,0.2155,0.2289,0.2827,0.3095,0.3095,0.3498,0.3632,0.3632,0.3498,0.3481,0.3724,0.3991,0.4123,0.4249,0.42,0.4206,0.4226,0.4194,0.4157,0.4123,0.4105,0.4046,0.4006,0.3966,0.0,0.0,0.3721,0.376,0.3784,0.3784,0.3523,0.3415,0.4021,0.3902,0.3902,0.4172,0.4308,0.4308,0.4308,0.4308,0.4313,0.433,0.4384,0.4443,0.45,0.4561,0.4598,0.4598,0.4639,0.4665,0.4665,0.4665,0.4665,0.4665,0.4665,0.4665,0.4665,0.4665,0.4673,0.4689,0.4689,0.4698,0.4714,0.4759,0.4781,0.4782,0.4826,0.4822,0.4781,0.4781,0.4755,0.4714,0.4714,0.4704,0.4689,0.4689,0.3506,0.1743,0.1721,0.0143,-0.2279,0.0,0.0,0.0,0.0,0.0,0.0,0.0,0.0,0.0,0.0,0.0,0.0,0.0,0.7939,0.786,0.9201,0.8645,0.8713,0.9704,0.8803,0.8099,0.7861,0.5366,0.3932,0.3991,0.2748,0.2125,0.2155,0.2155,0.2155,0.2155,0.2155,0.2155,0.2155,0.2155,0.2155,0.2289,0.2559,0.2694,0.2694,0.3095,0.3228,0.3228,0.3632,0.3703,0.3614,0.3614,0.3872,0.4105,0.3932,0.3948,0.4023,0.391,0.3989,0.4113,0.4055,0.3955,0.3867,0.3506,0.0,0.3857,0.3712,0.3951,0.4167,0.3897,0.3763,0.3764,0.3767,0.3768,0.3902,0.4172,0.4308,0.4308,0.4308,0.4308,0.4328,0.4387,0.4444,0.4503,0.4564,0.4624,0.4661,0.0,0.4662,0.4665,0.4665,0.4665,0.4665,0.4665,0.4665,0.4665,0.4665,0.4665,0.4694,0.4752,0.4752,0.4782,0.4841,0.4842,0.4843,0.4843,0.4845,0.4845,0.4843,0.4843,0.4842,0.4841,0.4841,0.4805,0.4752,0.4752,0.2797,0.0145,0.0143,-0.0856,-0.2422,0.0,0.0,0.0,0.0,0.0,0.0,0.0,0.0,0.0,0.0,0.0,0.0,0.0,0.0,0.0,0.0,0.7315,0.7348,0.7829,0.7251,0.6561,0.5653,0.4618,0.3551,0.2706,0.2486,0.239,0.2155,0.2424,0.2424,0.2155,0.2155,0.2155,0.2155,0.2155,0.2155,0.2289,0.2559,0.2694,0.2694,0.2828,0.2843,0.287,0.2758,0.2975,0.3263,0.0,0.3537,0.3875,0.3693,0.3699,0.3716,0.3642,0.3484,0.3577,0.3638,0.3824,0.3928,0.3841,0.3895,0.4095,0.4084,0.4143,0.4172,0.3902,0.3768,0.3768,0.3768,0.3768,0.3902,0.4172,0.4308,0.432,0.4361,0.4368,0.4388,0.4446,0.4506,0.4551,0.4571,0.4627,0.0,0.0,0.0,0.0,0.4665,0.4665,0.4665,0.4665,0.4665,0.4665,0.4665,0.4703,0.4734,0.4755,0.4794,0.4826,0.4846,0.4887,0.4925,0.4962,0.4962,0.4942,0.4906,0.4906,0.4883,0.4846,0.4846,0.4834,0.4815,0.4815,0.2834,0.0,0.0147,-0.1602,-0.3896,0.0,0.0,0.0,0.0,0.0,0.0,0.0,0.0,0.0,0.0,0.0,0.0,0.0,0.0,0.0,0.0,0.0,0.6352,0.6797,0.6633,0.6215,0.5284,0.455,0.3734,0.294,0.2558,0.2336,0.2138,0.2393,0.2406,0.2171,0.216,0.2155,0.2155,0.2155,0.2155,0.2155,0.2437,0.2578,0.2577,0.2564,0.2565,0.2438,0.2436,0.2635,0.0,0.3082,0.3376,0.3664,0.3506,0.3518,0.3541,0.3369,0.3356,0.3471,0.3434,0.3556,0.3719,0.3793,0.3839,0.4024,0.4277,0.4308,0.4172,0.3902,0.3768,0.3768,0.3768,0.3752,0.3879,0.4168,0.4308,0.4327,0.4388,0.4433,0.4473,0.451,0.4567,0.4605,0.4605,0.464,0.4665,0.0,0.0,0.0,0.4665,0.4665,0.4665,0.4665,0.4665,0.4674,0.4696,0.4734,0.4777,0.4819,0.4858,0.4888,0.4909,0.4948,0.4985,0.5021,0.5021,0.5001,0.4967,0.4967,0.4944,0.4907,0.4907,0.4897,0.4725,0.4114,0.2411,0.0,-0.0593,-0.2503,-0.465,0.0,0.0,0.0,0.0,0.0,0.0,0.0,0.0,0.0,0.0,0.0,0.0,0.0,0.0,0.0,0.0,0.0,0.0,0.6561,0.6899,0.6882,0.6729,0.5128,0.4323,0.4398,0.2817,0.199,0.2107,0.2078,0.2108,0.2192,0.2163,0.2151,0.2152,0.2152,0.2153,0.2157,0.2184,0.2194,0.219,0.216,0.2131,0.2099,0.2808,0.2947,0.2823,0.3476,0.3605,0.348,0.3368,0.3409,0.3497,0.3342,0.3478,0.3656,0.33,0.3257,0.3361,0.3582,0.3613,0.3771,0.4145,0.4308,0.4172,0.3902,0.3768,0.3765,0.3761,0.3721,0.3834,0.0,0.0,0.4327,0.4388,0.4497,0.4575,0.4578,0.4628,0.4665,0.0,0.0,0.0,0.0,0.0,0.0,0.4665,0.0,0.4665,0.4665,0.4668,0.4696,0.4754,0.4762,0.482,0.4935,0.4939,0.4967,0.5021,0.5021,0.5021,0.5021,0.5021,0.5021,0.5021,0.5021,0.5021,0.5021,0.5021,0.4988,0.4627,0.3082,0.1366,-0.0148,-0.1782,-0.339,-0.4661,0.0,0.0,0.0,0.0,0.0,0.0,0.0,0.0,0.0,0.0,0.0,0.0,0.0,0.0,0.0,0.0,0.0,0.0,0.4203,0.5039,0.5172,0.4202,0.4406,0.4133,0.2973,0.2463,0.225,0.2076,0.2067,0.2076,0.2099,0.2091,0.2099,0.2121,0.2121,0.2133,0.2154,0.2138,0.2119,0.2096,0.2065,0.2048,0.2043,0.2435,0.2745,0.2874,0.3221,0.3218,0.3169,0.3142,0.3093,0.2849,0.2673,0.2839,0.2996,0.2875,0.3088,0.3195,0.3474,0.3666,0.3866,0.4166,0.4308,0.4172,0.3902,0.4038,0.4014,0.3665,0.3932,0.4063,0.0,0.0,0.0,0.4388,0.4497,0.0,0.4635,0.4654,0.0,0.4665,0.0,0.4665,0.4665,0.4665,0.0,0.0,0.4665,0.4665,0.4665,0.4707,0.4739,0.4755,0.4843,0.4905,0.4936,0.4978,0.5007,0.5021,0.5021,0.5021,0.5021,0.5021,0.5021,0.5021,0.5021,0.5021,0.5021,0.5021,0.4207,0.3082,0.2773,0.091,-0.1634,-0.21,-0.3436,-0.4736,0.0,0.0,0.0,0.0,0.0,0.0,0.0,0.0,0.0,0.0,0.0,0.0,0.0,0.0,0.0,0.0,0.0,0.0,0.0,0.3932,0.4029,0.3404,0.3696,0.3515,0.2604,0.2353,0.2269,0.1986,0.1973,0.1992,0.2044,0.2018,0.2022,0.2051,0.2051,0.2061,0.2076,0.2071,0.206,0.0,0.0,0.1992,0.1979,0.2339,0.2517,0.2541,0.2983,0.3157,0.3107,0.2836,0.2777,0.271,0.2517,0.2677,0.2833,0.2728,0.2796,0.287,0.3149,0.3324,0.3632,0.4038,0.4172,0.4293,0.3974,0.4114,0.4093,0.3823,0.3968,0.0,0.4015,0.0,0.0,0.0,0.0,0.0,0.4664,0.4687,0.4695,0.0,0.4665,0.0,0.4665,0.4665,0.4665,0.0,0.4665,0.4665,0.4665,0.4722,0.4767,0.4794,0.4887,0.4948,0.4973,0.5004,0.5021,0.5021,0.5021,0.5021,0.5021,0.5021,0.5021,0.5021,0.0,0.5021,0.5021,0.5021,0.405,0.2465,0.1849,-0.0,-0.2228,-0.3142,-0.4021,-0.4719,0.0,0.0,0.0,0.0,0.0,0.0,0.0,0.0,0.0,0.0,0.0,0.0,0.0,0.0,0.0,0.0,0.0,0.0,0.0,0.0,0.3383,0.3545,0.3238,0.2916,0.2683,0.2425,0.2126,0.1874,0.1847,0.1887,0.1988,0.1937,0.193,0.1959,0.1962,0.1967,0.1972,0.1996,0.2005,0.1998,0.1965,0.1934,0.1901,0.0,0.2241,0.2294,0.2696,0.2962,0.2955,0.2381,0.2425,0.28,0.2689,0.2743,0.2808,0.2586,0.2488,0.252,0.2684,0.2962,0.3229,0.3633,0.4038,0.4277,0.4164,0.4172,0.4023,0.385,0.0,0.3869,0.3813,0.4121,0.4289,0.4305,0.0,0.4715,0.467,0.471,0.4724,0.467,0.4665,0.4665,0.4665,0.4665,0.4665,0.4665,0.4665,0.4668,0.4676,0.4734,0.4798,0.4867,0.4921,0.4971,0.5021,0.5021,0.5021,0.5021,0.5021,0.5021,0.5021,0.5021,0.5021,0.5021,0.0,0.0,0.5021,0.5021,0.3891,0.2152,0.0615,-0.0908,-0.2665,-0.4157,-0.4721,-0.4531,0.0,0.0,0.0,0.0,0.0,0.0,0.0,0.0,0.0,0.0,0.3876,0.323,0.0,0.0,0.0,0.0,0.0,0.0,0.0,0.0,0.0,0.3364,0.3243,0.3075,0.2635,0.2521,0.2323,0.181,0.1806,0.1813,0.1834,0.1823,0.1835,0.1865,0.189,0.1915,0.1939,0.1944,0.1932,0.1904,0.1849,0.1808,0.1888,0.2069,0.0,0.0,0.2327,0.2387,0.235,0.2189,0.2251,0.2562,0.2362,0.2255,0.2265,0.2271,0.2277,0.2283,0.2558,0.2694,0.2962,0.3633,0.3902,0.3886,0.4085,0.4039,0.0,0.0,0.3518,0.3508,0.3453,0.3747,0.4189,0.4292,0.4474,0.4619,0.0,0.0,0.4676,0.0,0.0,0.0,0.0,0.0,0.0,0.0,0.0,0.0,0.4737,0.4797,0.4879,0.4986,0.5,0.5011,0.5021,0.5021,0.5021,0.5021,0.5021,0.5021,0.5021,0.5021,0.5021,0.5021,0.0,0.0,0.5021,0.5021,0.3251,0.0607,0.0303,-0.1643,-0.4246,-0.4291,-0.4301,-0.4153,0.0,0.0,0.0,0.0,0.0,0.0,0.0,0.6095,0.5222,0.5194,0.4192,0.351,0.3383,0.3315,0.3264,0.0,0.0,0.0,0.0,0.0,0.0,0.0,0.3274,0.3094,0.2728,0.2648,0.2361,0.0,0.0,0.1742,0.177,0.174,0.1742,0.177,0.1785,0.18,0.1813,0.1813,0.1805,0.1789,0.1759,0.1748,0.1857,0.0,0.0,0.0,0.1987,0.2163,0.2245,0.2039,0.2125,0.2226,0.2274,0.2155,0.2155,0.2155,0.2155,0.2289,0.2424,0.2559,0.2828,0.3365,0.3653,0.3901,0.3991,0.0,0.0,0.0,0.3296,0.331,0.3229,0.3652,0.0,0.4155,0.4368,0.4548,0.4608,0.4645,0.0,0.4665,0.0,0.0,0.0,0.0,0.0,0.0,0.0,0.0,0.4754,0.4843,0.4932,0.5018,0.5021,0.5021,0.5021,0.5021,0.5021,0.5021,0.5021,0.5021,0.5021,0.5021,0.5021,0.5021,0.5021,0.0,0.5021,0.5021,0.3092,0.0151,0.0151,-0.1638,-0.4375,-0.4255,-0.3971,-0.3682,0.0,0.0,0.0,0.0,0.0,0.0,0.0,0.5768,0.4868,0.5203,0.4509,0.3815,0.3598,0.3456,0.3343,0.0,0.0,0.0,0.0,0.0,0.0,0.0,0.0,0.0,0.0,0.0,0.0,0.0,0.0,0.0,0.0,0.0,0.0,0.0,0.0,0.1695,0.1695,0.1701,0.1704,0.0,0.0,0.1718,0.0,0.0,0.0,0.0,0.0,0.1918,0.2218,0.1999,0.1964,0.2069,0.2244,0.2278,0.2163,0.2157,0.2159,0.2163,0.2157,0.2424,0.2696,0.3106,0.3542,0.3785,0.3924,0.3796,0.0,0.31,0.3098,0.3241,0.3055,0.3581,0.401,0.0,0.4285,0.4491,0.4563,0.4625,0.4665,0.0,0.4665,0.0,0.0,0.0,0.0,0.0,0.0,0.0,0.4793,0.4897,0.4976,0.5019,0.5021,0.5021,0.5021,0.5021,0.5021,0.5021,0.5021,0.5021,0.5021,0.5021,0.5021,0.5021,0.5021,0.0,0.0,0.5021,0.3092,0.0151,0.0302,-0.1489,-0.4079,-0.3935,-0.3645,-0.3354,0.0,0.0,0.0,0.0,0.0,0.0,0.0,0.4987,0.4707,0.4315,0.4052,0.397,0.3841,0.3669,0.3496,0.0,0.0,0.0,0.0,0.0,0.0,0.0,0.0,0.0,0.0,0.0,0.0,0.0,0.0,0.0,0.0,0.0,0.0,0.0,0.0,0.0,0.0,0.1693,0.0,0.0,0.0,0.0,0.0,0.0,0.0,0.0,0.0,0.1796,0.1812,0.1867,0.1895,0.2041,0.238,0.237,0.2191,0.2163,0.0,0.0,0.2162,0.2289,0.2431,0.3144,0.3293,0.353,0.4023,0.0,0.3479,0.2907,0.2952,0.305,0.2859,0.3427,0.3929,0.0,0.0,0.4446,0.4557,0.4625,0.4665,0.4665,0.0,0.0,0.0,0.0,0.0,0.0,0.0,0.0,0.0,0.498,0.5015,0.5021,0.5021,0.5021,0.5021,0.5021,0.5021,0.5021,0.5021,0.5021,0.5021,0.5021,0.5021,0.5021,0.0,0.0,0.0,0.5021,0.3092,0.0302,0.0605,-0.1191,-0.408,-0.3208,-0.2916,-0.2916,0.0,0.0,0.0,0.0,0.0,0.0,0.4894,0.445,0.4123,0.4181,0.4183,0.4127,0.4079,0.3882,0.3635,0.3346,0.0,0.0,0.0,0.0,0.0,0.0,0.0,0.0,0.0,0.0,0.0,0.0,0.0,0.0,0.0,0.0,0.0,0.0,0.0,0.0,0.0,0.0,0.0,0.0,0.0,0.0,0.0,0.0,0.0,0.0,0.0,0.0,0.1823,0.1829,0.1868,0.1916,0.2296,0.2401,0.2385,0.2392,0.2283,0.217,0.2158,0.2168,0.2321,0.2883,0.316,0.3397,0.3645,0.0,0.319,0.3022,0.295,0.2931,0.2979,0.3485,0.382,0.4036,0.4162,0.4275,0.4397,0.4526,0.4595,0.4559,0.0,0.0,0.0,0.0,0.0,0.0,0.0,0.0,0.0,0.5008,0.5021,0.5021,0.5021,0.5021,0.5021,0.5021,0.5021,0.5021,0.5021,0.5021,0.5021,0.5021,0.5021,0.5021,0.0,0.0,0.0,0.3892,0.2304,0.0453,-0.03,-0.1776,-0.3352,-0.3062,-0.277,-0.2479,0.0,0.0,0.0,0.0,0.0,0.4167,0.4574,0.4014,0.3782,0.4176,0.4206,0.4189,0.4189,0.3961,0.3711,0.3474,0.3334,0.0,0.0,0.0,0.0,0.0,0.0,0.0,0.0,0.0,0.0,0.3086,0.0,0.0,0.0,0.0,0.0,0.0,0.0,0.0,0.0,0.0,0.0,0.0,0.0,0.0,0.0,0.0,0.0,0.0,0.0,0.0,0.0,0.0,0.0,0.1889,0.2228,0.2421,0.2529,0.2599,0.239,0.2289,0.2289,0.2177,0.234,0.2764,0.317,0.3397,0.3645,0.0,0.3283,0.3229,0.3053,0.3039,0.3187,0.345,0.3766,0.3952,0.4063,0.4174,0.4315,0.4457,0.4544,0.0,0.0,0.0,0.0,0.0,0.0,0.0,0.0,0.0,0.0,0.5021,0.5021,0.5021,0.5021,0.5021,0.5021,0.5021,0.5021,0.5021,0.5021,0.5021,0.5021,0.5021,0.5021,0.5021,0.0,0.0,0.0,0.3887,0.2455,0.0906,-0.015,-0.1478,-0.2916,-0.277,-0.2479,-0.2333,0.0,0.0,0.0,0.0,0.0,0.0,0.3552,0.3691,0.3833,0.4014,0.4089,0.4127,0.4127,0.386,0.3703,0.3759,0.3492,0.0,0.0,0.0,0.0,0.0,0.0,0.0,0.0,0.0,0.3415,0.3137,0.3188,0.2848,0.0,0.0,0.0,0.0,0.0,0.0,0.0,0.0,0.0,0.0,0.0,0.0,0.0,0.0,0.0,0.0,0.0,0.0,0.0,0.0,0.0,0.0,0.0,0.2328,0.2269,0.241,0.2503,0.2559,0.2289,0.2177,0.2345,0.3213,0.333,0.3398,0.4036,0.4031,0.3754,0.3181,0.3363,0.3475,0.3138,0.3455,0.3789,0.3852,0.4011,0.4189,0.4372,0.4447,0.4527,0.0,0.0,0.0,0.0,0.0,0.0,0.0,0.0,0.0,0.0,0.5021,0.5021,0.5021,0.5021,0.5021,0.5021,0.5021,0.5021,0.5021,0.5021,0.5021,0.5021,0.5021,0.5021,0.0,0.0,0.0,0.0,0.565,0.3866,0.1361,0.1814,-0.0,-0.2916,-0.2478,-0.2333,-0.2333,0.0,0.0,0.0,0.0,0.0,0.0,0.0,0.35,0.3604,0.3824,0.3834,0.3868,0.3993,0.3773,0.3657,0.376,0.3533,0.0,0.0,0.0,0.0,0.0,0.0,0.0,0.0,0.0,0.365,0.3595,0.3182,0.2844,0.2712,0.2216,0.1956,0.0,0.0,0.0,0.0,0.0,0.0,0.0,0.0,0.0,0.0,0.0,0.0,0.0,0.0,0.0,0.0,0.0,0.0,0.0,0.0,0.0,0.0,0.2644,0.2768,0.2879,0.2878,0.2795,0.2976,0.3098,0.3325,0.3531,0.3706,0.3571,0.3435,0.3558,0.3389,0.3261,0.3527,0.3646,0.3732,0.3999,0.4053,0.4142,0.0,0.0,0.0,0.0,0.0,0.0,0.0,0.0,0.0,0.0,0.0,0.0,0.0,0.5021,0.5021,0.5021,0.5021,0.5021,0.5021,0.5021,0.5021,0.5021,0.5021,0.5021,0.5021,0.5021,0.0,0.0,0.0,0.0,0.0,0.4507,0.37,0.3209,0.1052,-0.0149,-0.1032,-0.1901,-0.2333,-0.2333,0.0,0.0,0.0,0.0,0.0,0.0,0.0,0.3398,0.3473,0.3644,0.3634,0.3679,0.3862,0.3685,0.361,0.3756,0.3591,0.0,0.0,0.0,0.0,0.0,0.0,0.0,0.3587,0.3624,0.3696,0.3804,0.3278,0.3067,0.2944,0.246,0.205,0.1855,0.1818,0.0,0.0,0.0,0.0,0.0,0.0,0.0,0.1779,0.0,0.0,0.0,0.0,0.0,0.0,0.0,0.0,0.0,0.0,0.0,0.0,0.0,0.2987,0.3233,0.3053,0.3136,0.3197,0.3303,0.3376,0.3568,0.3643,0.3503,0.3485,0.3657,0.35,0.3374,0.3636,0.3631,0.3703,0.3951,0.3978,0.0,0.0,0.0,0.0,0.0,0.0,0.0,0.0,0.0,0.0,0.0,0.0,0.0,0.0,0.0,0.5021,0.5021,0.5021,0.5021,0.5021,0.5021,0.5021,0.5021,0.5021,0.5021,0.5021,0.5021,0.0,0.0,0.0,0.0,0.0,0.4977,0.4638,0.4455,0.1656,0.0447,-0.0148,-0.1757,-0.2333,-0.2333,0.0,0.0,0.0,0.0,0.0,0.0,0.0,0.3367,0.3425,0.3477,0.3484,0.3549,0.3719,0.359,0.3559,0.3729,0.0,0.0,0.0,0.0,0.0,0.0,0.0,0.0,0.3587,0.3595,0.3688,0.3867,0.3489,0.3289,0.3041,0.2732,0.2282,0.1889,0.1887,0.1852,0.0,0.0,0.0,0.0,0.0,0.1778,0.0,0.0,0.0,0.0,0.0,0.0,0.0,0.0,0.0,0.0,0.0,0.0,0.0,0.0,0.0,0.0,0.0,0.3075,0.3277,0.3666,0.3591,0.3631,0.3826,0.3804,0.0,0.36,0.3587,0.359,0.3598,0.364,0.3699,0.3781,0.3842,0.0,0.0,0.0,0.0,0.0,0.0,0.0,0.0,0.0,0.0,0.0,0.0,0.0,0.0,0.0,0.5021,0.5021,0.5021,0.5021,0.5021,0.5021,0.5021,0.5021,0.5021,0.5021,0.5021,0.5021,0.0,0.0,0.0,0.0,0.0,0.6904,0.6232,0.5077,0.334,0.165,0.0,-0.1611,-0.2333,-0.2333,0.0,0.0,0.0,0.0,0.0,0.0,0.0,0.0,0.0,0.0,0.3362,0.3379,0.3422,0.3429,0.345,0.0,0.0,0.0,0.0,0.0,0.0,0.0,0.0,0.0,0.3587,0.3679,0.3793,0.3929,0.3417,0.3228,0.3133,0.2469,0.2146,0.1919,0.1896,0.1852,0.0,0.0,0.0,0.0,0.1792,0.1791,0.0,0.0,0.0,0.0,0.1768,0.1775,0.0,0.0,0.0,0.0,0.0,0.0,0.0,0.0,0.3118,0.3621,0.3449,0.0,0.3698,0.382,0.3766,0.3709,0.0,0.3743,0.3661,0.36,0.0,0.0,0.0,0.3662,0.3704,0.0,0.0,0.0,0.0,0.0,0.0,0.0,0.0,0.0,0.0,0.0,0.0,0.0,0.0,0.0,0.0,0.0,0.5021,0.5021,0.5021,0.5021,0.5021,0.5021,0.5021,0.5021,0.5021,0.5021,0.5021,0.5335,0.0,0.0,0.0,0.0,0.6904,0.6904,0.6889,0.6696,0.3807,0.2412,0.165,-0.1175,-0.2333,-0.2333,0.0,0.0,0.0,0.0,0.0,0.0,0.0,0.0,0.0,0.0,0.0,0.3279,0.3279,0.336,0.0,0.0,0.0,0.0,0.0,0.0,0.0,0.0,0.0,0.3587,0.3587,0.368,0.3813,0.3989,0.3341,0.3162,0.3226,0.2551,0.2078,0.1949,0.1877,0.1825,0.0,0.0,0.0,0.0,0.1789,0.0,0.0,0.0,0.0,0.0,0.1761,0.1769,0.0,0.1843,0.1839,0.1821,0.0,0.0,0.0,0.0,0.2938,0.3396,0.3507,0.368,0.386,0.386,0.3694,0.3651,0.3768,0.3469,0.3288,0.3369,0.0,0.0,0.0,0.0,0.0,0.0,0.0,0.0,0.0,0.0,0.0,0.0,0.0,0.0,0.0,0.0,0.0,0.0,0.0,0.0,0.0,0.0,0.5021,0.5021,0.5021,0.5021,0.5021,0.5021,0.5021,0.5021,0.5179,0.5335,0.5335,0.5805,0.0,0.0,0.0,0.0,0.7215,0.7215,0.7369,0.7199,0.4757,0.3807,0.3342,0.0,-0.1176,-0.1321,0.0,0.0,0.0,0.0,0.0,0.0,0.0,0.0,0.0,0.0,0.0,0.0,0.0,0.0,0.0,0.0,0.0,0.0,0.0,0.0,0.0,0.0,0.3587,0.3595,0.3615,0.3666,0.3805,0.391,0.3386,0.3083,0.3161,0.251,0.2149,0.1972,0.1859,0.1804,0.0,0.0,0.178,0.1759,0.1785,0.0,0.0,0.0,0.0,0.0,0.0,0.0,0.0,0.1877,0.1872,0.1842,0.1889,0.0,0.0,0.0,0.0,0.0,0.3349,0.3659,0.3856,0.3837,0.3556,0.3402,0.3755,0.3326,0.2917,0.3138,0.0,0.0,0.0,0.369,0.0,0.0,0.0,0.0,0.0,0.0,0.0,0.0,0.0,0.0,0.0,0.0,0.0,0.0,0.0,0.0,0.0,0.0,0.0,0.5021,0.5021,0.5021,0.5021,0.5021,0.5021,0.5021,0.5493,0.5807,0.5807,0.6275,0.6587,0.0,0.0,0.0,0.7525,0.7525,0.7525,0.7359,0.572,0.5077,0.4756,0.1347,0.0149,-0.0149,0.0,0.0,0.0,0.0,0.0,0.0,0.0,0.0,0.0,0.0,0.0,0.0,0.0,0.0,0.0,0.0,0.0,0.0,0.0,0.0,0.0,0.3587,0.3587,0.3635,0.3739,0.3751,0.3727,0.3534,0.3288,0.2976,0.2751,0.237,0.2149,0.1973,0.1903,0.1843,0.1795,0.1795,0.1792,0.1789,0.1793,0.0,0.0,0.0,0.0,0.0,0.0,0.0,0.0,0.1773,0.1789,0.1799,0.1782,0.0,0.0,0.0,0.0,0.0,0.3659,0.3549,0.3475,0.3732,0.3699,0.3692,0.3692,0.3638,0.3475,0.3475,0.0,0.0,0.0,0.3833,0.0,0.0,0.0,0.0,0.0,0.0,0.0,0.0,0.0,0.0,0.0,0.0,0.0,0.0,0.0,0.0,0.0,0.0,0.0,0.5021,0.5021,0.5021,0.5021,0.5021,0.5179,0.5493,0.565,0.5807,0.6273,0.6589,0.6904,0.0,0.0,0.7369,0.7525,0.7525,0.7525,0.7359,0.572,0.5077,0.4756,0.1347,0.0149,-0.0151,0.0,0.0,0.0,0.0,0.0,0.0,0.0,0.0,0.0,0.0,0.0,0.0,0.0,0.0,0.0,0.0,0.0,0.0,0.0,0.0,0.3617,0.3683,0.3454,0.348,0.3767,0.3713,0.3598,0.3661,0.3112,0.2921,0.2839,0.2341,0.2102,0.1973,0.1896,0.1836,0.1795,0.1795,0.1795,0.1795,0.0,0.0,0.0,0.0,0.0,0.0,0.0,0.0,0.0,0.0,0.1783,0.1795,0.1797,0.0,0.0,0.0,0.0,0.0,0.3361,0.3483,0.356,0.3741,0.3587,0.3432,0.3797,0.3656,0.3387,0.3598,0.0,0.0,0.0,0.0,0.0,0.0,0.0,0.0,0.0,0.0,0.0,0.0,0.0,0.0,0.0,0.0,0.0,0.0,0.0,0.0,0.0,0.0,0.0,0.0,0.5021,0.5021,0.5021,0.5179,0.5493,0.5651,0.5963,0.6275,0.6589,0.7058,0.7215,0.7215,0.0,0.7525,0.7525,0.7525,0.7369,0.7055,0.5607,0.4973,0.4344,0.1219,-0.0454,-0.1361,0.0,0.0,0.0,0.0,0.0,0.0,0.0,0.0,0.0,0.0,0.0,0.0,0.0,0.0,0.0,0.0,0.0,0.0,0.0,0.3579,0.3635,0.3744,0.3408,0.3325,0.3751,0.347,0.3355,0.3549,0.2947,0.2724,0.2767,0.2331,0.2076,0.1973,0.1889,0.183,0.1795,0.1795,0.1795,0.1795,0.0,0.0,0.0,0.0,0.0,0.0,0.0,0.0,0.0,0.0,0.0,0.0,0.0,0.0,0.0,0.2529,0.2725,0.2715,0.3131,0.3466,0.3679,0.3824,0.358,0.3437,0.397,0.3712,0.3445,0.3684,0.0,0.0,0.0,0.0,0.0,0.0,0.0,0.0,0.0,0.0,0.0,0.0,0.0,0.0,0.0,0.0,0.0,0.0,0.0,0.0,0.0,0.0,0.0,0.0,0.5008,0.5001,0.5001,0.5455,0.5612,0.5783,0.6249,0.6552,0.7001,0.7309,0.7464,0.7464,0.7464,0.7464,0.7464,0.7464,0.7309,0.6846,0.5441,0.4344,0.3094,0.0922,-0.1066,-0.241,0.0,0.0,0.0,0.0,0.0,0.0,0.0,0.0,0.0,0.0,0.0,0.0,0.0,0.0,0.0,0.0,0.0,0.0,0.0,0.3556,0.3617,0.3681,0.3387,0.3288,0.3655,0.3277,0.3102,0.2847,0.2924,0.2651,0.233,0.2237,0.2116,0.1974,0.1911,0.185,0.1795,0.1795,0.1795,0.1795,0.1795,0.0,0.0,0.0,0.0,0.0,0.0,0.0,0.0,0.0,0.0,0.0,0.0,0.0,0.2127,0.3802,0.3578,0.2834,0.3615,0.3643,0.3393,0.3863,0.3947,0.3907,0.4016,0.3877,0.3869,0.397,0.0,0.0,0.0,0.0,0.0,0.0,0.0,0.0,0.0,0.0,0.0,0.0,0.0,0.0,0.0,0.0,0.0,0.0,0.0,0.0,0.0,0.0,0.0,0.0,0.0,0.4943,0.4943,0.5189,0.5646,0.6022,0.6482,0.6901,0.7282,0.7282,0.7282,0.7282,0.7282,0.7282,0.7282,0.7282,0.7282,0.7129,0.5458,0.301,0.0447,0.0151,-0.0902,-0.2385,0.0,0.0,0.0,0.0,0.0,0.0,0.0,0.0,0.0,0.0,0.0,0.0,0.0,0.0,0.0,0.0,0.0,0.0,0.0,0.3518,0.3479,0.3495,0.308,0.2934,0.2948,0.2948,0.2815,0.2966,0.2695,0.253,0.233,0.2203,0.2084,0.1973,0.1893,0.1845,0.1822,0.1803,0.1806,0.1821,0.1803,0.1795,0.0,0.0,0.0,0.0,0.0,0.0,0.0,0.0,0.2745,0.3013,0.4218,0.3713,0.2988,0.3729,0.3253,0.2455,0.2803,0.2984,0.315,0.359,0.378,0.3846,0.4185,0.4274,0.4361,0.4444,0.4448,0.0,0.0,0.0,0.0,0.0,0.0,0.0,0.0,0.0,0.0,0.0,0.0,0.0,0.0,0.0,0.0,0.0,0.0,0.0,0.0,0.0,0.0,0.0,0.0,0.488,0.488,0.5461,0.5892,0.6026,0.6526,0.6838,0.7264,0.7264,0.7264,0.7264,0.7264,0.7264,0.7264,0.7264,0.6504,0.514,0.2571,0.0302,-0.1504,-0.1511,-0.1811,-0.2405,0.0,0.0,0.0,0.0,0.0,0.0,0.0,0.0,0.0,0.0,0.0,0.0,0.0,0.0,0.0,0.0,0.0,0.0,0.3436,0.3368,0.3339,0.3241,0.2841,0.2684,0.254,0.2579,0.2579,0.2844,0.2565,0.2378,0.2288,0.2166,0.2067,0.1986,0.1905,0.1869,0.1866,0.1826,0.1821,0.1838,0.1807,0.1795,0.0,0.0,0.0,0.0,0.0,0.0,0.0,0.0,0.3323,0.3702,0.5264,0.4899,0.409,0.4322,0.3642,0.2835,0.2554,0.2738,0.2921,0.32,0.3446,0.3571,0.4025,0.4431,0.457,0.4649,0.4631,0.4602,0.0,0.0,0.0,0.0,0.0,0.0,0.0,0.0,0.0,0.0,0.0,0.0,0.0,0.0,0.0,0.0,0.0,0.0,0.0,0.0,0.0,0.0,0.0,0.4818,0.4818,0.5545,0.5956,0.5905,0.6402,0.6876,0.7176,0.7176,0.7176,0.7176,0.7176,0.7176,0.7176,0.7176,0.5828,0.3436,0.0748,-0.1197,-0.2395,-0.2395,-0.2395,-0.2392,0.0,0.0,0.0,0.0,0.0,0.0,0.0,0.0,0.0,0.0,0.0,0.0,0.0,0.0,0.0,0.0,0.0,0.0,0.3322,0.3219,0.3085,0.3135,0.2546,0.2425,0.2574,0.2317,0.2273,0.2333,0.2393,0.2345,0.2198,0.2137,0.2076,0.2016,0.1957,0.1931,0.1926,0.1866,0.184,0.1838,0.1807,0.1795,0.1789,0.0,0.0,0.0,0.0,0.0,0.0,0.0,0.3364,0.3762,0.6267,0.6146,0.5274,0.5703,0.5046,0.3973,0.3132,0.2925,0.2838,0.2838,0.0,0.0,0.3757,0.4127,0.4523,0.464,0.4665,0.4665,0.4665,0.0,0.0,0.0,0.0,0.0,0.0,0.0,0.0,0.0,0.0,0.0,0.0,0.0,0.0,0.0,0.0,0.0,0.0,0.0,0.0,0.0,0.0,0.0,0.4755,0.5425,0.5827,0.5827,0.6553,0.699,0.699,0.699,0.699,0.699,0.699,0.6988,0.6988,0.6988,0.5094,0.2184,0.0583,-0.102,-0.2333,-0.2333,-0.2333,-0.2333,0.0,0.0,0.0,0.0,0.0,0.0,0.0,0.0,0.0,0.0,0.0,0.0,0.0,0.0,0.0,0.0,0.0,0.0,0.3007,0.2934,0.2778,0.253,0.2364,0.2184,0.1991,0.1994,0.2157,0.2365,0.232,0.2253,0.2166,0.2063,0.2006,0.1988,0.1949,0.1919,0.1896,0.1857,0.184,0.1838,0.1807,0.1795,0.1789,0.0,0.0,0.0,0.0,0.0,0.0,0.0,0.0,0.0,0.7581,0.6795,0.5274,0.5471,0.4157,0.2449,0.2216,0.216,0.0,0.259,0.0,0.0,0.0,0.4074,0.4288,0.0,0.4699,0.4715,0.0,0.0,0.0,0.0,0.0,0.0,0.0,0.0,0.0,0.0,0.0,0.0,0.0,0.0,0.0,0.0,0.0,0.0,0.0,0.0,0.0,0.0,0.0,0.0,0.4692,0.54,0.5827,0.5827,0.5533,0.5969,0.699,0.699,0.699,0.6988,0.5823,0.5386,0.5239,0.3057,0.1456,0.0583,-0.102,-0.1895,-0.2333,-0.2333,-0.2333,-0.2333,0.0,0.0,0.0,0.0,0.0,0.0,0.0,0.0,0.0,0.0,0.3285,0.3309,0.0,0.0,0.0,0.0,0.0,0.0,0.0,0.2705,0.2435,0.2163,0.2105,0.1926,0.1849,0.1956,0.2079,0.2219,0.2188,0.2143,0.2083,0.2046,0.2029,0.203,0.2035,0.2007,0.1954,0.1912,0.1881,0.1855,0.1825,0.1813,0.1806,0.0,0.0,0.0,0.0,0.0,0.0,0.0,0.0,0.0,0.8037,0.7243,0.568,0.5439,0.4032,0.2451,0.2036,0.1969,0.0,0.2294,0.2537,0.2794,0.3549,0.0,0.0,0.0,0.0,0.0,0.0,0.0,0.0,0.0,0.0,0.0,0.0,0.0,0.0,0.0,0.0,0.0,0.0,0.0,0.0,0.0,0.0,0.0,0.0,0.0,0.0,0.0,0.0,0.0,0.4665,0.5391,0.5535,0.4952,0.4803,0.4802,0.5094,0.5094,0.5094,0.5094,0.4221,0.3784,0.3493,0.102,0.0,-0.0146,-0.1749,-0.2333,-0.2333,-0.2333,-0.2333,-0.2333,0.0,0.0,0.2952,0.2958,0.0,0.0,0.0,0.0,0.0,0.0,0.323,0.3252,0.0,0.0,0.0,0.0,0.0,0.0,0.0,0.2398,0.2127,0.2024,0.1876,0.1839,0.1925,0.2001,0.2015,0.1964,0.2026,0.2027,0.1975,0.2061,0.2101,0.2104,0.2161,0.2137,0.2048,0.1989,0.193,0.1875,0.1847,0.1836,0.1829,0.1879,0.0,0.0,0.0,0.0,0.0,0.0,0.0,0.0,0.7913,0.7558,0.6513,0.5485,0.4516,0.346,0.2397,0.2056,0.0,0.2133,0.2175,0.0,0.3327,0.0,0.0,0.0,0.0,0.0,0.0,0.0,0.0,0.0,0.0,0.0,0.0,0.0,0.0,0.0,0.0,0.0,0.0,0.0,0.0,0.0,0.0,0.0,0.0,0.0,0.0,0.0,0.0,0.0,0.481,0.5389,0.4952,0.0,0.4075,0.3493,0.2038,0.2184,0.2184,0.2038,0.2038,0.2038,0.1747,0.0437,-0.0146,-0.0291,-0.1749,-0.2333,-0.2333,-0.2333,-0.2333,-0.2333,0.0,0.0,0.2906,0.2951,0.0,0.0,0.0,0.0,0.0,0.0,0.0,0.0,0.0,0.0,0.0,0.0,0.0,0.0,0.0,0.2267,0.1994,0.181,0.1785,0.1851,0.1894,0.1868,0.1858,0.187,0.1954,0.1977,0.1942,0.2007,0.2038,0.2039,0.2077,0.2044,0.1956,0.1895,0.1849,0.1814,0.1808,0.1805,0.191,0.2712,0.2989,0.0,0.0,0.0,0.0,0.0,0.0,0.0,0.8119,0.7583,0.6478,0.5484,0.4475,0.3475,0.2283,0.1992,0.0,0.0,0.2429,0.2673,0.3042,0.3354,0.0,0.0,0.0,0.0,0.0,0.0,0.0,0.0,0.0,0.0,0.0,0.0,0.0,0.0,0.0,0.0,0.0,0.0,0.0,0.0,0.0,0.0,0.0,0.0,0.0,0.0,0.0,0.5103,0.5103,0.466,0.4366,0.0,0.1893,0.0874,0.0583,0.1747,0.1602,0.0437,0.0437,-0.0146,-0.1311,-0.1603,-0.1749,-0.1895,-0.2187,-0.2333,-0.2333,-0.2333,-0.2333,-0.2333,0.0,0.0,0.0,0.0,0.0,0.0,0.0,0.0,0.0,0.0,0.0,0.0,0.0,0.0,0.0,0.0,0.0,0.0,0.0,0.0,0.189,0.1724,0.18,0.1834,0.1821,0.1804,0.1795,0.1797,0.1844,0.1882,0.1911,0.1971,0.2013,0.2041,0.2072,0.2036,0.195,0.1904,0.1857,0.1817,0.1817,0.2146,0.257,0.3048,0.3412,0.3975,0.5082,0.0,0.0,0.0,0.0,0.0,0.0,0.0,0.6616,0.5916,0.4781,0.3554,0.293,0.0,0.0,0.2136,0.0,0.2562,0.2903,0.3063,0.0,0.0,0.0,0.0,0.0,0.0,0.0,0.0,0.0,0.0,0.0,0.0,0.0,0.0,0.0,0.0,0.0,0.0,0.0,0.0,0.0,0.0,0.0,0.0,0.0,0.0,0.481,0.4664,0.4079,0.3931,0.3202,0.1892,0.0583,-0.0437,-0.102,-0.0291,-0.0291,-0.1166,-0.1166,-0.1603,-0.2333,-0.2333,-0.2333,-0.2333,-0.2333,-0.2333,-0.2333,-0.2333,-0.2333,-0.2333,0.0,0.0,0.0,0.0,0.0,0.0,0.0,0.0,0.0,0.0,0.0,0.0,0.0,0.0,0.0,0.0,0.0,0.0,0.0,0.0,0.0,0.1747,0.1797,0.1804,0.1759,0.1772,0.1772,0.1757,0.1747,0.1794,0.1895,0.195,0.2005,0.2057,0.2077,0.2039,0.1958,0.1917,0.1868,0.1817,0.1817,0.2362,0.31,0.3266,0.3823,0.4543,0.4863,0.5532,0.6234,0.6458,0.0,0.0,0.0,0.0,0.6804,0.6458,0.5071,0.3844,0.3738,0.2947,0.21,0.2217,0.2268,0.0,0.2763,0.277,0.2916,0.0,0.0,0.0,0.0,0.0,0.0,0.0,0.0,0.0,0.0,0.0,0.0,0.0,0.0,0.0,0.0,0.0,0.0,0.0,0.0,0.0,0.0,0.0,0.4518,0.4226,0.4371,0.3788,0.2621,0.2766,0.1748,-0.0437,-0.0437,-0.102,-0.2333,-0.2333,-0.2333,-0.2333,-0.2333,-0.2333,-0.2333,-0.2333,-0.2333,-0.2333,-0.2333,-0.2333,-0.2333,-0.2333,-0.2333,-0.2333,0.0,0.0,0.0,0.0,0.0,0.0,0.0,0.0,0.0,0.0,0.323,0.323,0.0,0.3027,0.2826,0.2826,0.2323,0.2021,0.2022,0.0,0.0,0.1747,0.1757,0.177,0.1789,0.1741,0.174,0.1789,0.1736,0.1784,0.1926,0.196,0.1994,0.2024,0.2003,0.1958,0.1892,0.1809,0.1754,0.1722,0.1722,0.1827,0.214,0.3985,0.457,0.4749,0.6483,0.7141,0.7054,0.7172,0.7313,0.0,0.0,0.0,0.7314,0.63,0.5312,0.4496,0.3551,0.0,0.2126,0.0,0.2268,0.2298,0.0,0.0,0.0,0.0,0.0,0.0,0.0,0.0,0.0,0.0,0.0,0.0,0.0,0.0,0.0,0.0,0.0,0.0,0.0,0.0,0.0,0.0,0.0,0.0,0.4665,0.4665,0.4079,0.2621,0.2912,0.2621,0.1455,0.0437,-0.0,-0.0146,-0.1312,-0.2041,-0.2333,-0.2333,-0.2333,-0.2333,-0.2333,-0.2333,-0.2333,-0.2333,-0.2333,-0.2333,-0.2333,-0.2333,-0.2333,-0.2333,-0.2333,-0.2333,0.0,0.0,0.0,0.0,0.0,0.0,0.0,0.0,0.0,0.0,0.0,0.313,0.3027,0.2826,0.2725,0.2424,0.2122,0.1921,0.1819,0.1748,0.1674,0.17,0.1716,0.1723,0.172,0.1695,0.1694,0.172,0.1694,0.1758,0.1906,0.1919,0.1959,0.2016,0.1971,0.1917,0.1855,0.1781,0.1732,0.1704,0.1704,0.2046,0.2835,0.3988,0.4816,0.5406,0.6735,0.7045,0.7059,0.7295,0.7391,0.7241,0.7217,0.0,0.0,0.0,0.5324,0.4463,0.2897,0.23,0.2153,0.0,0.228,0.2318,0.233,0.0,0.0,0.0,0.0,0.0,0.0,0.0,0.0,0.0,0.0,0.0,0.0,0.0,0.0,0.0,0.0,0.0,0.0,0.0,0.0,0.0,0.0,0.4371,0.3787,0.3496,0.2766,0.1455,0.131,0.0873,-0.0146,-0.0728,-0.102,-0.1312,-0.2041,-0.2333,-0.2333,-0.2333,-0.2333,-0.2333,-0.2333,-0.2333,-0.2333,-0.2333,-0.2333,-0.2333,-0.2333,-0.2333,-0.2333,-0.2333,-0.2333,-0.2333,0.0,0.0,0.0,0.0,0.0,0.0,0.0,0.0,0.0,0.0,0.0,0.3027,0.2725,0.0,0.0,0.0,0.1921,0.1819,0.1617,0.1638,0.1651,0.1651,0.1671,0.1672,0.1651,0.1651,0.1654,0.1662,0.1669,0.175,0.1898,0.1905,0.1956,0.2039,0.1973,0.1909,0.1847,0.1778,0.1845,0.2037,0.1823,0.2394,0.3437,0.3892,0.4568,0.53,0.65,0.6705,0.0,0.0,0.0,0.0,0.0,0.0,0.0,0.0,0.0,0.4065,0.2422,0.0,0.2127,0.2204,0.2266,0.2315,0.0,0.0,0.0,0.0,0.0,0.0,0.0,0.0,0.0,0.0,0.0,0.0,0.0,0.0,0.0,0.0,0.0,0.0,0.0,0.0,0.0,0.0,0.0,0.3788,0.2912,0.233,0.1456,0.0,-0.0146,-0.0728,-0.1749,-0.1603,-0.1749,-0.2333,-0.2333,-0.2333,-0.2333,-0.2333,-0.2333,-0.2333,-0.2333,-0.2333,-0.2333,-0.2333,-0.2333,-0.2333,-0.2333,-0.2333,-0.2333,-0.2333,-0.2333,-0.2333,0.0,0.0,0.0,0.0,0.0,0.0,0.0,0.0,0.0,0.0,0.0,0.2725,0.2422,0.2222,0.2022,0.2022,0.1718,0.1617,0.1617,0.1618,0.162,0.162,0.1621,0.0,0.162,0.162,0.1633,0.1662,0.1689,0.178,0.1929,0.1958,0.2019,0.2101,0.2014,0.194,0.1877,0.1788,0.2185,0.2836,0.2074,0.2404,0.3297,0.3677,0.3744,0.3845,0.621,0.0,0.0,0.0,0.0,0.0,0.0,0.0,0.0,0.0,0.0,0.0,0.2175,0.1916,0.2014,0.213,0.2205,0.2264,0.0,0.0,0.0,0.0,0.0,0.0,0.0,0.0,0.0,0.0,0.0,0.0,0.0,0.0,0.0,0.0,0.0,0.0,0.0,0.0,0.0,0.0,0.0,0.2912,0.2912,0.1894,0.0437,-0.1455,-0.1311,-0.1895,-0.3354,-0.2625,-0.2333,-0.2333,-0.2333,-0.2333,-0.2333,-0.2333,-0.2333,-0.2333,-0.2333,-0.2333,-0.2333,-0.2333,-0.2333,-0.2333,-0.2333,-0.2333,-0.2333,-0.2333,-0.2333,-0.2333,0.0,0.0,0.0,0.0,0.0,0.0,0.0,0.0,0.0,0.0,0.0,0.0,0.0,0.2021,0.1921,0.1718,0.1617,0.1617,0.1617,0.1617,0.1617,0.1617,0.1617,0.1617,0.1617,0.1617,0.1622,0.1633,0.1643,0.1715,0.1844,0.1875,0.1937,0.2022,0.1991,0.1943,0.1879,0.2319,0.2669,0.2965,0.2816,0.2898,0.3213,0.231,0.0,0.0,0.0,0.0,0.0,0.0,0.0,0.0,0.0,0.0,0.0,0.0,0.0,0.2283,0.1932,0.1893,0.1848,0.2071,0.2157,0.2227,0.2267,0.0,0.0,0.0,0.0,0.0,0.0,0.0,0.0,0.0,0.0,0.0,0.0,0.0,0.0,0.0,0.0,0.0,0.0,0.0,0.0,0.0,0.0,0.0,0.1894,0.0291,-0.1165,-0.2477,-0.2624,-0.277,-0.3063,-0.2625,-0.2333,-0.2333,-0.2333,-0.2333,-0.2333,-0.2333,-0.2333,-0.2333,-0.2333,-0.2333,-0.2333,-0.2333,-0.2333,-0.2333,-0.2333,-0.2333,-0.2333,-0.2333,-0.2333,-0.2333,0.0,0.0,0.0,0.0,0.0,0.0,0.0,0.0,0.0,0.212,0.0,0.0,0.0,0.0,0.1819,0.1617,0.1617,0.1617,0.1617,0.1617,0.1617,0.1617,0.1617,0.1617,0.1617,0.1617,0.1617,0.1617,0.1627,0.1683,0.178,0.1821,0.1883,0.1961,0.2316,0.2425,0.2523,0.2845,0.3409,0.3911,0.3598,0.3577,0.3771,0.0,0.0,0.0,0.0,0.0,0.0,0.0,0.0,0.0,0.0,0.0,0.0,0.0,0.0,0.0,0.1767,0.1724,0.1564,0.1897,0.2094,0.2163,0.2254,0.0,0.0,0.0,0.0,0.0,0.0,0.0,0.0,0.0,0.0,0.0,0.0,0.0,0.0,0.0,0.0,0.0,0.0,0.0,0.0,0.0,0.0,0.0,0.102,-0.1019,-0.2331,-0.2625,-0.3063,-0.3063,-0.277,-0.2478,-0.2333,-0.2333,-0.2333,-0.2333,-0.2333,-0.2333,-0.2333,-0.2333,-0.2333,-0.2333,-0.2333,-0.2333,-0.2333,-0.2333,-0.2333,-0.2333,-0.2333,-0.2333,-0.2333,-0.2333,0.0,0.0,0.0,0.0,0.0,0.0,0.0,0.0,0.2221,0.1718,0.0,0.0,0.0,0.0,0.0,0.162,0.162,0.1619,0.1617,0.1617,0.1617,0.1617,0.1617,0.1617,0.1617,0.1617,0.1617,0.1617,0.1647,0.1691,0.175,0.181,0.187,0.1927,0.2846,0.338,0.3515,0.3528,0.4402,0.5766,0.0,0.4352,0.4868,0.0,0.0,0.0,0.6216,0.5676,0.0,0.443,0.0,0.0,0.0,0.0,0.0,0.0,0.0,0.0,0.0,0.0,0.0,0.0,0.0,0.0,0.2275,0.0,0.0,0.0,0.0,0.0,0.0,0.0,0.0,0.0,0.0,0.0,0.0,0.0,0.0,0.0,0.0,0.0,0.0,0.0,0.0,0.0,0.0,0.0582,0.0582,-0.1602,-0.277,-0.2333,-0.2625,-0.277,-0.2333,-0.2333,-0.2333,-0.2333,-0.2333,-0.2333,-0.2333,-0.2333,-0.2333,-0.2333,-0.2333,-0.2333,-0.2333,-0.2333,-0.2333,-0.2333,-0.2333,-0.2333,-0.2333,-0.2333,-0.2333,-0.2333,0.0,0.0,0.0,0.0,0.0,0.0,0.1705,0.1712,0.1818,0.0,0.0,0.0,0.162,0.1654,0.168,0.168,0.168,0.1662,0.162,0.1617,0.1617,0.1617,0.1617,0.1617,0.1617,0.1617,0.1617,0.1617,0.1625,0.166,0.1718,0.1757,0.1807,0.1866,0.27,0.3555,0.4421,0.4804,0.0,0.6018,0.6341,0.5371,0.0,0.0,0.0,0.0,0.0,0.4689,0.3883,0.0,0.3882,0.4555,0.0,0.0,0.0,0.0,0.0,0.0,0.1748,0.0,0.0,0.0,0.0,0.0,0.2057,0.2146,0.0,0.0,0.0,0.0,0.0,0.0,0.0,0.0,0.0,0.0,0.0,0.0,0.0,0.0,0.0,0.0,0.0,0.0,0.0,0.0,0.1164,-0.0146,-0.1019,-0.2186,-0.2916,-0.277,-0.2625,-0.2625,-0.277,-0.2478,-0.2478,-0.277,-0.2478,-0.2333,-0.2333,-0.2333,-0.2333,-0.2333,-0.2333,-0.2333,-0.2333,-0.2333,-0.2333,-0.2333,-0.2333,-0.2333,-0.2333,-0.2333,-0.2333,-0.2333,0.0,0.0,0.1621,0.1634,0.0,0.1653,0.1653,0.1653,0.1653,0.0,0.0,0.0,0.1654,0.1718,0.1746,0.1707,0.1704,0.1684,0.1639,0.1624,0.1617,0.1617,0.1617,0.1623,0.1635,0.1624,0.1623,0.1636,0.1636,0.1647,0.1669,0.1724,0.1974,0.2319,0.3163,0.409,0.5065,0.5793,0.0,0.0,0.7365,0.0,0.0,0.4698,0.4776,0.0,0.0,0.0,0.3418,0.2992,0.3245,0.0,0.0,0.0,0.0,0.0,0.0,0.0,0.0,0.1804,0.0,0.0,0.0,0.0,0.2046,0.2118,0.2185,0.0,0.0,0.0,0.0,0.0,0.0,0.0,0.0,0.0,0.0,0.0,0.0,0.0,0.0,0.0,0.0,0.0,0.0,0.2475,0.0873,-0.0873,-0.2621,-0.3206,-0.3208,-0.2916,-0.2625,-0.2625,-0.2916,-0.2625,-0.2625,-0.2916,-0.2625,-0.2478,-0.2333,-0.2333,-0.2333,-0.2333,-0.2333,-0.2333,-0.2333,-0.2333,-0.2333,-0.2333,-0.2333,-0.2333,-0.2333,-0.2333,-0.2333,-0.2333,0.0,0.0,0.1632,0.1662,0.169,0.1712,0.1718,0.1714,0.1713,0.0,0.1699,0.1694,0.1726,0.1795,0.1808,0.1727,0.1713,0.1696,0.1665,0.1634,0.1617,0.1617,0.162,0.1633,0.1656,0.1637,0.1637,0.1657,0.166,0.1753,0.173,0.1921,0.2359,0.3125,0.3973,0.4849,0.551,0.6476,0.0,0.7148,0.7736,0.7565,0.0,0.0,0.1585,0.0,0.4264,0.4141,0.3313,0.241,0.2569,0.0,0.0,0.0,0.0,0.0,0.3212,0.0,0.0,0.0,0.0,0.0,0.0,0.0,0.2115,0.2126,0.2136,0.0,0.0,0.0,0.0,0.0,0.0,0.0,0.0,0.0,0.0,0.0,0.0,0.0,0.0,0.0,0.0,0.421,0.392,0.2178,0.0436,-0.1601,-0.4079,-0.408,-0.3789,-0.3063,-0.2917,-0.2917,-0.2917,-0.2916,-0.2916,-0.2917,-0.2916,-0.2625,-0.2333,-0.2333,-0.2333,-0.2333,-0.2333,-0.2333,-0.2333,-0.2333,-0.2333,-0.2333,-0.2333,-0.2333,-0.2333,-0.2333,-0.2333,-0.2333,0.2725,0.2045,0.1662,0.1691,0.1721,0.1757,0.1806,0.1772,0.1767,0.184,0.1824,0.1826,0.1881,0.1859,0.1833,0.1815,0.1769,0.1718,0.1666,0.1634,0.1617,0.1617,0.164,0.1645,0.1626,0.1666,0.1667,0.1626,0.165,0.2088,0.2739,0.2767,0.3196,0.4022,0.49,0.5288,0.5516,0.0,0.0,0.5987,0.6343,0.0,0.4338,0.3713,0.3083,0.2405,0.2687,0.2572,0.2448,0.0,0.2581,0.3221,0.0,0.0,0.0,0.0,0.0,0.0,0.0,0.0,0.0,0.0,0.0,0.0,0.1881,0.1958,0.2038,0.0,0.0,0.0,0.0,0.0,0.0,0.0,0.0,0.0,0.0,0.0,0.0,0.0,0.0,0.0,0.0,0.3815,0.2979,0.0573,-0.217,-0.4079,-0.4518,-0.4226,-0.3935,-0.3355,-0.3355,-0.3355,-0.3355,-0.3063,-0.3063,-0.3355,-0.277,-0.2333,-0.2333,-0.2333,-0.2333,-0.2333,-0.2333,-0.2333,-0.2333,-0.2333,-0.2333,-0.2333,-0.2333,-0.2333,-0.2333,-0.2333,-0.2333,-0.2478,0.3033,0.258,0.222,0.1829,0.1765,0.1815,0.1877,0.1847,0.196,0.1921,0.1943,0.1947,0.1932,0.193,0.1905,0.1845,0.1785,0.1731,0.1686,0.1641,0.1617,0.1617,0.1632,0.1646,0.166,0.166,0.166,0.166,0.2076,0.249,0.2903,0.2955,0.342,0.4305,0.465,0.5057,0.562,0.0,0.669,0.6559,0.6053,0.0,0.3618,0.3328,0.2828,0.2155,0.2155,0.2164,0.2173,0.2142,0.2353,0.0,0.0,0.2925,0.2658,0.0,0.2806,0.1924,0.0,0.0,0.0,0.1909,0.0,0.0,0.0,0.1942,0.1988,0.0,0.0,0.0,0.0,0.0,0.0,0.0,0.0,0.0,0.0,0.0,0.0,0.0,0.0,0.0,0.0,0.3646,0.2811,0.0424,-0.242,-0.4003,-0.4003,-0.4029,-0.3899,-0.3467,-0.3489,-0.3646,-0.379,-0.3208,-0.3063,-0.3501,-0.2916,-0.2479,-0.2333,-0.2333,-0.2769,-0.3496,-0.3496,-0.393,-0.4654,-0.4654,-0.4636,-0.4327,-0.2907,-0.2333,-0.2333,-0.2333,-0.2769,-0.3641,0.3441,0.3012,0.2779,0.1954,0.1801,0.1868,0.1923,0.191,0.2034,0.1969,0.2022,0.2028,0.1956,0.198,0.1965,0.1874,0.1811,0.1761,0.1724,0.1672,0.1642,0.1642,0.1632,0.1653,0.1712,0.1764,0.1857,0.1898,0.2711,0.3184,0.3331,0.3441,0.3831,0.4511,0.4443,0.4996,0.584,0.0,0.0,0.7054,0.0,0.4971,0.4197,0.2767,0.227,0.2539,0.2285,0.2155,0.2155,0.2155,0.0,0.2598,0.2969,0.2824,0.0,0.0,0.0,0.0,0.0,0.0,0.0,0.0,0.0,0.1922,0.0,0.0,0.0,0.0,0.0,0.0,0.0,0.0,0.0,0.0,0.0,0.0,0.0,0.0,0.0,0.0,0.0,0.0,0.0,0.3192,0.2359,0.0558,-0.1949,-0.3486,-0.3364,-0.3684,-0.3705,-0.3419,-0.3464,-0.3777,-0.392,-0.3348,-0.3209,-0.3501,-0.3063,-0.2916,-0.2769,-0.2769,-0.364,-0.5091,-0.5091,-0.5813,-0.6968,-0.6952,-0.6905,-0.6565,-0.4187,-0.3188,-0.318,-0.318,-0.3908,-0.5072,0.4547,0.3527,0.2662,0.1815,0.1804,0.1892,0.1926,0.1928,0.1938,0.1972,0.2004,0.202,0.2009,0.1968,0.0,0.196,0.0,0.0,0.1789,0.0,0.1735,0.1735,0.1685,0.1684,0.1744,0.2458,0.2714,0.2641,0.3497,0.4407,0.5238,0.5449,0.546,0.5399,0.562,0.0,0.0,0.0,0.5728,0.0,0.5072,0.5512,0.0,0.3289,0.2844,0.3506,0.2534,0.2155,0.2155,0.0,0.3088,0.3863,0.0,0.3013,0.3829,0.0,0.0,0.0,0.0,0.0,0.0,0.0,0.197,0.0,0.0,0.0,0.0,0.0,0.0,0.0,0.0,0.0,0.0,0.0,0.0,0.0,0.0,0.0,0.0,0.0,0.0,0.0,0.0,0.0,0.0134,0.0412,-0.2176,-0.369,-0.3361,-0.3509,-0.3232,-0.295,-0.3559,-0.387,-0.3584,-0.3768,-0.379,-0.3501,-0.3063,-0.3498,-0.4366,-0.4366,-0.5236,-0.668,-0.668,-0.6825,-0.6962,-0.6743,-0.6707,-0.6701,-0.6425,-0.6241,-0.6034,-0.6034,-0.6222,-0.6703,0.5144,0.429,0.3444,0.2559,0.2125,0.1876,0.1924,0.199,0.2033,0.2028,0.2068,0.2091,0.0,0.0,0.0,0.0,0.0,0.1886,0.0,0.0,0.176,0.1725,0.2229,0.0,0.2475,0.3276,0.3741,0.3789,0.4589,0.5271,0.5834,0.6047,0.6076,0.6008,0.552,0.0,0.5713,0.0,0.5894,0.0,0.0,0.0,0.0,0.4094,0.3172,0.278,0.2413,0.2155,0.2155,0.0,0.2558,0.0,0.0,0.0,0.0,0.0,0.0,0.0,0.0,0.0,0.0,0.0,0.0,0.0,0.0,0.0,0.1831,0.0,0.0,0.0,0.0,0.0,0.0,0.0,0.0,0.0,0.0,0.0,0.0,0.0,0.0,0.0,0.0,0.0,0.0,0.0,0.0,-0.3381,-0.3283,-0.3586,-0.3603,-0.3464,-0.3791,-0.3974,-0.4145,-0.3882,-0.3618,-0.3501,-0.3935,-0.4369,-0.4658,-0.567,-0.6827,-0.8273,-0.8273,-0.8853,-0.9715,-0.9448,-0.9355,-0.9282,-0.9212,-0.8082,-0.6563,-0.6563,-0.7148,-0.8021,0.5842,0.5116,0.4286,0.3176,0.2538,0.2082,0.192,0.2005,0.0,0.0,0.0,0.0,0.2121,0.2087,0.0,0.0,0.2009,0.1954,0.0,0.0,0.182,0.0,0.0,0.0,0.0,0.4019,0.4656,0.4864,0.5585,0.6137,0.6437,0.6661,0.665,0.6468,0.0,0.5454,0.5491,0.0,0.0,0.4936,0.6024,0.5686,0.4476,0.4284,0.3344,0.2155,0.2155,0.2155,0.2155,0.2155,0.2424,0.0,0.2289,0.0,0.0,0.0,0.0,0.0,0.1933,0.0,0.0,0.0,0.0,0.0,0.0,0.0,0.0,0.0,0.0,0.0,0.0,0.0,0.0,0.0,0.0,0.0,0.0,0.0,0.0,0.0,0.0,0.0,0.0,0.0,0.0,0.0,0.0,0.0,-0.3227,-0.3532,-0.3689,-0.3689,-0.3876,-0.4063,-0.4383,-0.3988,-0.3736,-0.3628,-0.4798,-0.5385,-0.5526,-0.6972,-0.842,-0.9873,-0.9873,-1.0599,-1.1603,-1.1409,-1.1263,-1.1145,-1.0958,-0.9579,-0.7594,-0.7594,-0.8443,-0.9437,0.6842,0.6136,0.5182,0.3524,0.0,0.2737,0.0,0.0,0.0,0.0,0.0,0.0,0.0,0.0,0.0,0.0,0.0,0.2078,0.2017,0.0,0.1951,0.0,0.0,0.3099,0.0,0.0,0.5482,0.5796,0.6398,0.7045,0.755,0.7785,0.7443,0.676,0.7241,0.6778,0.5653,0.5788,0.5227,0.4048,0.3817,0.3099,0.2405,0.0,0.315,0.2155,0.2155,0.0,0.0,0.2155,0.3094,0.0,0.0,0.0,0.0,0.0,0.0,0.0,0.0,0.0,0.0,0.163,0.0,0.0,0.0,0.0,0.191,0.0,0.0,0.0,0.0,0.0,0.1864,0.1806,0.1822,0.0,0.0,0.0,0.0,0.0,0.0,0.0,0.0,0.0,0.0,0.0,0.0,0.0,-0.3224,-0.323,-0.323,-0.323,-0.3685,-0.385,-0.399,-0.4374,-0.4432,-0.4009,-0.521,-0.6397,-0.7553,-0.8711,-1.0017,-1.1476,-1.1476,-1.1619,-1.1596,-1.1294,-1.1168,-1.1134,-1.0843,-1.0595,-1.0601,-1.0601,-1.0692,-1.0799,0.7785,0.7409,0.6691,0.0,0.0,0.0,0.0,0.3359,0.0,0.0,0.0,0.0,0.0,0.0,0.2132,0.0,0.0,0.2114,0.2052,0.203,0.0,0.0,0.0,0.3517,0.0,0.0,0.6431,0.7365,0.7531,0.7717,0.7823,0.8069,0.7921,0.7408,0.0,0.6266,0.0,0.0,0.0,0.0,0.0,0.2346,0.218,0.0,0.0,0.2155,0.2155,0.2155,0.0,0.2155,0.2558,0.2826,0.2289,0.2558,0.2826,0.2289,0.1211,0.0,0.0,0.0,-0.1065,0.0256,0.0,0.0,0.0,0.0,0.0,0.0,0.0,0.0,0.0,0.0,0.1866,0.1805,0.1821,0.1809,0.0,0.0,0.0,0.0,0.0,0.0,0.0,0.0,0.0,0.0,0.0,0.0,0.0,-0.3902,-0.3902,-0.3902,-0.4057,-0.4221,-0.4259,-0.4437,-0.4635,-0.514,-0.659,-0.7782,-0.8711,-1.0164,-1.1181,-1.1619,-1.1619,-1.1619,-1.1603,-1.1399,-1.1253,-1.1145,-1.0948,-1.0809,-1.0721,-1.0721,-1.0755,-1.0792,0.8243,0.0,0.0,0.0,0.0,0.0,0.0,0.0,0.0,0.0,0.2754,0.0,0.2168,0.0,0.2159,0.0,0.2161,0.2138,0.2099,0.2076,0.0,0.204,0.2868,0.0,0.0,0.0,0.6734,0.7422,0.7917,0.8084,0.7927,0.8021,0.7979,0.7822,0.0,0.6424,0.5184,0.0,0.4309,0.0,0.0,0.2114,0.0,0.0,0.2171,0.217,0.0,0.2155,0.2155,0.2155,0.2155,0.2155,0.2155,0.2155,0.2155,0.1615,0.0403,-0.0806,-0.0806,-0.1746,0.0,-0.1556,-0.1016,0.0,0.0241,0.0,0.0,0.0,0.0,0.0,0.0,0.0,0.1779,0.1147,0.1475,0.1774,0.0,0.168,0.0,0.0,0.0,0.0,0.0,0.0,0.0,0.0,0.0,0.0,0.0,0.0,-0.4308,-0.4308,-0.4308,-0.4326,-0.4365,-0.4388,-0.486,-0.5948,-0.7396,-0.8607,-0.9726,-1.1034,-1.1619,-1.1763,-1.1619,-1.1619,-1.1606,-1.1453,-1.1301,-1.1148,-1.1002,-1.0856,-1.0721,-1.0721,-1.0721,-1.0721,0.8184,0.0,0.0,0.0,0.6115,0.0,0.0,0.0,0.4042,0.0,0.3038,0.2164,0.2194,0.2172,0.2166,0.2195,0.2172,0.0,0.2155,0.2101,0.0,0.0,0.2936,0.3259,0.3477,0.0,0.0,0.0,0.7452,0.7993,0.7759,0.7753,0.7816,0.7952,0.8469,0.0,0.5056,0.5545,0.4376,0.2155,0.2157,0.2158,0.2162,0.2191,0.0,0.22,0.217,0.2159,0.2159,0.2159,0.2159,0.2159,0.2159,0.2158,0.1887,0.0404,-0.0941,-0.2148,-0.2148,-0.3223,-0.4274,-0.3771,0.0,0.0,0.0,0.0,-0.1961,0.0,0.0,0.0,0.0,0.0,0.0,0.0,0.0903,0.173,0.1675,0.0,0.0,0.0,0.0,0.0,0.0,0.0,0.0,0.0,0.0,0.0,0.0,0.0,-0.4298,-0.4308,-0.4308,-0.4308,-0.4308,-0.4361,-0.5104,-0.6281,-0.7492,-0.8876,-1.0578,-1.1319,-1.1907,-1.2194,-1.1763,-1.1619,-1.1609,-1.1463,-1.1311,-1.1158,-1.1016,-1.086,-1.0721,-1.0721,-1.0721,-1.0721,0.8676,0.8575,0.8514,0.0,0.7801,0.7575,0.0,0.0,0.0,0.0,0.3404,0.2133,0.2163,0.2159,0.2158,0.2166,0.2159,0.0,0.0,0.0,0.0,0.2154,0.239,0.2877,0.3734,0.4283,0.0,0.6882,0.6965,0.7312,0.7946,0.7847,0.7656,0.7393,0.0,0.0,0.481,0.5107,0.4076,0.2157,0.2179,0.2202,0.0,0.0,0.2248,0.2264,0.2233,0.2222,0.2222,0.2222,0.2222,0.2222,0.2222,0.2206,0.1914,0.041,-0.0948,-0.2282,-0.3492,-0.4836,-0.5635,-0.4396,-0.4581,-0.4501,0.0,0.0,0.0,0.0,0.0,0.0,0.0,0.0,0.0,0.1165,0.1569,0.1744,0.0,0.0,0.0,0.0,0.0,0.0,0.0,0.0,0.0,0.0,0.0,0.0,0.0,0.0,0.0,-0.4304,-0.4308,-0.4308,-0.4308,-0.5075,-0.6158,-0.7591,-0.8788,-1.0291,-1.1699,-1.1941,-1.2051,-1.2194,-1.1763,-1.1619,-1.1616,-1.1575,-1.147,-1.1318,-1.1168,-1.0948,-1.0721,-1.0721,-1.0721,-1.0721,0.9384,0.0,0.0,0.8788,0.0,0.0,0.787,0.0,0.0,0.5768,0.4064,0.0,0.3065,0.2548,0.2155,0.2155,0.2155,0.0,0.0,0.0,0.0,0.2155,0.2155,0.2539,0.3152,0.3646,0.0,0.6209,0.0,0.0,0.7746,0.7564,0.7472,0.7244,0.0,0.6753,0.5309,0.4772,0.3606,0.2195,0.2199,0.0,0.0,0.226,0.2276,0.229,0.2286,0.2267,0.2245,0.2245,0.2245,0.2245,0.2245,0.1674,0.097,-0.0554,-0.2063,-0.3554,-0.4927,-0.5998,-0.6377,-0.5562,-0.5874,-0.6043,-0.4465,-0.4493,-0.4632,0.0,0.0,0.0,0.0,0.0,0.0,0.0,0.0,0.0,0.0,0.0,0.0,0.0,0.0,0.0,0.0,0.0,0.0,0.0,0.0,0.0,0.0,0.0,0.0,-0.4225,-0.4146,-0.4172,-0.4308,-0.4669,-0.5861,-0.8046,-0.8883,-1.0241,-1.2138,-1.219,-1.2194,-1.2194,-1.1763,-1.1619,-1.1619,-1.1619,-1.1531,-1.1375,-1.1223,-1.1023,-1.0819,-1.0819,-1.0778,-1.0721,0.0,0.0,0.0,0.0,0.0,0.0,0.0,0.7328,0.0,0.5927,0.0,0.389,0.3843,0.2818,0.2166,0.2166,0.0,0.2166,0.2166,0.2166,0.2166,0.2166,0.2163,0.2161,0.2161,0.3359,0.0,0.0,0.0,0.0,0.728,0.7285,0.7233,0.7342,0.0,0.0,0.0,0.4337,0.3006,0.2238,0.2219,0.2228,0.2254,0.2285,0.2296,0.23,0.2324,0.23,0.2257,0.2257,0.2257,0.2116,0.1975,0.0985,-0.0421,-0.1964,-0.3502,-0.4896,-0.6304,-0.6668,-0.6609,-0.6609,-0.6539,-0.6474,-0.648,-0.6472,-0.6464,-0.6464,-0.5112,-0.4433,0.0,0.0,0.0,0.0,0.0,0.0,0.0,0.0,0.0,0.0,0.0,0.0,0.0,0.0,0.0,0.0,0.0,0.0,0.0,0.0,0.0,-0.415,-0.3985,0.0,-0.4308,0.0,-0.5354,-0.8002,-0.8512,-0.9865,-1.2212,-1.2168,-1.2194,-1.2194,-1.1763,-1.1619,-1.1619,-1.1619,-1.1531,-1.1379,-1.1246,-1.1104,-1.0978,-1.0978,-1.088,-1.0748,0.0,0.0,0.0,0.0,0.0,0.8032,0.6489,0.5253,0.4522,0.4446,0.3361,0.26,0.2593,0.2349,0.223,0.223,0.223,0.0,0.0,0.0,0.0,0.223,0.2206,0.2192,0.2192,0.241,0.3012,0.0,0.0,0.0,0.6457,0.7026,0.7315,0.7342,0.0,0.0,0.4908,0.3168,0.0,0.2212,0.2257,0.2278,0.2286,0.2315,0.2325,0.2326,0.2331,0.2326,0.2318,0.2318,0.2318,0.2027,0.0724,0.0144,-0.0569,-0.3271,-0.4373,-0.4896,-0.6304,-0.6715,-0.6702,-0.6702,-0.6635,-0.6568,-0.6568,-0.6509,-0.6455,-0.6455,-0.6185,-0.5741,-0.4952,0.0,0.0,0.0,0.0,0.0,0.0,0.0,0.0,0.0,0.0,0.0,0.0,0.0,0.0,0.0,0.0,0.0,0.0,0.0,0.0,0.0,0.0,0.0,0.0,0.0,-0.6165,-0.7644,-0.9024,-1.0496,-1.1885,-1.2071,-1.2194,-1.2194,-1.1763,-1.1619,-1.1619,-1.1619,-1.1531,-1.1389,-1.1362,-1.126,-1.1124,-1.1124,-1.1033,-1.089,0.0,0.0,0.0,0.0,0.0,0.0,0.0,0.5615,0.0,0.4127,0.3659,0.3297,0.3297,0.2643,0.2245,0.2245,0.2245,0.2245,0.2245,0.2245,0.2245,0.2245,0.2232,0.0,0.2223,0.2195,0.2676,0.3608,0.0,0.0,0.5516,0.6586,0.6993,0.666,0.0,0.585,0.0,0.0,0.0,0.2271,0.2285,0.23,0.2314,0.2328,0.2333,0.2333,0.2333,0.2333,0.2333,0.2333,0.1749,0.102,0.0291,-0.116,-0.274,-0.418,-0.5167,-0.5999,-0.6719,-0.6829,-0.6792,-0.6792,-0.6725,-0.666,-0.666,-0.659,-0.6525,-0.6525,-0.6486,-0.5984,-0.436,-0.3126,0.0,0.0,0.0,0.0,0.0,0.0,0.0,0.0,0.0,0.0,0.0,0.0,0.0,0.0,0.0,0.0,0.0,0.0,0.0,0.0,0.0,0.0,0.0,0.0,0.0,-0.8486,-0.9451,-1.0518,-1.1538,-1.2046,-1.2051,-1.1907,-1.1619,-1.1619,-1.1619,-1.1619,-1.1575,-1.1508,-1.1508,-1.1416,-1.128,-1.1001,-1.0908,-1.0773,0.0,1.2275,0.0,0.0,1.04,0.0,0.0,0.7074,0.5011,0.435,0.398,0.3739,0.3739,0.2805,0.2264,0.2264,0.2264,0.2264,0.2264,0.2264,0.2264,0.2264,0.2258,0.2255,0.2255,0.2249,0.2602,0.0,0.0,0.0,0.0,0.5883,0.0,0.0,0.0,0.0,0.0,0.0,0.3125,0.2322,0.2306,0.2313,0.2333,0.2333,0.2333,0.2333,0.2333,0.2333,0.2333,0.2333,0.1312,-0.0,-0.0437,-0.2475,-0.4803,-0.5094,-0.6114,-0.699,-0.699,-0.6937,-0.6882,-0.6882,-0.6817,-0.6754,-0.6754,-0.6684,-0.6619,-0.6619,-0.6545,-0.5994,-0.4197,-0.3521,0.0,0.0,0.0,0.0,0.0,0.0,0.0,0.0,0.0,0.0,0.0,0.0,0.0,0.0,0.0,0.0,0.0,0.0,0.0,0.0,0.0,-0.5719,-0.5727,0.0,-0.8073,0.0,-0.9639,-1.0305,-1.1185,-1.1745,-1.1876,-1.1616,-1.1586,-1.1569,-1.1572,-1.1606,-1.1619,-1.1619,-1.1619,-1.1545,-1.1298,-1.1015,-1.0639,-1.0521,0.0,0.0,0.0,0.0,0.0,0.0,0.0,0.9062,0.7061,0.4884,0.339,0.2425,0.2425,0.2307,0.2324,0.2324,0.2324,0.2324,0.2324,0.2324,0.2324,0.2324,0.23,0.2287,0.2287,0.226,0.2213,0.0,0.0,0.0,0.0,0.0,0.0,0.0,0.0,0.0,0.0,0.2633,0.2406,0.2296,0.232,0.233,0.2333,0.2333,0.2333,0.2333,0.2333,0.2333,0.2333,0.2333,0.1312,-0.0291,-0.1602,-0.3347,-0.4949,-0.6406,-0.6843,-0.699,-0.699,-0.6984,-0.6976,-0.6976,-0.6909,-0.6841,-0.6841,-0.6776,-0.6715,-0.6715,-0.6641,-0.6065,-0.4204,-0.5072,-0.4978,0.0,0.0,0.0,0.0,0.0,0.0,0.0,0.0,0.0,0.0,0.0,0.0,0.0,0.0,0.0,0.0,0.0,0.0,-0.3733,0.0,-0.5295,-0.5295,-0.6755,0.0,-0.8909,-0.9192,-0.986,-1.0938,-1.1263,-1.1487,-1.1613,-1.147,-1.1413,-1.1423,-1.1562,-1.1619,-1.1619,-1.1619,-1.1322,-1.1025,-1.1025,-1.0646,-1.026,0.0,0.0,0.0,0.0,0.0,0.0,0.0,1.1265,0.9749,0.8287,0.5608,0.3326,0.246,0.2326,0.2333,0.2333,0.2333,0.2333,0.2333,0.2333,0.2333,0.2333,0.2322,0.2316,0.2316,0.2304,0.226,0.0,0.0,0.0,0.0,0.0,0.0,0.0,0.0,0.3236,0.2733,0.2406,0.2305,0.2317,0.2328,0.2333,0.2333,0.2333,0.2333,0.2333,0.2333,0.2333,0.2333,0.2333,0.1312,-0.0291,-0.1747,-0.3347,-0.4949,-0.6551,-0.699,-0.699,-0.699,-0.699,-0.699,-0.699,-0.6962,-0.6935,-0.6935,-0.6866,-0.6803,-0.6803,-0.6549,-0.5983,-0.5012,-0.4849,-0.4407,0.0,0.0,0.0,0.0,0.0,0.0,0.0,0.0,0.0,0.0,0.0,0.0,0.0,0.0,0.0,0.0,0.0,0.0,-0.3563,0.0,-0.6725,-0.6331,-0.853,-0.9673,-0.9723,-1.0358,-1.0627,-1.0822,-1.1351,-1.1616,-1.1609,-1.1457,-1.1443,-1.1535,-1.1596,-1.1619,-1.1619,-1.1332,-1.1188,-1.0897,-1.0462,-1.0138,-0.9956,1.522,0.0,1.4957,0.0,1.4889,1.4707,1.4553,1.3448,1.2291,1.1149,0.8552,0.5812,0.335,0.2624,0.2333,0.2333,0.2333,0.2333,0.2333,0.2333,0.2333,0.2333,0.2333,0.0,0.2333,0.2333,0.2302,0.2239,0.2887,0.0,0.0,0.0,0.0,0.0,0.2988,0.2777,0.2243,0.2306,0.2333,0.2333,0.2333,0.2333,0.2333,0.2333,0.2333,0.2333,0.2333,0.2333,0.2333,0.2333,0.1604,0.0437,-0.1311,-0.3495,-0.5536,-0.67,-0.6992,-0.6992,-0.699,-0.699,-0.699,-0.699,-0.699,-0.699,-0.699,-0.6939,-0.6886,-0.6858,-0.6471,-0.6071,-0.5538,-0.4778,-0.4174,-0.3715,0.0,0.0,0.0,0.0,0.0,0.0,0.0,-0.3937,-0.3973,0.0,0.0,0.0,0.0,0.0,0.0,0.0,0.0,0.0,0.0,0.0,0.0,-0.9871,-1.0878,-1.0541,-1.1042,-1.1184,-1.0998,-1.1549,-1.1751,-1.1484,-1.1467,-1.1494,-1.1555,-1.1599,-1.1476,-1.1332,-1.1044,-1.0897,-1.0609,-1.0026,-0.9879,-0.9735,1.5815,1.5852,1.5919,1.6141,1.6174,1.6174,1.6178,1.5461,1.4449,1.2858,1.1998,0.9698,0.5236,0.3205,0.2333,0.2333,0.2333,0.2333,0.2333,0.2333,0.2333,0.0,0.0,0.2333,0.2333,0.2333,0.2332,0.2331,0.0,0.0,0.2196,0.0,0.2156,0.2243,0.2244,0.2277,0.2331,0.2333,0.2333,0.2333,0.2333,0.2333,0.2333,0.2333,0.2333,0.2333,0.2333,0.2333,0.2333,0.2335,0.2336,0.1898,-0.0146,-0.3645,-0.7009,-0.7003,-0.7001,-0.6998,-0.6992,-0.699,-0.699,-0.699,-0.699,-0.699,-0.699,-0.6988,-0.6962,-0.6872,-0.6569,-0.6069,-0.5557,-0.544,-0.4896,-0.2908,0.0,0.0,0.0,0.0,0.0,0.0,-0.3898,-0.3907,-0.4022,0.0,0.0,0.0,0.0,0.0,0.0,0.0,0.0,-0.6807,-0.7967,0.0,-0.8486,-0.9914,-1.085,-1.1244,-1.1008,-1.1159,-1.1717,-1.1616,-1.1453,-1.1185,-1.1487,-1.1531,-1.1406,-1.1555,-1.1332,-1.1044,-1.1044,-1.0606,-0.9879,-0.9879,-0.959,-0.9304,1.607,1.6079,1.6098,1.6169,1.6183,1.6183,1.6183,1.6037,1.5461,1.4449,1.2287,0.9988,0.8121,0.5955,0.422,0.0,0.2625,0.2333,0.0,0.2333,0.2333,0.2333,0.2333,0.2333,0.2333,0.2333,0.2333,0.2333,0.0,0.0,0.0,0.2242,0.2259,0.2305,0.2305,0.2315,0.2333,0.2333,0.2333,0.2333,0.2333,0.2333,0.2333,0.2333,0.2333,0.2333,0.2333,0.2042,0.1605,0.1606,0.1898,0.219,0.1459,0.0,-0.1894,-0.3934,-0.5685,-0.7001,-0.6996,-0.6992,-0.699,-0.699,-0.699,-0.699,-0.699,-0.699,-0.6982,-0.6952,-0.6612,-0.612,-0.5621,-0.5821,-0.5457,-0.4021,-0.4772,0.0,0.0,0.0,0.0,0.0,0.0,-0.4134,0.0,-0.3941,0.0,0.0,0.0,0.0,0.0,0.0,0.0,0.0,-0.7821,0.0,-0.8593,-1.0006,-1.0798,-1.1087,-1.1227,-1.1488,-1.1877,-1.1451,-1.1369,-1.1474,-1.1467,-1.1494,-1.1552,-1.1312,-1.1188,-1.0897,-1.0462,-1.017,-0.9879,-0.959,-0.9446,-0.9304,1.6183,1.6183,1.6183,1.6183,1.6183,1.6183,1.6183,1.6183,1.6037,1.5461,1.3298,1.1286,1.0284,0.8121,0.0,0.3646,0.3063,0.2625,0.2333,0.2333,0.2333,0.2333,0.2333,0.2333,0.2333,0.0,0.0,0.2333,0.2315,0.2307,0.2307,0.2307,0.2316,0.2333,0.2333,0.2333,0.2333,0.2333,0.2333,0.2333,0.2333,0.2333,0.2333,0.2333,0.2333,0.2333,0.2334,0.2043,0.1606,0.1314,0.1752,0.2336,0.2336,0.1605,0.0292,-0.1602,-0.3787,-0.583,-0.6708,-0.6994,-0.699,-0.699,-0.699,-0.699,-0.699,-0.699,-0.699,-0.699,-0.6657,-0.618,-0.5718,-0.5777,-0.5541,-0.449,-0.4981,-0.5328,-0.4598,0.0,0.0,0.0,0.0,0.0,0.0,-0.3955,0.0,0.0,0.0,0.0,0.0,0.0,0.0,-0.6323,-0.8068,0.0,-0.9377,-1.0449,-1.1069,-1.1363,-1.1556,-1.1706,-1.1671,-1.1492,-1.1406,-1.1531,-1.1494,-1.1389,-1.1332,-1.1044,-1.0897,-1.0606,-1.0023,-0.9879,-0.959,-0.9446,-0.9304,-0.9304,1.6183,1.6183,0.0,0.0,1.6183,0.0,1.6183,1.6183,1.6183,1.6183,1.4746,1.3305,1.1729,0.9568,0.6831,0.3942,0.0,0.0,0.0,0.2333,0.2333,0.2333,0.2333,0.2333,0.2333,0.2333,0.2333,0.2333,0.2187,0.2187,0.2333,0.2187,0.2187,0.2333,0.2333,0.2333,0.2333,0.2333,0.2333,0.2333,0.2333,0.2333,0.2333,0.2333,0.2333,0.2187,0.2189,0.219,0.2044,0.1314,0.1606,0.219,0.219,0.1168,0.0,0.0,-0.1602,-0.3787,-0.627,-0.6996,-0.699,-0.699,-0.699,-0.699,-0.699,-0.699,-0.699,-0.699,-0.6702,-0.6242,-0.5735,-0.5716,-0.5527,-0.4567,-0.4814,-0.4922,-0.4456,0.0,0.0,0.0,0.0,0.0,0.0,-0.4087,-0.4119,0.0,0.0,0.0,0.0,0.0,-0.5472,-0.8432,-0.8573,-0.9244,-1.0717,-1.0982,-1.1394,-1.1817,-1.1983,-1.1941,-1.1413,-1.1545,-1.1528,-1.1399,-1.1552,-1.1325,-1.1028,-1.0894,-1.0462,-0.9879,-0.9879,-0.9593,-0.9304,-0.9304,-0.9304,-0.9304,0.0,0.0,1.6183,1.6183,1.6183,1.6183,1.6183,1.6183,1.6183,1.6183,1.4169,1.2445,1.2158,0.9432,0.7156,0.5905,0.4398,0.3355,0.3209,0.2625,0.2333,0.2333,0.2333,0.2333,0.2333,0.2333,0.2333,0.2333,0.1166,0.1166,0.2333,0.1166,0.1166,0.2333,0.2333,0.2333,0.2333,0.2333,0.2333,0.2333,0.2333,0.2333,0.2333,0.2333,0.2041,0.1749,0.175,0.1167,0.0584,0.0292,0.0438,0.0584,0.0584,0.0292,0.0,0.0,-0.0437,-0.1749,-0.584,-0.7011,-0.7005,-0.6998,-0.6994,-0.699,-0.699,-0.699,-0.699,-0.699,-0.699,-0.6694,-0.5948,-0.6182,-0.6271,-0.5246,-0.5151,-0.5213,-0.4922,-0.447,0.0,0.0,-0.4252,-0.4248,-0.4263,-0.4252,-0.4073,0.0,0.0,0.0,0.0,-0.2701,-0.4174,-0.7638,-0.831,-0.9377,-1.1118,-1.1115,-1.1368,-1.174,-1.1815,-1.172,-1.1562,-1.1484,-1.1426,-1.1399,-1.1266,-1.098,-1.0744,-1.0416,-1.0026,-0.9879,-0.9593,-0.9449,-0.9304,-0.9304,-0.9304,-0.9449,1.7163,1.6603,1.6183,1.6183,1.6183,1.6183,1.6183,1.6183,1.6216,1.6306,1.3858,1.2004,1.207,0.9307,0.7279,0.6882,0.5183,0.3982,0.3559,0.2819,0.2374,0.2374,0.2374,0.2367,0.2354,0.2353,0.2347,0.2333,0.0729,0.0729,0.2333,0.0729,0.0874,0.2333,0.2333,0.2333,0.2333,0.2333,0.2333,0.2333,0.2333,0.2333,0.2333,0.2333,0.2187,0.1895,0.1896,0.1605,0.0876,0.0292,0.0,0.0,0.0,0.0,0.0,0.0,0.0,-0.0729,-0.4379,-0.54,-0.5396,-0.5538,-0.5242,-0.5094,-0.5822,-0.5969,-0.6114,-0.6843,-0.6845,-0.6557,-0.6119,-0.6372,-0.6329,-0.5579,-0.5619,-0.567,-0.5084,-0.475,0.0,-0.4308,-0.4308,-0.4308,-0.4308,-0.4308,-0.4134,-0.3647,0.0,0.0,-0.2991,-0.2751,-0.3705,-0.617,-0.7369,-0.8704,-1.0445,-1.1185,-1.165,-1.182,-1.182,-1.1671,-1.1616,-1.1535,-1.1457,-1.1399,-1.1123,-1.0817,-1.0555,-1.0117,-0.9735,-0.959,-0.9449,-0.9304,-0.9304,-0.9879,-1.002,-1.0302,1.8107,1.7258,1.6558,1.6278,1.6278,1.6278,1.6278,1.6278,1.6191,1.6211,1.3601,1.1744,1.1716,0.9053,0.7419,0.7433,0.5861,0.4647,0.3932,0.3028,0.2575,0.2423,0.212,0.1958,0.2086,0.2086,0.1925,0.19,0.0438,0.0438,0.1895,0.0437,0.0437,0.1895,0.2187,0.2333,0.2333,0.2333,0.2333,0.2333,0.2333,0.2333,0.2333,0.2333,0.2333,0.2333,0.2335,0.2336,0.2044,0.073,0.0146,0.0,0.0,0.0,0.0,0.0,0.0146,-0.0146,-0.2042,-0.2915,-0.3205,-0.335,-0.2913,-0.262,-0.4075,-0.4511,-0.5094,-0.6406,-0.6555,-0.6413,-0.6413,-0.6413,-0.6235,-0.5569,-0.5794,-0.5869,-0.4953,0.0,-0.4587,-0.432,-0.4313,-0.4308,-0.4308,-0.4307,-0.4038,-0.3768,-0.3768,-0.3633,0.0,-0.3363,-0.3763,-0.4966,-0.6297,-0.8041,-0.9943,-1.1329,-1.1967,-1.1952,-1.1836,-1.1778,-1.1619,-1.1619,-1.1535,-1.1258,-1.098,-1.0674,-1.0131,-0.983,-0.959,-0.9302,-0.9571,-0.9574,-0.9732,-1.0833,-1.1262,-1.1402,1.9004,1.8285,1.7854,1.6849,1.6708,1.6708,1.6708,1.6708,1.6269,1.4809,1.3337,1.1864,1.0545,0.8755,0.7744,0.7827,0.6592,0.5494,0.4691,0.3934,0.3179,0.2423,0.1059,0.0302,0.0302,0.0302,0.03,0.0296,-0.1183,-0.1178,0.0291,-0.1165,-0.1165,0.0437,0.1749,0.2333,0.2333,0.2333,0.2333,0.2333,0.2333,0.2333,0.2333,0.2333,0.2333,0.2333,0.2333,0.2335,0.219,0.1314,0.0584,0.0,0.0,0.0,0.0,0.0,0.0876,0.1898,0.1459,0.0146,-0.1166,-0.1311,-0.1748,-0.2329,-0.262,-0.3784,-0.4803,-0.4949,-0.5825,-0.6413,-0.6413,-0.6413,-0.5928,-0.4655,-0.5236,-0.5365,-0.3992,0.0,-0.4384,-0.4384,-0.4339,-0.4308,-0.4308,-0.4038,-0.3768,-0.3363,-0.3228,-0.3229,-0.2828,-0.3095,-0.4031,-0.5635,-0.6836,-0.8753,-1.1581,-1.1873,-1.1906,-1.1956,-1.1664,-1.1596,-1.1619,-1.1619,-1.1392,-1.0834,-1.0687,-1.0242,-0.9709,-0.9543,-0.9304,-0.9435,-1.0463,-1.0776,-1.0855,-1.2003,-1.2271,-1.237,2.0266,1.9397,1.8529,1.7096,1.6802,1.6802,1.6802,1.6802,1.6245,1.4695,1.3207,1.1733,1.0292,0.8624,0.7727,0.7772,0.7152,0.6514,0.5709,0.4783,0.3693,0.1836,0.1076,-0.0,-0.1374,-0.1516,-0.1507,-0.1498,-0.2997,-0.2839,-0.1485,-0.2066,-0.1618,0.0,0.1608,0.2333,0.2333,0.2333,0.2333,0.2333,0.2333,0.2333,0.2333,0.2333,0.2333,0.2333,0.2333,0.2333,0.2189,0.146,0.1022,0.0584,0.0584,0.0584,0.073,0.1168,0.1168,0.1314,0.2044,0.1605,0.0875,0.0875,0.0583,-0.0,-0.0874,-0.1602,-0.2475,-0.3202,-0.4367,-0.5241,-0.5388,-0.5974,-0.6242,-0.5733,-0.586,0.0,0.0,-0.4688,-0.4521,-0.4353,-0.4324,-0.4308,-0.4308,-0.4172,-0.3902,-0.3498,-0.3498,-0.3498,-0.3365,-0.3499,-0.4301,-0.5902,-0.7962,-0.9952,-1.188,-1.1838,-1.1854,-1.1799,-1.1586,-1.1619,-1.1619,-1.1332,-1.1106,-1.0834,-1.0397,-0.9953,-0.9709,-0.9399,-0.9692,-1.0333,-1.0972,-1.1502,-1.2035,-1.3129,-1.3401,-1.3307,2.1317,2.0005,1.8691,1.724,1.6949,1.6949,1.6949,1.6949,1.6251,1.4426,1.3069,1.1584,0.9687,0.8301,0.7525,0.7525,0.7525,0.7213,0.6429,0.5803,0.4369,0.1697,0.0621,-0.1088,-0.3708,-0.3368,-0.3194,-0.3185,-0.4401,-0.4244,-0.3172,-0.2694,-0.1788,-0.0596,0.1472,0.2343,0.2343,0.2336,0.2333,0.2333,0.2333,0.2333,0.2333,0.2333,0.2333,0.2333,0.2333,0.2333,0.2187,0.1605,0.1313,0.1168,0.146,0.1314,0.1314,0.2044,0.146,0.073,0.2043,0.2189,0.2189,0.2335,0.2334,0.2041,0.0874,0.0291,-0.0291,-0.1456,-0.2765,-0.3782,-0.4511,-0.5388,-0.596,-0.6355,0.0,0.0,0.0,-0.4836,-0.4652,-0.4334,-0.4316,-0.4308,-0.4308,-0.4172,-0.4038,-0.3768,-0.3768,-0.3768,-0.3768,-0.3902,-0.4711,-0.6201,-0.8869,-1.0646,-1.1767,-1.1787,-1.1789,-1.1619,-1.1619,-1.1619,-1.1476,-1.1188,-1.0836,-1.0596,-1.0126,-0.9953,-0.9983,-0.9795,-1.0463,-1.173,-1.197,-1.2459,-1.3195,-1.4214,-1.4512,-1.4283,2.1864,2.0219,1.8869,1.7526,1.7383,1.7383,1.7383,1.7383,1.6151,1.3084,1.2622,1.1235,0.7989,0.7525,0.7525,0.7525,0.7525,0.7213,0.6429,0.69,0.5924,0.2621,-0.1232,-0.4491,-0.7043,-0.5629,-0.4818,-0.4917,-0.4917,-0.489,-0.4687,-0.317,-0.2413,-0.2111,0.1044,0.2375,0.2373,0.2345,0.2333,0.2333,0.2333,0.2333,0.2333,0.2333,0.2333,0.2333,0.2333,0.2333,0.2333,0.2187,0.1751,0.1314,0.2044,0.1752,0.1314,0.2044,0.219,0.219,0.2333,0.2041,0.175,0.2187,0.2333,0.2333,0.2187,0.102,-0.0,-0.0146,-0.1019,-0.2474,-0.4366,-0.4511,-0.4332,-0.4372,0.0,0.0,-0.3312,-0.3849,-0.4397,-0.4392,-0.4342,-0.4308,-0.4308,-0.4038,-0.3768,-0.3768,-0.3768,-0.3768,-0.3768,-0.4038,-0.5275,-0.7521,-0.8861,-1.0376,-1.1934,-1.1667,-1.1609,-1.1619,-1.1619,-1.1332,-1.1044,-1.1044,-1.0603,-1.0009,-0.9876,-1.0373,-1.1087,-1.11,-1.1852,-1.307,-1.3992,-1.4297,-1.4407,-1.512,-1.5495,-1.5391,2.2354,2.0714,1.9067,1.7574,1.7426,1.7426,1.7426,1.7426,1.619,1.2947,1.2484,1.1244,0.7835,0.7525,0.7525,0.7525,0.7525,0.7369,0.7056,0.7369,0.5766,0.2001,-0.2138,-0.5206,-0.6665,-0.6559,-0.6568,-0.6537,-0.6537,-0.6523,-0.6494,-0.4907,-0.3514,-0.2444,-0.0151,0.1352,0.2404,0.2374,0.2361,0.2359,0.234,0.2333,0.2333,0.2333,0.2333,0.2333,0.2333,0.2333,0.2333,0.2333,0.2042,0.1896,0.219,0.2043,0.1896,0.2188,0.2334,0.2334,0.2333,0.2187,0.2041,0.2187,0.2333,0.2333,0.2333,0.1895,0.1458,0.1458,-0.0437,-0.2183,-0.2765,-0.4367,-0.5501,-0.512,0.0,-0.5098,-0.4273,-0.4259,-0.4384,-0.4346,-0.4322,-0.4308,-0.4308,-0.4172,-0.4172,-0.4172,-0.4172,-0.4053,-0.3816,-0.4394,-0.5684,-0.7578,-0.8739,-1.0055,-1.153,-1.1541,-1.1476,-1.1188,-1.1188,-1.1041,-1.0746,-1.0458,-1.017,-0.9873,-1.0503,-1.0715,-1.094,-1.1681,-1.265,-1.3709,-1.404,-1.4602,-1.5337,-1.5585,-1.5715,-1.5662,2.2496,2.0558,1.8769,1.7574,1.7426,1.7426,1.7426,1.7426,1.619,1.2947,1.2484,1.1244,0.7835,0.7525,0.7525,0.7525,0.7525,0.7525,0.7525,0.685,0.4944,0.1383,-0.2584,-0.5173,-0.6005,-0.6857,-0.7371,-0.7371,-0.7369,-0.7525,-0.7523,-0.575,-0.4024,-0.2475,-0.0612,0.0913,0.2435,0.2405,0.2393,0.239,0.2359,0.2347,0.2346,0.2336,0.2333,0.2333,0.2333,0.2333,0.2333,0.2333,0.2333,0.2333,0.2335,0.2334,0.2333,0.2333,0.2333,0.2333,0.2333,0.2333,0.2333,0.2333,0.2333,0.2333,0.2333,0.2333,0.2333,0.2333,0.0291,-0.1601,-0.1746,-0.3917,-0.5632,-0.558,-0.5252,-0.5051,-0.482,-0.4518,-0.4354,-0.4312,-0.4308,-0.4308,-0.4308,-0.4308,-0.4308,-0.4308,-0.4189,-0.4225,-0.442,-0.5311,-0.6637,-0.8116,-0.9292,-1.0315,-1.1322,-1.1422,-1.1185,-1.0894,-1.0894,-1.0603,-1.0311,-1.0023,-1.0,-1.0385,-1.0899,-1.1526,-1.2131,-1.2897,-1.3832,-1.4695,-1.4625,-1.5156,-1.5786,-1.572,-1.5745,-1.5894,2.2192,1.9666,1.7426,1.7426,1.7426,1.7426,1.7426,1.7426,1.619,1.2947,1.2484,1.1244,0.7835,0.7525,0.7525,0.7525,0.7525,0.7525,0.7525,0.5362,0.3342,0.1382,-0.2281,-0.4719,-0.5546,-0.6393,-0.6902,-0.6904,-0.7369,-0.7525,-0.7525,-0.5331,-0.3763,-0.235,-0.031,0.1234,0.2467,0.2437,0.2424,0.2421,0.239,0.2378,0.2375,0.2345,0.2333,0.2333,0.2333,0.2333,0.2333,0.2333,0.2333,0.2333,0.2333,0.2333,0.2333,0.2333,0.2333,0.2333,0.2333,0.2333,0.2333,0.2333,0.2333,0.2333,0.2333,0.2333,0.2333,0.2333,0.102,-0.0437,-0.1455,-0.3025,-0.4287,-0.5002,-0.5032,-0.4806,-0.4398,-0.4346,-0.4308,-0.4308,-0.4308,-0.4308,-0.4308,-0.4308,-0.4308,-0.4309,-0.3955,-0.4283,-0.5595,-0.6794,-0.8262,-0.9688,-1.0963,-1.1332,-1.1044,-1.1044,-1.0894,-1.0455,-1.0455,-1.0311,-0.9879,-0.9879,-1.0376,-1.1238,-1.1103,-1.2552,-1.4878,-1.4791,-1.5329,-1.6343,-1.616,-1.5976,-1.5805,-1.5619,-1.5687,-1.6101,2.2192,1.9666,1.7426,1.7426,1.7426,1.7426,1.7426,1.7426,1.619,1.2947,1.2484,1.1244,0.7835,0.7525,0.7525,0.7525,0.7842,0.8,0.8,0.5979,0.4391,0.3341,-0.0601,-0.3456,-0.4564,-0.6005,-0.6844,-0.6904,-0.7369,-0.7525,-0.7525,-0.6587,-0.486,-0.2507,-0.1563,0.0156,0.2499,0.2468,0.2455,0.2453,0.2422,0.241,0.2407,0.2376,0.2365,0.2362,0.234,0.2333,0.2333,0.2333,0.2333,0.2333,0.2333,0.2333,0.2333,0.2333,0.2333,0.2333,0.2333,0.2333,0.2333,0.2333,0.2333,0.2333,0.2333,0.1447,0.0719,0.0719,-0.1292,-0.3149,-0.2837,-0.4126,-0.5112,-0.4743,-0.4559,-0.452,-0.4341,-0.4319,-0.4308,-0.4308,-0.4308,-0.4189,-0.3957,-0.396,-0.3839,-0.3599,-0.4344,-0.4807,-0.5251,-0.7458,-0.895,-0.9383,-1.0581,-1.1041,-1.0603,-1.0897,-1.075,-1.0023,-1.0023,-0.9879,-0.9443,-1.0352,-1.0905,-1.1093,-1.2897,-1.3938,-1.4371,-1.5266,-1.571,-1.5745,-1.5808,-1.6325,-1.7063,-1.6736,-1.7344,-1.8311,2.2192,1.9666,1.7426,1.7426,1.7426,1.7426,1.7426,1.7426,1.619,1.2947,1.2484,1.1244,0.7835,0.7525,0.7525,0.7525,0.7683,0.7985,0.8263,0.5992,0.4551,0.4208,0.0298,-0.2393,-0.3482,-0.5208,-0.6201,-0.6434,-0.7058,-0.7215,-0.7215,-0.706,-0.5331,-0.2507,-0.2039,-0.0314,0.2513,0.2495,0.2487,0.2485,0.2454,0.2442,0.2438,0.2408,0.2388,0.2375,0.2357,0.2343,0.2333,0.2333,0.2333,0.2333,0.2333,0.2333,0.2333,0.2333,0.2333,0.2333,0.2333,0.2333,0.2333,0.2333,0.2333,0.2333,0.2333,0.1304,0.0288,0.0143,-0.2293,-0.4147,-0.337,-0.465,-0.5349,-0.4552,-0.4377,-0.4349,-0.4312,-0.4193,-0.4071,-0.4071,-0.3954,-0.3843,-0.3598,-0.3601,-0.376,-0.3949,-0.5255,-0.6288,-0.6749,-0.8244,-0.9294,-1.0017,-1.0458,-1.0603,-1.0311,-1.0458,-1.0314,-0.959,-0.959,-0.959,-0.9299,-1.0506,-1.1338,-1.1931,-1.3903,-1.4844,-1.5019,-1.5824,-1.6034,-1.5815,-1.6226,-1.6707,-1.7426,-1.7566,-1.8239,-1.9009,2.2043,1.9515,1.7426,1.7426,1.7426,1.7426,1.7426,1.7426,1.619,1.2947,1.2484,1.1244,0.7835,0.7525,0.7525,0.7525,0.7525,0.7808,0.8352,0.5858,0.412,0.3883,0.0744,-0.1496,-0.2575,-0.4135,-0.527,-0.5651,-0.6434,-0.6904,-0.6904,-0.6904,-0.5331,-0.2507,-0.2039,-0.0314,0.2515,0.2515,0.2515,0.2512,0.2485,0.2473,0.247,0.2439,0.241,0.2386,0.238,0.236,0.2336,0.2334,0.2333,0.2333,0.2333,0.2333,0.2333,0.2333,0.2333,0.2333,0.2333,0.2333,0.2333,0.2333,0.2187,0.2187,0.2187,0.1311,0.029,-0.0143,-0.2305,-0.4037,-0.3516,-0.4624,-0.5308,-0.4553,-0.436,-0.4323,-0.4323,-0.396,-0.3716,-0.3716,-0.3478,-0.3226,-0.323,-0.3374,-0.3815,-0.5002,-0.6711,-0.8031,-0.9139,-0.9005,-0.9588,-1.0897,-1.0603,-1.0311,-0.9879,-0.9879,-0.959,-0.9304,-0.9304,-0.9304,-0.9446,-1.0584,-1.1938,-1.3232,-1.4223,-1.5339,-1.6326,-1.6244,-1.6196,-1.6135,-1.7103,-1.737,-1.7561,-1.8379,-1.8781,-1.9015,2.0558,1.8769,1.7426,1.7426,1.7426,1.7426,1.7426,1.7426,1.619,1.2947,1.2484,1.1244,0.7835,0.7525,0.7525,0.7525,0.7842,0.815,0.8285,0.604,0.384,0.168,0.0451,-0.1347,-0.3485,-0.4556,-0.5225,-0.565,-0.6434,-0.6904,-0.6904,-0.6904,-0.5331,-0.2507,-0.2039,-0.0314,0.2515,0.2515,0.2515,0.2514,0.2507,0.2504,0.2501,0.2471,0.2455,0.2443,0.2395,0.2374,0.2365,0.2341,0.2333,0.2333,0.2333,0.2333,0.2333,0.2333,0.2333,0.2333,0.2333,0.2333,0.2333,0.2333,0.1603,0.102,0.102,-0.0144,-0.1432,-0.2429,-0.415,-0.5138,-0.4777,-0.4947,-0.5101,-0.4614,-0.4177,-0.4032,-0.4032,-0.3623,-0.335,-0.335,-0.3358,-0.3238,-0.2987,-0.3877,-0.4481,-0.4782,-0.7092,-0.8544,-0.8858,-0.9879,-1.0458,-1.0603,-1.0599,-1.0311,-0.9879,-0.959,-0.9449,-0.9304,-0.9304,-0.9735,-1.0737,-1.1903,-1.3165,-1.4248,-1.5416,-1.6139,-1.6258,-1.6164,-1.6612,-1.7103,-1.7379,-1.845,-1.996,-1.9966,-2.0642,-2.1701,2.0107,1.8471,1.7426,1.7426,1.7426,1.7459,1.7553,1.7487,1.6221,1.3042,1.2528,1.1244,0.7835,0.7525,0.7525,0.7525,0.7683,0.7842,0.7842,0.5299,0.2942,0.0923,-0.0457,-0.2126,-0.3973,-0.4431,-0.4918,-0.5293,-0.6259,-0.6589,-0.6589,-0.7058,-0.5957,-0.3604,-0.2665,-0.0941,0.1413,0.22,0.2515,0.2515,0.2515,0.2515,0.2512,0.2497,0.2482,0.2463,0.2416,0.2381,0.2354,0.2338,0.2333,0.2333,0.2333,0.2333,0.2333,0.2333,0.1895,0.1458,0.1458,0.102,0.0583,0.0583,0.0146,-0.0146,0.0437,-0.0869,-0.2445,-0.3289,-0.4451,-0.5306,-0.4781,-0.4816,-0.4697,-0.4073,-0.3785,-0.3645,-0.3645,-0.3243,-0.3113,-0.3113,-0.2989,-0.3007,-0.3603,-0.4927,-0.596,-0.6541,-0.8572,-0.9732,-0.9732,-1.0458,-1.0746,-1.0455,-1.0311,-1.0023,-0.959,-0.9959,-1.0099,-1.0167,-1.0167,-1.0706,-1.2059,-1.3185,-1.394,-1.4595,-1.5775,-1.622,-1.6183,-1.6744,-1.7233,-1.7668,-1.865,-1.974,-2.0812,-2.1091,-2.1582,-2.2247,1.9666,1.8319,1.7426,1.7426,1.7454,1.752,1.7653,1.7251,1.597,1.312,1.24,1.0937,0.7835,0.7525,0.7525,0.7525,0.7525,0.7525,0.7525,0.47,0.234,0.1081,-0.1234,-0.3085,-0.4163,-0.4163,-0.4478,-0.4951,-0.5778,-0.6273,-0.6273,-0.6742,-0.6111,-0.4543,-0.282,-0.1097,0.0471,0.1885,0.2515,0.2515,0.2515,0.2515,0.2515,0.2515,0.2499,0.2472,0.2436,0.2384,0.2333,0.2333,0.2333,0.2333,0.2333,0.2333,0.2333,0.2187,0.1458,0.0583,0.0437,-0.0437,-0.1166,-0.1166,-0.1311,-0.1166,-0.0291,-0.1456,-0.3048,-0.359,-0.4339,-0.4924,-0.439,-0.4412,-0.4144,-0.3394,-0.3246,-0.3246,-0.3246,-0.2992,-0.2726,-0.2726,-0.2751,-0.335,-0.4946,-0.6393,-0.7695,-0.8569,-1.0023,-1.0753,-1.0753,-1.0603,-1.0311,-1.0311,-1.0023,-0.9735,-0.959,-1.0621,-1.1318,-1.1558,-1.1586,-1.2248,-1.3247,-1.4102,-1.46,-1.4888,-1.5749,-1.6325,-1.6603,-1.7439,-1.8115,-1.8615,-2.0185,-2.0915,-2.1167,-2.1938,-2.2138,-2.2138,1.8025,1.7574,1.7426,1.7426,1.7572,1.7634,1.7487,1.6348,1.4824,1.2838,1.1256,0.9542,0.7681,0.7525,0.7525,0.7525,0.7525,0.7525,0.7525,0.5641,0.3914,0.2345,-0.0774,-0.3083,-0.4163,-0.4163,-0.4494,-0.501,-0.5489,-0.5963,-0.6273,-0.5332,-0.4076,-0.282,-0.1098,0.0628,0.22,0.2357,0.2515,0.2515,0.2515,0.2515,0.2515,0.2515,0.2512,0.2501,0.2444,0.2384,0.2333,0.2333,0.2333,0.2333,0.277,0.277,0.2625,0.1603,0.1312,0.0874,-0.0583,-0.102,-0.1166,-0.1166,-0.1894,-0.2621,-0.2475,-0.2621,-0.3202,-0.4361,-0.4366,-0.4221,-0.4206,-0.3921,-0.3635,-0.3484,-0.3192,-0.2902,-0.2902,-0.2615,-0.2326,-0.2326,-0.3492,-0.4946,-0.6536,-0.7697,-0.8569,-0.8716,-0.9588,-1.0026,-1.0026,-1.0023,-0.9879,-0.9446,-0.9735,-1.0167,-1.074,-1.1009,-1.2077,-1.4208,-1.4094,-1.4156,-1.4277,-1.4445,-1.503,-1.6037,-1.6178,-1.6744,-1.7721,-1.7861,-1.8844,-2.0421,-2.0656,-2.1327,-2.2169,-2.2665,-2.2746,-2.2746,1.7726,1.7426,1.7426,1.7426,1.7497,1.7568,1.7591,1.6168,1.4609,1.2915,1.1134,0.9387,0.7679,0.7525,0.7525,0.7525,0.7525,0.7525,0.7525,0.5955,0.423,0.2508,0.0156,-0.2179,-0.4207,-0.405,-0.4372,-0.5337,-0.565,-0.5963,-0.6273,-0.5019,-0.4232,-0.3761,-0.1097,0.0471,0.1099,0.2042,0.2515,0.2515,0.2515,0.2515,0.2515,0.2515,0.2515,0.2506,0.2446,0.2395,0.2356,0.2631,0.2625,0.2625,0.2041,0.1895,0.1603,0.0291,-0.0583,-0.1311,-0.1894,-0.2622,-0.3206,-0.3206,-0.3497,-0.3934,-0.3934,-0.3934,-0.4079,-0.4518,-0.4371,-0.408,-0.379,-0.35,-0.3063,-0.2916,-0.2625,-0.2625,-0.2625,-0.2478,-0.2623,-0.3496,-0.4078,-0.5238,-0.7697,-0.8136,-0.8572,-0.9296,-0.9735,-0.9879,-0.9879,-0.9879,-0.9879,-0.959,-1.0455,-1.0884,-1.1028,-1.2364,-1.3601,-1.4613,-1.5298,-1.5574,-1.5579,-1.5552,-1.5749,-1.6183,-1.6183,-1.6885,-1.8002,-1.8563,-1.9606,-2.1158,-2.1705,-2.2251,-2.2679,-2.2812,-2.2859,-2.2859]}]]